[[{"header":{"parameterUnit":"m.s-1","parameterCategory":1,"la1":30.6,"la2":29.2853,"lo1":-89.7004,"lo2":-87.6739,"dy":0.0162,"dx":0.0183,"nx":112,"ny":82,"refTime":"2023-09-17T18:00:00:Z","depth":0,"parameterNumber":2,"parameterNumberName":"U-component_of_WINDS"},"data":[0.0,0.0,0.0,0.0,0.0,0.0,0.0,0.0,0.0,0.0,0.0,0.0,0.0,0.0,0.0,0.0,0.0,0.0,0.0,0.0,0.0,0.0,0.0,0.0,0.0,0.0,0.0,0.0,0.0,0.0,0.0,0.0,0.0,0.0,0.0,0.0,0.0,0.0,0.0,0.0,0.0,0.0,0.0,0.0,0.0,0.0,0.0,0.0,0.0,0.0,0.0,0.0,0.0,0.0,0.0,0.0,0.0,0.0,0.0,0.0,0.0,0.0,0.0,0.0,0.0,0.0,0.0,0.0,0.0,0.0,0.0,0.0,0.0,0.0,0.0,0.0,0.0,0.0,0.0,0.0,0.0,0.0,0.0,0.0,0.0,0.0,0.0,0.0,0.0,0.0,-1.2913,-1.534,-1.8446,-2.0229,-1.9867,-1.9087,-1.6297,-1.0795,0.0,0.0,0.0,0.0,0.0,0.0,0.0,0.0,0.0,0.0,0.0,0.0,0.0,0.0,0.0,0.0,0.0,0.0,0.0,0.0,0.0,0.0,0.0,0.0,0.0,0.0,0.0,0.0,0.0,0.0,0.0,0.0,0.0,0.0,0.0,0.0,0.0,0.0,0.0,0.0,0.0,0.0,0.0,0.0,0.0,0.0,0.0,0.0,0.0,0.0,0.0,0.0,0.0,0.0,0.0,0.0,0.0,0.0,0.0,0.0,0.0,0.0,0.0,0.0,0.0,0.0,0.0,0.0,0.0,0.0,0.0,0.0,0.0,0.0,0.0,0.0,0.0,0.0,0.0,0.0,0.0,0.0,0.0,0.0,0.0,0.0,0.0,0.0,0.0,0.0,0.0,0.0,0.0,0.0,0.0,0.0,0.0,0.0,0.0,0.0,0.0,0.0,0.0,0.0,-1.2694,-1.8138,-1.9333,-1.9917,-2.0434,-1.8627,-1.563,-1.1318,0.0,0.0,0.0,0.0,0.0,0.0,0.0,0.0,0.0,0.0,0.0,0.0,0.0,0.0,0.0,0.0,0.0,0.0,0.0,0.0,0.0,0.0,0.0,0.0,0.0,0.0,0.0,0.0,0.0,0.0,0.0,0.0,0.0,0.0,0.0,0.0,0.0,0.0,0.0,0.0,0.0,0.0,0.0,0.0,0.0,0.0,0.0,0.0,0.0,0.0,0.0,0.0,0.0,0.0,0.0,0.0,0.0,0.0,0.0,0.0,0.0,0.0,0.0,0.0,0.0,0.0,0.0,0.0,0.0,0.0,0.0,0.0,0.0,0.0,0.0,0.0,0.0,0.0,0.0,0.0,0.0,0.0,0.0,0.0,0.0,0.0,0.0,0.0,0.0,0.0,0.0,0.0,0.0,0.0,0.0,0.0,0.0,0.0,0.0,0.0,0.0,0.0,0.0,-1.282,-1.53,-1.9301,-1.999,-2.0206,-2.0375,-1.8155,-1.516,-1.145,-1.0051,0.0,0.0,0.0,0.0,0.0,0.0,0.0,0.0,0.0,0.0,0.0,0.0,0.0,0.0,0.0,0.0,0.0,0.0,0.0,0.0,0.0,0.0,0.0,0.0,0.0,0.0,0.0,0.0,0.0,0.0,0.0,0.0,0.0,0.0,0.0,0.0,0.0,0.0,0.0,0.0,0.0,0.0,0.0,0.0,0.0,0.0,0.0,0.0,0.0,0.0,0.0,0.0,0.0,0.0,0.0,0.0,0.0,0.0,0.0,0.0,0.0,0.0,0.0,0.0,0.0,0.0,0.0,0.0,0.0,0.0,0.0,0.0,0.0,0.0,0.0,0.0,0.0,0.0,0.0,0.0,0.0,0.0,0.0,0.0,0.0,0.0,0.0,0.0,0.0,0.0,0.0,0.0,0.0,0.0,0.0,0.0,0.0,0.0,0.0,0.0,0.0,0.0,-1.5583,-1.8165,-1.9697,-2.0173,-2.0247,-1.9906,-1.7227,-1.4245,-1.1187,-0.9098,0.0,0.0,0.0,0.0,0.0,0.0,0.0,0.0,0.0,0.0,0.0,0.0,0.0,0.0,0.0,0.0,0.0,0.0,0.0,0.0,0.0,0.0,0.0,0.0,0.0,0.0,0.0,0.0,0.0,0.0,0.0,0.0,0.0,0.0,0.0,0.0,0.0,0.0,0.0,0.0,0.0,0.0,0.0,0.0,0.0,0.0,0.0,0.0,0.0,0.0,0.0,0.0,0.0,0.0,0.0,0.0,0.0,0.0,0.0,0.0,0.0,0.0,0.0,0.0,0.0,0.0,0.0,0.0,0.0,0.0,0.0,0.0,0.0,0.0,0.0,0.0,0.0,0.0,0.0,0.0,0.0,0.0,0.0,0.0,0.0,0.0,0.0,0.0,0.0,0.0,0.0,0.0,0.0,0.0,0.0,0.0,0.0,0.0,0.0,0.0,0.0,0.0,-1.6789,-1.9957,-1.9502,-1.9629,-1.9527,-1.8962,-1.5354,-1.235,-1.0482,-0.7731,0.0,0.0,0.0,0.0,0.0,0.0,0.0,0.0,0.0,0.0,0.0,0.0,0.0,0.0,0.0,0.0,0.0,0.0,0.0,0.0,0.0,0.0,0.0,0.0,0.0,0.0,0.0,0.0,0.0,0.0,0.0,0.0,0.0,0.0,0.0,0.0,0.0,0.0,0.0,0.0,0.0,0.0,0.0,0.0,0.0,0.0,0.0,0.0,0.0,0.0,0.0,0.0,0.0,0.0,0.0,0.0,0.0,0.0,0.0,0.0,0.0,0.0,0.0,0.0,0.0,0.0,0.0,0.0,0.0,0.0,0.0,0.0,0.0,0.0,0.0,0.0,0.0,0.0,0.0,0.0,0.0,0.0,0.0,0.0,0.0,0.0,0.0,0.0,0.0,0.0,0.0,0.0,0.0,0.0,0.0,0.0,0.0,0.0,0.0,0.0,0.0,0.0,-1.6382,-1.9089,-2.0212,-2.0292,-1.9958,-1.9177,-1.6639,-1.3722,-1.0508,0.0,0.0,0.0,0.0,0.0,0.0,0.0,0.0,0.0,0.0,0.0,0.0,0.0,0.0,0.0,0.0,0.0,0.0,0.0,0.0,0.0,0.0,0.0,0.0,0.0,0.0,0.0,0.0,0.0,0.0,0.0,0.0,0.0,0.0,0.0,0.0,0.0,0.0,0.0,0.0,0.0,0.0,0.0,0.0,0.0,0.0,0.0,0.0,0.0,0.0,0.0,0.0,0.0,0.0,0.0,0.0,0.0,0.0,0.0,0.0,0.0,0.0,0.0,0.0,0.0,0.0,0.0,0.0,0.0,0.0,0.0,0.0,0.0,0.0,0.0,0.0,0.0,0.0,0.0,0.0,0.0,0.0,0.0,0.0,0.0,0.0,0.0,0.0,0.0,0.0,0.0,0.0,0.0,0.0,0.0,0.0,0.0,0.0,0.0,0.0,0.0,0.0,-1.3656,-1.6578,-1.9075,-2.0587,-2.0529,-1.9976,-1.8948,-1.6579,-1.3687,-1.026,0.0,0.0,0.0,0.0,0.0,0.0,0.0,0.0,0.0,0.0,0.0,0.0,0.0,0.0,0.0,0.0,0.0,0.0,0.0,0.0,0.0,0.0,0.0,0.0,0.0,0.0,0.0,0.0,0.0,0.0,0.0,0.0,0.0,0.0,0.0,0.0,0.0,0.0,0.0,0.0,0.0,0.0,0.0,0.0,0.0,0.0,0.0,0.0,0.0,0.0,0.0,0.0,0.0,0.0,0.0,0.0,0.0,0.0,0.0,0.0,0.0,0.0,0.0,0.0,0.0,0.0,0.0,0.0,0.0,0.0,0.0,0.0,0.0,0.0,0.0,0.0,0.0,0.0,0.0,0.0,0.0,0.0,0.0,0.0,0.0,0.0,0.0,0.0,0.0,0.0,0.0,0.0,0.0,0.0,0.0,0.0,0.0,0.0,0.0,0.0,0.0,0.0,-1.3825,-1.7702,-2.04,-2.0414,-2.017,-1.945,-1.8031,-1.4533,-1.1589,0.0,0.0,0.0,0.0,0.0,0.0,0.0,0.0,0.0,0.0,0.0,0.0,0.0,0.0,0.0,0.0,0.0,0.0,0.0,0.0,0.0,0.0,0.0,0.0,0.0,0.0,0.0,0.0,0.0,0.0,0.0,0.0,0.0,0.0,0.0,0.0,0.0,0.0,0.0,0.0,0.0,0.0,0.0,0.0,0.0,0.0,0.0,0.0,0.0,0.0,0.0,0.0,0.0,0.0,0.0,0.0,0.0,0.0,0.0,0.0,0.0,0.0,0.0,0.0,0.0,0.0,0.0,0.0,0.0,0.0,0.0,0.0,0.0,0.0,0.0,0.0,0.0,0.0,0.0,0.0,0.0,0.0,0.0,0.0,0.0,0.0,0.0,0.0,0.0,0.0,0.0,0.0,0.0,0.0,0.0,0.0,0.0,0.0,0.0,0.0,0.0,0.0,0.0,-1.4401,-1.7969,-2.0723,-2.1589,-2.0918,-1.9915,-1.8644,-1.5976,-1.2977,-0.9708,0.0,0.0,0.0,0.0,0.0,0.0,0.0,0.0,0.0,0.0,0.0,0.0,0.0,0.0,0.0,0.0,0.0,0.0,0.0,0.0,0.0,0.0,0.0,0.0,0.0,0.0,0.0,0.0,0.0,0.0,0.0,0.0,0.0,0.0,0.0,0.0,0.0,0.0,0.0,0.0,0.0,0.0,0.0,0.0,0.0,0.0,0.0,0.0,0.0,0.0,0.0,0.0,0.0,0.0,0.0,0.0,0.0,0.0,0.0,0.0,0.0,0.0,0.0,0.0,0.0,0.0,0.0,0.0,0.0,0.0,0.0,0.0,0.0,0.0,0.0,0.0,0.0,0.0,0.0,0.0,0.0,0.0,0.0,0.0,0.0,0.0,0.0,0.0,0.0,0.0,0.0,0.0,0.0,0.0,0.0,0.0,0.0,0.0,0.0,0.0,0.0,0.0,-1.4977,-1.8236,-2.0765,-2.1729,-2.0823,-1.9573,-1.8242,-1.5841,-1.3145,-1.0199,0.0,0.0,0.0,0.0,0.0,0.0,0.0,0.0,0.0,0.0,0.0,0.0,0.0,0.0,0.0,0.0,0.0,0.0,0.0,0.0,0.0,0.0,0.0,0.0,0.0,0.0,0.0,0.0,0.0,0.0,0.0,0.0,0.0,0.0,0.0,0.0,0.0,0.0,0.0,0.0,0.0,0.0,0.0,0.0,0.0,0.0,0.0,0.0,0.0,0.0,0.0,0.0,0.0,0.0,0.0,0.0,0.0,0.0,0.0,0.0,0.0,0.0,0.0,0.0,0.0,0.0,0.0,0.0,0.0,0.0,0.0,0.0,0.0,0.0,0.0,0.0,0.0,0.0,0.0,0.0,0.0,0.0,0.0,0.0,0.0,0.0,0.0,0.0,0.0,0.0,0.0,0.0,0.0,0.0,0.0,0.0,0.0,0.0,0.0,0.0,0.0,0.0,-1.5396,-1.8357,-2.0526,-2.1139,-2.0112,-1.88,-1.7341,-1.4806,-1.2607,-1.1028,0.0,0.0,0.0,0.0,0.0,0.0,0.0,0.0,0.0,0.0,0.0,0.0,0.0,0.0,0.0,0.0,0.0,0.0,0.0,0.0,0.0,0.0,0.0,0.0,0.0,0.0,0.0,0.0,0.0,0.0,0.0,0.0,0.0,0.0,0.0,0.0,0.0,0.0,0.0,0.0,0.0,0.0,0.0,0.0,0.0,0.0,0.0,0.0,0.0,0.0,0.0,0.0,0.0,0.0,0.0,0.0,0.0,0.0,0.0,0.0,-1.5213,-1.3008,0.0,0.0,0.0,0.0,0.0,0.0,0.0,0.0,0.0,0.0,0.0,0.0,0.0,0.0,0.0,0.0,0.0,0.0,0.0,0.0,0.0,0.0,0.0,0.0,0.0,0.0,0.0,0.0,0.0,0.0,0.0,0.0,0.0,0.0,0.0,0.0,0.0,0.0,0.0,0.0,-1.4878,-1.7698,-1.9859,-2.0512,-1.9747,-1.8886,-1.8196,-1.5577,-1.337,-1.1913,-1.0329,0.0,0.0,0.0,0.0,0.0,0.0,0.0,0.0,0.0,0.0,0.0,0.0,0.0,0.0,0.0,0.0,0.0,0.0,0.0,0.0,0.0,0.0,0.0,0.0,0.0,0.0,0.0,0.0,0.0,0.0,0.0,0.0,0.0,0.0,0.0,0.0,0.0,0.0,0.0,0.0,0.0,0.0,0.0,0.0,0.0,0.0,0.0,0.0,0.0,0.0,0.0,0.0,0.0,0.0,0.0,0.0,0.0,0.0,0.0,-1.7644,-1.5994,0.0,0.0,0.0,0.0,0.0,0.0,0.0,0.0,0.0,0.0,0.0,0.0,0.0,0.0,0.0,0.0,0.0,0.0,0.0,0.0,0.0,0.0,0.0,0.0,0.0,0.0,0.0,0.0,0.0,0.0,0.0,0.0,0.0,0.0,0.0,0.0,0.0,0.0,0.0,0.0,-1.596,-1.7876,-1.9245,-1.9598,-1.8746,-1.7904,-1.7217,-1.4986,-1.3343,-1.2726,-1.0991,0.0,0.0,0.0,0.0,0.0,0.0,0.0,0.0,0.0,0.0,0.0,0.0,0.0,0.0,0.0,0.0,0.0,0.0,0.0,0.0,0.0,0.0,0.0,0.0,0.0,0.0,0.0,0.0,0.0,0.0,0.0,0.0,0.0,0.0,0.0,0.0,0.0,0.0,0.0,0.0,0.0,0.0,0.0,0.0,0.0,0.0,0.0,0.0,0.0,0.0,0.0,0.0,0.0,-2.5172,-2.5255,-2.5546,-2.4865,-2.4496,-2.43,-2.1571,-2.0577,-2.0611,-1.7183,0.0,0.0,0.0,0.0,0.0,0.0,0.0,0.0,0.0,0.0,0.0,0.0,0.0,0.0,0.0,0.0,0.0,0.0,0.0,0.0,0.0,0.0,-1.6831,-1.7941,-1.8518,-1.8183,-1.574,0.0,0.0,0.0,0.0,0.0,0.0,0.0,0.0,0.0,0.0,0.0,-1.707,-1.8037,-1.8557,-1.8644,-1.7771,-1.6837,-1.5972,-1.4275,-1.3307,-1.3381,-1.1491,-1.0522,0.0,0.0,0.0,0.0,0.0,0.0,0.0,0.0,0.0,0.0,0.0,0.0,0.0,0.0,0.0,0.0,0.0,0.0,0.0,0.0,0.0,0.0,0.0,0.0,0.0,0.0,0.0,0.0,0.0,0.0,0.0,0.0,-1.7273,-1.8352,0.0,0.0,0.0,0.0,0.0,0.0,0.0,0.0,0.0,0.0,0.0,0.0,0.0,-2.4152,-2.6782,-2.8579,-3.0103,-3.1409,-3.2977,-3.3227,-3.2239,-3.1951,-3.1827,-3.168,-2.9029,0.0,-2.2578,-2.0512,0.0,0.0,0.0,0.0,0.0,0.0,0.0,0.0,0.0,0.0,0.0,0.0,0.0,0.0,0.0,0.0,0.0,0.0,0.0,0.0,0.0,0.0,-1.9985,-2.019,-2.0222,-2.0135,-1.9748,-1.7238,-1.4894,-1.4244,-1.3762,-1.3171,0.0,0.0,0.0,0.0,0.0,0.0,-1.6245,-1.6959,-1.7584,-1.8053,-1.756,-1.6951,-1.6277,-1.5104,-1.4201,-1.3763,-1.2533,-1.1849,-1.19,-1.0946,0.0,0.0,0.0,0.0,0.0,0.0,0.0,0.0,0.0,0.0,0.0,0.0,0.0,0.0,0.0,0.0,0.0,0.0,0.0,0.0,0.0,0.0,0.0,0.0,0.0,0.0,0.0,0.0,0.0,-1.6969,-1.9361,-2.0436,-2.0976,-2.0417,0.0,0.0,0.0,0.0,0.0,0.0,0.0,0.0,0.0,-2.6593,-2.7623,-2.9595,-3.2481,-3.3746,-3.5009,-3.6272,-3.6402,-3.6344,-3.6098,-3.5183,-3.4761,-3.4718,-3.3489,-3.1447,-2.867,-2.4325,-2.2424,-2.1944,0.0,0.0,0.0,0.0,-1.7252,-1.7357,-1.8757,-1.957,-1.997,-1.967,0.0,0.0,0.0,0.0,0.0,0.0,0.0,-1.6985,-1.7509,-1.9215,-2.1013,-2.1759,-2.2165,-2.2268,-2.1963,-2.0186,-1.8165,-1.6527,-1.6117,-1.5459,-1.3721,-1.3601,0.0,0.0,0.0,-1.633,-1.7068,-1.7496,-1.7683,-1.7619,-1.7169,-1.6606,-1.6003,-1.4925,-1.4229,-1.4204,-1.2877,-1.2233,-1.2551,-1.213,-1.1606,0.0,0.0,0.0,0.0,0.0,0.0,0.0,0.0,0.0,0.0,0.0,0.0,0.0,0.0,0.0,0.0,0.0,0.0,0.0,0.0,0.0,0.0,0.0,0.0,0.0,0.0,0.0,0.0,-1.9212,-2.1697,-2.2732,-2.4063,-2.3975,0.0,0.0,0.0,0.0,0.0,0.0,-2.5981,-2.7041,-2.8869,-3.1698,-3.2904,-3.4704,-3.7259,-3.7781,-3.858,-3.9668,-3.8391,-3.8101,-3.8638,-3.7213,-3.6562,-3.6562,-3.6273,-3.5489,-3.3944,-2.8254,-2.538,-2.436,-2.1995,-2.0527,-1.9864,-2.0415,-2.0423,-2.0393,-2.2002,-2.2531,-2.2488,-2.253,-2.1881,-2.0848,-1.9458,0.0,0.0,0.0,0.0,-1.8486,-1.9611,-2.0815,-2.2037,-2.3296,-2.3773,-2.3854,-2.3324,-2.2606,-2.1337,-1.8908,-1.8228,-1.7393,-1.5341,-1.4822,0.0,-1.5446,-1.6143,-1.6961,-1.7935,-1.7854,-1.7619,-1.7347,-1.6767,-1.6201,-1.5695,-1.4754,-1.4263,-1.4444,-1.3215,-1.2659,-1.3061,-1.3084,-1.2705,-1.1899,0.0,0.0,0.0,0.0,0.0,0.0,0.0,0.0,0.0,0.0,0.0,0.0,0.0,0.0,0.0,0.0,0.0,0.0,0.0,0.0,0.0,0.0,0.0,0.0,0.0,0.0,0.0,0.0,0.0,-2.4776,-2.9071,0.0,0.0,0.0,0.0,-2.5527,-2.7241,-2.9406,-3.1946,-3.3833,-3.577,-3.7709,-3.8449,-3.9175,-3.99,-3.9944,-4.0307,-4.0989,-3.9712,-3.9421,-3.9958,-3.8681,-3.8101,-3.8072,-3.7469,-3.6958,-3.6239,-3.2156,-2.9873,-2.8646,-2.5016,-2.3809,-2.3973,-2.2932,-2.2868,-2.3385,-2.4099,-2.4362,-2.4518,-2.554,-2.4829,-2.3236,-2.1143,-2.0105,0.0,0.0,-1.8823,-2.0559,-2.1157,-2.2469,-2.3914,-2.4939,-2.4831,-2.435,-2.3866,-2.3772,-2.3113,-2.0904,-1.9221,-1.7909,-1.701,0.0,-1.7485,-1.6321,-1.7202,-1.8064,-1.8175,-1.7291,-1.687,-1.7352,-1.6451,-1.575,-1.5536,-1.4996,-1.4596,-1.4406,-1.3854,-1.3544,-1.3558,-1.3558,-1.3535,-1.3478,-1.2601,0.0,0.0,0.0,0.0,0.0,0.0,0.0,0.0,0.0,0.0,0.0,0.0,0.0,0.0,0.0,0.0,0.0,0.0,0.0,0.0,0.0,0.0,0.0,0.0,0.0,0.0,0.0,0.0,-2.904,-3.2013,0.0,-3.006,-3.0249,-3.0758,-3.1293,-3.3137,-3.4994,-3.6722,-3.8246,-3.9363,-4.0046,-4.0713,-4.1163,-4.1381,-4.1381,-4.1512,-4.1729,-4.0408,-3.9886,-4.006,-3.8783,-3.8202,-3.8188,-3.797,-3.6997,-3.5423,-3.387,-3.2116,-3.0183,-2.801,-2.669,-2.6012,-2.5923,-2.6033,-2.6299,-2.6876,-2.6863,-2.6489,-2.6202,-2.5492,-2.4554,-2.3448,-2.322,-2.3075,-2.1849,-2.2522,-2.3592,-2.3448,-2.4085,-2.4855,-2.5216,-2.5168,-2.4975,-2.4795,-2.4274,-2.3681,-2.3204,-2.1597,-1.9992,-1.8979,-1.8724,-1.8409,-1.7606,-1.8165,-1.8553,-1.8243,-1.8169,-1.7953,-1.7447,-1.7051,-1.65,-1.5696,-1.5063,-1.4781,-1.4977,-1.4105,-1.3742,-1.4098,-1.4109,-1.4109,-1.4109,-1.4052,-1.3294,0.0,0.0,0.0,0.0,0.0,0.0,0.0,0.0,0.0,0.0,0.0,0.0,0.0,0.0,0.0,0.0,0.0,0.0,0.0,0.0,0.0,0.0,0.0,0.0,0.0,-2.7156,-3.0701,-3.2465,-3.5496,-3.6634,-3.4617,-3.5043,-3.5819,-3.6606,-3.826,-3.9509,-4.0147,-4.1163,-4.1642,-4.1439,-4.186,-4.2092,-4.2092,-4.1874,-4.1758,-4.1744,-4.0423,-3.9799,-3.9755,-3.8696,-3.8202,-3.8165,-3.7886,-3.6855,-3.5322,-3.4719,-3.3147,-3.1009,-2.9732,-2.8496,-2.7474,-2.7861,-2.7993,-2.8041,-2.839,-2.8282,-2.7798,-2.6935,-2.6406,-2.6021,-2.5457,-2.5541,-2.5709,-2.5023,-2.5192,-2.5492,-2.5143,-2.518,-2.5312,-2.5312,-2.5312,-2.5264,-2.5083,-2.4506,-2.4073,-2.423,-2.2744,-2.1173,-2.0238,-1.9468,-1.8758,-1.8049,-1.8085,-1.8061,-1.7712,-1.7977,-1.7857,-1.6955,-1.7015,-1.6728,-1.5708,-1.4931,-1.4697,-1.5198,-1.4219,-1.3944,-1.4603,-1.4304,-1.4121,-1.4121,-1.3661,-1.3008,-1.219,0.0,0.0,0.0,0.0,0.0,0.0,0.0,0.0,0.0,0.0,0.0,0.0,0.0,0.0,0.0,0.0,0.0,0.0,0.0,0.0,0.0,0.0,0.0,-2.6985,-3.257,-3.6073,-3.502,-3.9717,-4.1802,-3.8681,-4.0075,-4.1192,-4.1192,-4.2339,-4.2774,-4.215,-4.2702,-4.2745,-4.2121,-4.2092,-4.2092,-4.2092,-4.1453,-4.1134,-4.112,-3.9842,-3.9233,-3.9204,-3.8507,-3.8202,-3.8165,-3.7285,-3.6649,-3.6146,-3.4753,-3.3036,-3.1251,-3.0143,-2.9236,-2.851,-2.851,-2.851,-2.851,-2.851,-2.851,-2.8426,-2.787,-2.7702,-2.7618,-2.7102,-2.6946,-2.6934,-2.691,-2.655,-2.6117,-2.6081,-2.5697,-2.5312,-2.5312,-2.5312,-2.5168,-2.465,-2.4496,-2.4374,-2.3938,-2.2534,-2.1296,-2.075,-1.9805,-1.8734,-1.7651,-1.7063,0.0,-1.6679,-1.6667,-1.6463,-1.59,-1.6331,-1.6335,-1.556,-1.468,-1.4434,-1.5073,-1.4242,-1.4138,-1.5062,-1.4134,-1.3597,-1.3597,-1.1333,-1.0902,-1.2393,0.0,0.0,0.0,0.0,0.0,0.0,0.0,0.0,0.0,0.0,0.0,0.0,0.0,0.0,0.0,0.0,0.0,0.0,0.0,0.0,0.0,-3.0163,-3.3016,-3.3153,-3.5761,-3.8632,-4.1102,-4.2802,-4.3369,-4.2484,-4.2876,-4.3195,-4.3195,-4.3921,-4.3892,-4.2803,-4.3355,-4.3224,-4.2121,-4.2092,-4.2092,-4.2092,-4.1918,-4.1816,-4.1802,-4.0481,-3.9842,-3.9813,-3.871,-3.8202,-3.8165,-3.7285,-3.6203,-3.4898,-3.3738,-3.2008,-3.0089,-3.0301,-2.9596,-2.851,-2.851,-2.851,-2.851,-2.851,-2.851,-2.8486,-2.8342,-2.8294,-2.827,-2.8086,-2.8077,-2.7921,-2.7114,-2.6777,-2.6477,-2.5733,-2.542,-2.5312,-2.5312,-2.5312,-2.5264,-2.5119,-2.4748,-2.459,-2.4843,-2.3628,-2.2498,-2.2354,-2.1765,-2.0959,-1.9889,-1.9585,-1.9213,-1.8446,-1.8338,-1.7989,-1.7051,-1.7423,-1.7147,-1.5619,-1.5619,-1.5518,-1.5142,-1.453,-1.4474,-1.5074,-1.4134,-1.3605,-1.3605,-1.2247,-1.1747,0.0,0.0,0.0,0.0,0.0,0.0,0.0,0.0,0.0,0.0,0.0,0.0,0.0,0.0,0.0,0.0,0.0,0.0,0.0,0.0,0.0,0.0,-3.4457,-3.803,-3.9252,-4.0593,-4.215,-4.4124,-4.5082,-4.5372,-4.4835,-4.5024,-4.5068,-4.4806,-4.5111,-4.4864,-4.3834,-4.3921,-4.3529,-4.2498,-4.2223,-4.2092,-4.2092,-4.1541,-4.1265,-4.125,-3.9929,-3.9305,-3.9276,-3.8536,-3.8,-3.7606,-3.6727,-3.5585,-3.4204,-3.289,-3.1398,-2.9939,0.0,0.0,0.0,0.0,-2.851,-2.851,-2.851,-2.851,-2.851,-2.851,-2.851,-2.851,-2.851,-2.851,-2.8378,-2.7726,-2.7234,-2.6753,-2.6117,-2.5648,-2.5312,-2.5312,-2.5312,-2.5372,-2.5588,-2.5216,-2.5011,-2.554,-2.4554,0.0,-2.3628,-2.2462,-2.1175,-2.0093,-1.9744,-1.93,-1.8434,-1.853,-1.8253,-1.7171,-1.7507,-1.7253,-1.5949,-1.5492,0.0,0.0,0.0,-1.3806,-1.385,-1.329,0.0,0.0,0.0,-1.136,-1.1596,-1.1013,0.0,0.0,-1.087,-1.0409,0.0,0.0,0.0,0.0,0.0,0.0,0.0,0.0,0.0,0.0,0.0,0.0,0.0,0.0,0.0,0.0,-3.7128,-4.1163,-4.4618,-4.5561,-4.5692,-4.5169,-4.6563,-4.7129,-4.5996,-4.6388,-4.649,-4.5924,-4.588,-4.5561,-4.4821,-4.4284,0.0,0.0,0.0,-4.202,-4.2092,-4.0771,-4.0133,-4.0191,-3.8837,-3.8153,-3.8153,-3.7991,-3.7477,-3.6688,-3.5829,-3.4884,-3.3875,-3.2304,-3.1137,-3.0294,-2.9518,-2.8919,-2.851,-2.851,-2.851,-2.851,-2.851,0.0,0.0,-2.851,-2.851,-2.851,-2.851,-2.851,-2.8498,-2.8438,-2.7702,-2.697,-2.691,-2.6177,-2.5492,-2.5492,-2.5444,-2.5528,-2.5997,-2.5685,-2.5444,-2.5913,-2.5204,-2.4484,-2.4484,-2.2467,-2.0538,-1.9504,-1.8903,-1.8374,-1.7845,-1.8121,-1.8001,-1.6955,-1.7182,0.0,-1.6338,-1.498,-1.4227,-1.4399,-1.3565,-1.2786,-1.2117,-1.2138,-1.1594,-1.0345,-1.0326,-1.0573,-1.1039,-1.1039,-1.1393,-1.2064,-1.1173,-1.0997,0.0,0.0,0.0,0.0,0.0,0.0,0.0,0.0,0.0,0.0,0.0,0.0,0.0,0.0,0.0,-3.911,-4.2422,-4.5024,-4.6272,-4.6127,-4.6026,-4.6403,-4.633,-4.6156,-4.5909,-4.5996,-4.6026,-4.5895,-4.588,-4.5387,-4.4226,-4.4052,-4.3471,-4.231,-4.1628,-4.1555,-4.2092,-4.0771,-4.0365,-4.0887,-3.8885,0.0,-3.7944,-3.666,-3.6029,-3.5775,-3.4761,-3.4111,-3.3661,-3.2414,-3.1222,-3.0073,-2.9039,-2.8595,-2.851,-2.851,-2.851,-2.851,-2.851,-2.851,-2.851,-2.851,-2.851,-2.851,-2.851,-2.851,0.0,-2.7993,-2.769,-2.7438,-2.7006,-2.6741,-2.6585,-2.6585,-2.6274,-2.5973,-2.6069,-2.5685,-2.5336,-2.5444,-2.4951,-2.4484,-2.4484,-2.3412,-2.2306,-2.1668,-2.1127,-2.0586,-2.0061,-1.97,-1.9213,-1.8458,-1.8429,-1.7853,-1.6266,-1.5849,-1.5309,-1.4463,-1.3829,-1.3071,-1.2128,-1.2459,-1.2358,-1.1727,-1.1704,-1.1754,-1.1871,-1.1871,-1.1945,-1.2092,-1.19,-1.1858,0.0,0.0,0.0,0.0,0.0,0.0,0.0,0.0,0.0,0.0,0.0,-3.0294,-3.19,0.0,-4.0284,-4.1869,-4.4516,-4.6577,-4.7216,-4.649,-4.5996,-4.6316,-4.6359,-4.6229,-4.5924,-4.6171,-4.6229,-4.5909,-4.588,-4.5459,-4.4487,-4.4153,-4.3544,-4.2571,-4.1932,-4.1599,-4.1599,-4.0597,-3.9906,-3.9479,-3.8088,-3.7174,-3.6709,-3.5952,-3.5292,-3.4761,-3.4223,-3.3632,-3.2963,-3.2013,-3.1167,-3.0374,-2.9316,-2.8751,-2.851,-2.851,-2.851,-2.851,-2.851,-2.851,-2.851,-2.851,-2.851,-2.851,-2.851,-2.851,-2.845,-2.8186,-2.7933,-2.7618,-2.7366,-2.709,-2.6898,-2.6898,-2.6681,-2.6514,-2.6514,-2.6093,-2.5709,-2.5709,-2.5276,-2.4764,-2.4366,-2.3708,-2.3044,-2.2671,-2.2137,-2.1608,-2.1055,-2.044,-1.9834,-1.9273,-1.8589,-1.7714,-1.6491,-1.5387,-1.4424,-1.3641,-1.3122,-1.2632,-1.2126,-1.2329,-1.2329,-1.2101,-1.2101,-1.2101,-1.2101,-1.2101,-1.2101,-1.2101,-1.2101,-1.2101,0.0,0.0,0.0,0.0,0.0,0.0,0.0,0.0,-2.8677,-3.0762,-3.3033,-3.5141,-3.6844,-4.0361,-4.321,-4.3819,-4.5663,-4.7158,-4.755,-4.6606,-4.5837,-4.5706,-4.6258,-4.6388,-4.575,-4.6156,-4.62,-4.5561,-4.5518,-4.5227,-4.456,-4.3922,-4.3214,-4.255,-4.1647,-4.099,-4.0574,-3.9671,-3.8709,-3.7636,-3.6823,-3.6056,-3.5346,-3.5183,-3.4609,-3.3746,-3.3661,-3.3104,-3.222,-3.1582,-3.1063,-3.0639,-2.9785,-2.9063,-2.851,-2.851,-2.851,-2.851,-2.851,-2.851,-2.851,-2.851,-2.851,-2.851,-2.851,-2.851,-2.851,-2.851,-2.821,-2.7873,-2.7873,-2.7522,-2.7198,-2.7198,-2.7126,-2.7054,-2.7054,-2.6562,-2.6057,-2.5911,-2.5433,-2.4826,-2.4011,-2.3504,-2.3052,-2.2754,-2.238,-2.1901,-2.1244,-2.063,-2.0037,-1.9494,-1.8284,-1.7181,-1.6402,-1.4531,-1.3229,-1.2821,-1.2351,-1.2101,-1.2101,-1.2101,-1.2101,-1.2101,-1.2101,-1.2101,-1.2101,-1.2101,-1.2101,-1.2101,-1.2101,-1.2101,-1.942,-1.9959,-2.1695,-2.5345,-2.5637,-2.7277,0.0,0.0,-3.5467,-3.8995,-4.0869,-4.2063,-4.2918,-4.4821,-4.6505,-4.7143,-4.7491,-4.7506,-4.7013,-4.633,-4.5663,-4.5068,-4.559,-4.5721,-4.5068,-4.5053,-4.485,-4.4255,-4.4197,-4.3906,-4.3239,-4.2381,-4.155,-4.0901,-3.8947,-3.8165,-3.8702,-3.6989,-3.6306,-3.6743,-3.5353,-3.4634,-3.4509,-3.3725,-3.3185,-3.2828,-3.2407,-3.2057,-3.1749,-3.1689,-3.1067,-3.017,-3.005,-2.9388,-2.851,-2.851,-2.851,-2.851,-2.851,-2.851,-2.851,-2.851,-2.851,-2.851,-2.851,-2.851,-2.851,-2.851,-2.8474,-2.8426,-2.8426,-2.8378,-2.833,-2.833,-2.7981,-2.7594,-2.7594,-2.6827,-2.5899,-2.5175,-2.4611,-2.4011,-2.3243,-2.2663,-2.2169,-2.1724,-2.1789,-2.1466,-2.0376,-2.0174,-1.9829,-1.8973,-1.7853,-1.6578,-1.5139,-1.4018,-1.3202,-1.2753,-1.2319,-1.2101,-1.2101,-1.2101,-1.2101,-1.2101,-1.2101,-1.2101,-1.2101,-1.2101,-1.2101,-1.2101,-1.2101,-1.2101,-2.601,-2.64,-2.7268,0.0,-3.3203,-3.5016,-4.0055,-4.0583,-4.0679,-4.286,-4.4037,-4.4763,-4.5039,-4.6345,-4.7346,-4.7245,-4.723,-4.7143,-4.6821,-4.5648,-4.4545,-4.3863,-4.3718,-4.3863,-4.4313,-4.4008,-4.3834,-4.3979,-4.3993,-4.3703,-4.3021,-4.1796,-4.083,-4.0154,-3.8433,-3.7463,-3.7368,-3.6579,-3.5871,-3.5309,-3.4669,-3.4063,-3.3386,-3.3013,-3.268,-3.2288,-3.1981,-3.1761,-3.1681,-3.138,-3.0995,-3.0482,-2.9869,-2.9364,-2.8931,-2.8619,-2.851,-2.851,-2.851,-2.851,-2.851,-2.851,-2.851,-2.851,-2.851,-2.851,-2.851,-2.851,-2.851,-2.851,-2.851,-2.851,-2.8391,-2.7846,-2.7561,-2.7155,-2.6314,-2.5608,-2.4903,-2.4267,-2.3772,-2.3206,-2.2435,-2.2126,-2.1644,-2.072,-2.1142,-2.1295,-2.0532,-2.0006,-1.9175,-1.7829,-1.6951,-1.5998,-1.4898,-1.4133,-1.341,-1.2742,-1.2533,-1.234,-1.211,-1.2101,-1.2101,-1.2101,-1.233,-1.2441,-1.2441,-1.2441,-1.2441,-1.2441,-1.2211,-1.2101,-2.9259,0.0,0.0,-3.6132,-3.8907,-4.0999,-4.2962,-4.3858,-4.4501,-4.5272,-4.5663,-4.588,-4.588,-4.649,-4.6954,-4.6807,-4.6633,-4.6563,-4.6563,-4.4922,-4.3398,-4.2571,-4.1613,-4.1453,-4.2571,-4.2542,-4.2586,-4.289,-4.2867,-4.2581,-4.2106,-4.0589,-3.9528,-3.9057,-3.7425,-3.6353,-3.5856,-3.5725,-3.5112,-3.4021,-3.4021,-3.3556,-3.2723,-3.2698,-3.2467,-3.2006,-3.1918,-3.1765,-3.1464,-3.1079,-3.0742,-3.0362,-2.9593,-2.9208,-2.9039,-2.8655,-2.851,-2.851,-2.851,-2.851,-2.851,-2.851,-2.851,-2.851,-2.851,-2.851,-2.851,-2.851,-2.8351,-2.8139,-2.8139,-2.7966,-2.7592,-2.6958,-2.6794,-2.6528,-2.5464,-2.4796,-2.4233,-2.3612,-2.3042,-2.2397,-2.1614,-2.1423,-2.1054,-2.0137,-2.0548,-2.0816,-2.0358,-1.9567,-1.8408,-1.674,-1.6198,-1.5598,-1.4782,-1.4223,-1.3654,-1.3066,-1.2928,-1.2735,-1.245,-1.2321,-1.2266,-1.2266,-1.2542,-1.2689,-1.2689,-1.2808,-1.2863,-1.2863,-1.2569,-1.2432,-2.6312,-2.8898,-3.2452,-3.6659,-4.0135,-4.3154,-4.5552,-4.6379,-4.6676,-4.672,-4.6301,-4.588,-4.588,-4.5387,-4.5387,-4.6575,-4.6316,-4.5924,-4.5924,-4.4255,-4.2557,-4.1308,-3.9479,-3.8594,-3.9276,-4.0437,-4.0902,-4.0263,-3.9975,-3.9802,-3.9788,-3.8078,-3.7106,-3.7093,-3.5098,-3.3998,-3.3985,-3.3456,-3.3179,-3.3154,-3.3154,-3.2982,-3.2692,-3.2795,-3.2524,-3.2018,-3.234,-3.1877,-3.0946,-3.0922,-3.0266,-2.9352,-2.9316,-2.8979,-2.8534,-2.8522,-2.851,-2.851,-2.851,-2.851,-2.851,-2.851,-2.851,-2.851,-2.851,-2.851,-2.851,-2.851,-2.7886,-2.7226,-2.7226,-2.6547,-2.5872,-2.5872,-2.5819,-2.5819,-2.5808,-2.5065,-2.4173,-2.3363,-2.2465,-2.1576,-2.0789,-2.045,-2.0342,-2.0284,-2.007,-1.9793,-1.9412,-1.8656,-1.7524,-1.5914,-1.5712,-1.5381,-1.4591,-1.4112,-1.3902,-1.3874,-1.3488,-1.3268,-1.3259,-1.2891,-1.267,-1.267,-1.2689,-1.2689,-1.2689,-1.3102,-1.3277,-1.3277,-1.3259,-1.3259,-3.193,-3.5088,-3.8014,-4.1435,-4.3994,-4.6034,-4.7515,-4.7654,-4.7216,-4.6374,-4.3979,-4.1671,-4.0423,-3.9654,-3.9755,-4.1497,-4.2673,-4.3805,-4.5053,-4.37,-4.1739,-3.9318,-3.8204,-3.7104,-3.5794,-3.6951,-3.8222,-3.9221,-3.8685,-3.8474,-3.8831,-3.7687,-3.7004,-3.7004,-3.5353,-3.4449,-3.4449,-3.4261,-3.4173,-3.4161,-3.35,-3.282,-3.2225,-3.2507,-3.2325,-3.1842,-3.2307,-3.2082,-3.1416,-3.1067,-3.0706,-3.0278,-2.9581,-2.9184,-2.8991,-2.8643,-2.851,-2.851,-2.851,-2.851,-2.851,-2.851,-2.851,-2.8379,-2.7805,-2.7644,-2.751,-2.6876,-2.6494,-2.6287,-2.6287,-2.6038,-2.5652,-2.5073,-2.4956,-2.4787,-2.4145,-2.3559,-2.2979,-2.246,-2.184,-2.1184,-2.0508,-2.0342,-2.0225,-2.0059,-1.9506,-1.9004,-1.8739,-1.8014,-1.7154,-1.6208,-1.6111,-1.578,-1.4974,-1.4772,-1.446,-1.3938,-1.3754,-1.3571,-1.3305,-1.3158,-1.3111,-1.3111,-1.3369,-1.3507,-1.3507,-1.3644,-1.3709,-1.3681,-1.3415,-1.3296,-3.5902,-3.9073,-4.1542,-4.4726,-4.6724,-4.796,-4.8308,-4.7898,-4.6751,-4.4313,-4.1308,-3.8318,-3.572,-3.4704,-3.5053,-3.7433,-3.9059,-4.0796,-4.3013,-4.2049,-4.032,-3.8297,-3.7208,-3.6115,0.0,-3.4983,-3.5845,-3.7615,-3.7463,-3.7383,-3.7514,-3.6873,-3.6464,-3.6464,-3.5319,-3.468,-3.468,-3.4435,-3.4145,-3.3868,-3.3121,-3.2609,-3.2285,-3.2424,-3.2298,-3.203,-3.2346,-3.2082,-3.1404,-3.1055,-3.0814,-3.053,-2.9845,-2.946,-2.9256,-2.8919,-2.8679,-2.851,-2.851,-2.851,-2.851,-2.851,-2.8299,-2.7926,-2.7389,-2.6969,-2.6588,-2.5955,-2.5579,-2.5326,-2.5326,-2.5073,-2.4691,-2.4112,-2.3983,-2.382,-2.3222,-2.2769,-2.2432,-2.2168,-2.1549,-2.0973,-2.0573,-2.0243,-1.999,-1.9706,-1.9004,-1.848,-1.8406,-1.781,-1.7116,-1.6376,-1.6184,-1.5826,-1.5157,-1.4974,-1.4662,-1.4139,-1.4112,-1.3992,-1.3736,-1.3589,-1.3506,-1.3506,-1.3782,-1.3911,-1.3911,-1.4029,-1.4112,-1.4102,-1.3846,-1.3727,-3.8056,-4.0863,-4.316,-4.6563,-4.8229,-4.8807,-4.7977,-4.7085,-4.5183,-4.0771,-3.8188,-3.5546,-3.1729,-3.061,-3.135,-3.4554,-3.5759,-3.7318,-4.0139,-3.955,-3.863,0.0,0.0,0.0,0.0,0.0,-3.4106,-3.5467,-3.6247,-3.6441,-3.6004,-3.5709,-3.5545,-3.5545,-3.5031,-3.4756,-3.4768,-3.4018,-3.3205,-3.2474,-3.2235,-3.2358,-3.2783,-3.2629,-3.2551,-3.2503,-3.2527,-3.1925,-3.0958,-3.0958,-3.0627,-3.017,-3.0134,-2.9797,-2.934,-2.9304,-2.8967,-2.851,-2.8431,-2.8431,-2.8431,-2.8431,-2.7846,-2.7133,-2.7092,-2.6464,-2.5735,-2.5694,-2.5073,-2.4413,-2.4413,-2.3777,-2.3091,-2.3091,-2.3091,-2.3091,-2.3091,-2.2779,-2.2539,-2.2519,-2.1642,-2.088,-2.088,-2.0146,-1.9518,-1.9341,-1.8632,-1.8156,-1.8369,-1.8033,-1.7378,-1.6431,-1.5991,-1.5579,-1.5166,-1.4781,-1.4552,-1.4515,-1.4515,-1.4515,-1.4515,-1.413,-1.391,-1.3881,-1.391,-1.391,-1.3881,-1.4284,-1.4515,-1.4515,-1.4446,-1.4446,-4.2813,-4.5611,-4.7629,-4.9553,-4.9209,-4.8121,-4.7262,-4.4342,-4.0815,-3.7324,-3.2414,-2.7839,-2.495,-2.536,-2.7158,-3.0267,-3.3973,0.0,-4.0449,-4.0669,0.0,-3.8075,0.0,-3.6726,-3.5238,-3.5416,-3.5455,-3.4976,-3.4774,-3.4946,-3.5598,-3.5982,-3.6157,-3.6157,-3.6065,-3.5862,-3.5687,-3.5256,-3.448,-3.332,-3.363,-3.3334,-3.2605,-3.3296,-3.3224,-3.2527,-3.2911,-3.2478,-3.1512,-3.1512,-3.1428,-3.1259,-3.0874,-3.035,-2.9833,-2.9448,-2.8967,-2.8431,-2.7765,-2.751,-2.751,-2.751,-2.6928,-2.6038,-2.5379,-2.5041,-2.4701,-2.3983,-2.3647,-2.3484,-2.3484,-2.3266,-2.3091,-2.3091,-2.3091,-2.3091,-2.3091,-2.3013,-2.2847,-2.2578,-2.1518,-2.0607,-2.0404,-1.9817,-1.9341,-1.9301,-1.8632,-1.8128,-1.8156,-1.7567,-1.7016,-1.678,-1.6661,-1.6312,-1.5597,-1.545,-1.5139,-1.4552,-1.4515,-1.4515,-1.4515,-1.4405,-1.4105,-1.3604,-1.4105,-1.4105,-1.3604,-1.4213,-1.4515,-1.4476,-1.398,-1.3761,-4.6218,-4.8502,-4.9967,-5.0471,-4.9274,-4.727,-4.4472,-4.1047,-3.6773,-3.0984,-2.677,-2.3316,-2.0647,-2.1682,-2.4124,0.0,0.0,0.0,-3.8634,-3.9438,-3.9342,0.0,-3.8119,0.0,-3.5943,-3.6358,-3.637,-3.5504,-3.5152,-3.514,-3.547,-3.6056,-3.637,-3.6228,-3.6228,-3.5926,-3.5311,-3.5169,-3.4504,-3.3458,-3.376,-3.3665,-3.3188,-3.3549,-3.3392,-3.2851,-3.2911,-3.2454,-3.1705,-3.1705,-3.1705,-3.1681,-3.138,-3.0663,-2.9742,-2.9277,-2.8455,-2.7513,-2.6832,-2.634,-2.6091,-2.6464,-2.5955,-2.5115,-2.4669,-2.4198,-2.3777,-2.3266,-2.3091,-2.3091,-2.3091,-2.3091,-2.3091,-2.3091,-2.3091,-2.3091,-2.3091,-2.3091,-2.293,-2.2298,-2.1522,-2.0795,-2.0185,-1.9773,-1.9512,-1.9329,-1.8632,-1.8091,-1.8091,-1.7413,-1.6908,-1.6908,-1.6752,-1.6386,-1.5744,-1.5533,-1.5166,-1.4552,-1.4515,-1.4357,-1.407,-1.407,-1.3761,-1.307,-1.342,-1.345,-1.307,-1.3442,-1.3631,-1.3601,-1.323,-1.307,-4.8786,-5.0173,-5.0856,-5.0301,-4.88,-4.6055,-4.0902,-3.7324,-3.2663,-2.3995,-2.1557,-2.0255,-1.7874,-1.9072,-2.1928,-2.6481,0.0,-3.1944,-3.6061,-3.724,-3.7942,-3.8781,-3.8492,-3.8015,-3.7462,-3.7337,-3.7061,-3.6556,-3.6455,-3.6157,-3.5633,-3.6107,-3.6275,-3.6015,-3.592,-3.5447,-3.453,-3.4483,-3.4086,-3.3392,-3.3464,-3.3681,-3.3982,-3.3657,-3.3416,-3.326,-3.2666,-3.2058,-3.1472,-3.1383,-3.1294,-3.1294,-3.1294,-3.0463,-2.9145,-2.88,-2.7758,-2.641,-2.5966,-2.5222,-2.4616,-2.5368,-2.5031,-2.4327,-2.4327,-2.3734,-2.3091,-2.3091,-2.3091,-2.3091,-2.3091,-2.3091,-2.3091,-2.3091,-2.3091,-2.3091,-2.3091,-2.3091,-2.2819,-2.1977,-2.1682,-2.1178,-2.0177,-1.9921,-1.9747,-1.9366,-1.8678,-1.8145,-1.8091,-1.7413,-1.6908,-1.6908,-1.6606,-1.623,-1.5808,-1.5414,-1.4979,-1.4487,-1.4384,-1.407,-1.3411,-1.3381,-1.3039,-1.2389,-1.2451,-1.2451,-1.2358,-1.2451,-1.2512,-1.2512,-1.242,-1.2358,-5.1124,-5.1395,-5.0909,-5.0674,-4.7974,-4.4052,-3.8957,-3.3147,0.0,0.0,-1.7819,-1.5685,-1.5589,-1.7117,-2.0151,-2.5452,-2.7584,-3.0405,-3.5729,-3.6922,-3.7682,0.0,-3.9182,-3.9182,-3.868,-3.814,-3.7638,-3.7086,-3.6669,-3.6367,-3.6267,-3.6355,-3.6275,-3.6015,-3.5572,-3.5223,-3.5041,-3.4836,-3.4426,-3.3862,-3.4306,-3.433,-3.4006,-3.4354,-3.4102,-3.3238,-3.2312,-3.1379,-3.0407,-2.9555,-2.9235,-2.9235,-2.9235,-2.8797,-2.8129,-2.8097,-2.7382,-2.6422,-2.5946,-2.5251,-2.4531,-2.4659,-2.4112,-2.3343,-2.3343,-2.3222,-2.3091,-2.3091,-2.3091,-2.3091,-2.3091,-2.3091,-2.3091,-2.3091,-2.3091,-2.3091,-2.3091,-2.2969,-2.2687,-2.2136,-2.1749,-2.1262,-2.0545,-2.0104,-1.9747,-1.9366,-1.8907,-1.8495,-1.8127,-1.7413,-1.6908,-1.6908,-1.6844,-1.6642,-1.6248,-1.5826,-1.5183,-1.424,-1.3865,-1.3381,-1.2696,-1.2665,-1.2358,-1.1701,-1.2205,-1.2243,-1.1663,-1.2243,-1.2512,-1.2481,-1.1934,-1.1663,-5.0019,-5.0525,-5.0572,-4.947,-4.6519,-4.208,-3.5134,0.0,0.0,0.0,-1.4996,-1.4387,-1.452,-1.6376,0.0,-2.3034,-2.5198,-2.8122,-3.3124,-3.4512,-3.5994,-3.8567,-3.8843,-3.8705,-3.8442,-3.8165,-3.7663,-3.687,-3.6676,-3.6468,-3.6206,-3.5943,-3.5568,-3.5155,-3.4762,-3.457,-3.457,-3.421,-3.403,-3.3994,-3.403,-3.403,-3.4006,-3.4258,-3.3708,-3.25,-3.2016,-3.0889,-2.9372,-2.8912,-2.868,-2.868,-2.868,-2.8215,-2.7526,-2.7282,-2.6456,-2.5375,-2.5149,-2.451,-2.3807,-2.4048,-2.3672,-2.3091,-2.3091,-2.3091,-2.3091,-2.3091,-2.3013,-2.2969,-2.3057,-2.3013,-2.2969,-2.3101,-2.3013,-2.2925,-2.2784,-2.2574,-2.2362,-2.2141,-2.1841,-2.1376,-2.0622,-2.0323,-1.9985,-1.9393,-1.8563,-1.7932,-1.7755,-1.6709,-1.6191,-1.6822,-1.6908,-1.6571,-1.5801,-1.5555,-1.4959,-1.381,-1.3565,-1.3156,-1.2489,-1.2457,-1.2052,-1.1258,-1.1564,-1.1485,-1.1021,-1.1358,-1.1507,-1.1507,-1.117,-1.1021,-4.8612,-4.9514,-5.0032,-4.8232,-4.4964,-4.0011,-3.1765,-2.7031,0.0,-1.3939,-1.3138,-1.392,-1.4013,-1.5587,-1.7806,0.0,-2.2366,-2.5109,-2.9993,-3.1763,-3.3997,0.0,-3.8253,0.0,-3.8354,-3.8153,-3.7651,-3.6724,-3.6548,-3.6293,-3.5932,-3.5464,-3.5029,-3.4556,-3.4197,-3.3994,-3.3994,-3.3537,-3.3489,-3.3826,-3.3277,-3.3148,-3.3529,-3.3386,-3.2624,-3.1422,-3.123,-3.013,-2.8506,-2.8175,-2.8085,-2.8085,-2.8085,-2.7568,-2.6826,-2.6535,-2.5615,-2.457,-2.4668,-2.4027,-2.3305,-2.3789,-2.3564,-2.3091,-2.3091,-2.3091,-2.3101,-2.3047,-2.2925,-2.2847,-2.3013,-2.2882,-2.275,-2.2916,-2.2838,-2.2618,-2.2397,-2.223,-2.2097,-2.2008,-2.183,-2.1386,-2.0395,-2.0289,-1.9952,-1.8901,-1.7937,-1.7265,-1.7153,-1.6043,-1.563,-1.651,-1.6466,-1.6035,-1.5145,-1.4975,-1.4493,-1.3377,-1.3225,-1.2893,-1.2199,-1.2207,-1.1857,-1.1089,-1.1022,-1.0914,-1.0687,-1.062,-1.0593,-1.0593,-1.066,-1.072,-4.9249,-4.9834,-4.9451,-4.8116,-4.3588,-3.766,-3.0748,0.0,-1.9766,-1.4019,-1.2679,-1.2892,-1.3892,-1.3844,-1.5029,-1.927,0.0,-2.1054,-2.7507,-2.9817,-3.2277,-3.6182,0.0,0.0,-3.9496,-3.8605,-3.7866,-3.7506,-3.6149,-3.5417,-3.562,-3.5368,-3.5199,-3.515,-3.439,-3.3994,-3.3994,-3.3537,-3.3308,-3.3356,-3.2382,-3.1933,-3.1991,-3.1446,-3.0839,-3.023,-2.9299,-2.8533,-2.7869,-2.6512,-2.5965,-2.5965,-2.5965,-2.5917,-2.582,-2.5781,-2.5486,-2.5116,-2.543,-2.4785,-2.3799,-2.4219,-2.3764,-2.3091,-2.3091,-2.3091,-2.3057,-2.2882,-2.2794,-2.2803,-2.2838,-2.2618,-2.2441,-2.2441,-2.2441,-2.2397,-2.2185,-2.2097,-2.2008,-2.1785,-2.1741,-2.121,-1.9574,-1.9549,-1.9143,-1.722,-1.7061,-1.6889,-1.6309,-1.6095,-1.5913,-1.5663,-1.5129,-1.4772,-1.4668,-1.431,-1.38,-1.3068,-1.2692,-1.2199,-1.1526,-1.1491,-1.1444,-1.1349,-1.1129,-1.0982,-1.0955,-1.072,-1.0593,-1.06,-1.0861,-1.1096,-4.4938,-4.6443,-4.6771,-4.5581,-4.1153,-3.5297,-2.8436,0.0,-1.8918,-1.3672,-1.275,-1.2914,-1.3044,-1.314,-1.3905,0.0,0.0,0.0,-2.3376,-2.5573,-2.8687,-3.4236,-3.5768,0.0,0.0,-3.8229,-3.7444,-3.6702,-3.6039,-3.5515,-3.5138,-3.503,-3.4691,-3.4063,-3.3752,-3.3136,-3.2183,-3.1715,-3.1275,-3.1014,-3.0274,-3.0097,-3.041,-3.0405,-2.9823,-2.882,-2.865,-2.7828,-2.6553,-2.5947,-2.5693,-2.5693,-2.5693,-2.5693,-2.5693,-2.5693,-2.5449,-2.5184,-2.5586,-2.5001,-2.4238,-2.4668,-2.4394,-2.3764,-2.3247,-2.3013,-2.2882,-2.2838,-2.2662,-2.2574,-2.2574,-2.2485,-2.2353,-2.2264,-2.223,-2.2141,-2.1919,-2.1874,-2.1642,-2.0988,-2.0853,-2.0364,-1.8861,-1.8717,-1.8454,-1.7421,-1.6888,-1.6468,-1.5959,-1.5321,-1.476,-1.4398,-1.4843,-1.4967,-1.4479,-1.4283,-1.3792,-1.2917,-1.2718,-1.2428,-1.1957,-1.1951,-1.187,-1.1697,-1.1618,-1.1436,-1.1249,-1.1136,-1.1082,-1.1082,-1.1196,-1.141,-3.9531,-4.1909,-4.3202,-4.2337,-3.8158,-3.2604,0.0,0.0,-1.7679,-1.3108,-1.2588,-1.2852,-1.2463,-1.2852,-1.3341,0.0,0.0,-1.6078,-2.0188,-2.2485,-2.5787,-3.1286,0.0,-3.4627,-3.696,-3.727,-3.6959,-3.6062,-3.5769,-3.5416,-3.4847,-3.4388,-3.397,-3.3537,-3.2921,-3.2101,-3.102,-3.0159,-2.9609,-2.9252,-2.8564,-2.852,-2.9026,-2.9147,-2.8648,-2.7737,-2.7993,-2.7272,-2.5918,-2.5742,-2.5693,-2.5693,-2.5693,-2.5693,-2.5693,-2.5693,-2.5537,-2.5312,-2.5577,-2.5244,-2.4658,-2.4971,-2.4641,-2.3974,-2.3372,-2.3152,-2.3076,-2.2694,-2.2527,-2.2459,-2.2248,-2.2349,-2.2415,-2.208,-2.1963,-2.1874,-2.141,-2.1275,-2.0997,-2.0031,-1.984,-1.9406,-1.8065,-1.787,-1.7695,-1.6934,-1.6308,-1.5839,-1.5575,-1.4776,-1.4168,-1.4048,-1.4724,-1.4887,-1.4059,-1.3952,-1.3673,-1.2976,-1.2837,-1.273,-1.2572,-1.2398,-1.2251,-1.2167,-1.1993,-1.1764,-1.1557,-1.1435,-1.1389,-1.1395,-1.1516,-1.1717,-3.3692,-3.6716,-3.8933,-3.8692,-3.4577,-2.9348,0.0,-2.0001,-1.5605,-1.2294,-1.2027,-1.24,-1.24,-1.2852,-1.3198,-1.321,0.0,0.0,-1.8556,-2.139,-2.4161,0.0,-2.9767,-3.2218,-3.4177,-3.5819,-3.6597,-3.6062,-3.5283,-3.4787,-3.4775,-3.3437,-3.306,-3.3982,-3.2066,-3.102,-3.1008,-2.9502,-2.8727,-2.8691,-2.7699,-2.7448,-2.7896,-2.7311,-2.7012,-2.7012,-2.7012,-2.6777,-2.6348,-2.5869,-2.5693,-2.5693,-2.5693,-2.5693,-2.5693,-2.5693,-2.5684,-2.5684,-2.5693,-2.5439,-2.5106,-2.5116,-2.4343,-2.3429,-2.3409,-2.3652,-2.3714,-2.2455,-2.2385,-2.2554,-2.1886,-2.2205,-2.2545,-2.1877,-2.1696,-2.1463,-2.0529,-2.0294,-2.0022,-1.9018,-1.8834,-1.8402,-1.7145,-1.7145,-1.6782,-1.5275,-1.5008,-1.5008,-1.5001,-1.4696,-1.4629,-1.4961,-1.4683,-1.4155,-1.3287,-1.3206,-1.3206,-1.3206,-1.2958,-1.2918,-1.3186,-1.2625,-1.2438,-1.277,-1.2201,-1.1906,-1.1899,-1.157,-1.1389,-1.1395,-1.173,-1.206,-2.7016,-2.8823,-2.9711,-2.9781,-2.677,-2.2917,-1.955,-1.6667,-1.4144,-1.2027,-1.1649,-1.174,-1.1774,-1.2203,-1.2767,-1.354,-1.4163,0.0,0.0,0.0,0.0,-2.8251,-3.3128,-3.6444,-3.703,-3.7066,-3.6826,-3.6295,-3.5715,-3.4851,-3.3782,-3.2663,-3.22,-3.2486,-3.0871,-2.9459,-2.8404,-2.7914,-2.7342,-2.6658,-2.6332,-2.6267,-2.6377,-2.6536,-2.6426,-2.6103,-2.6455,-2.6348,-2.5937,-2.5742,-2.5693,-2.5693,-2.5693,-2.5693,-2.5693,-2.5693,-2.5693,-2.5693,-2.5693,-2.5644,-2.5479,-2.5276,-2.4996,-2.4574,-2.3956,-2.3269,-2.2603,-2.2216,-2.225,-2.2372,-2.2065,-2.2215,-2.2126,-2.0987,-2.0763,-2.0484,-1.9476,-1.9293,-1.8972,-1.7971,-1.7785,-1.7429,-1.6348,-1.623,-1.6095,-1.5631,-1.5558,-1.5484,-1.5284,-1.5177,-1.5084,-1.5022,-1.4696,-1.4409,-1.4128,-1.3928,-1.3728,-1.348,-1.3373,-1.3313,-1.3213,-1.2819,-1.269,-1.2784,-1.2402,-1.2164,-1.2164,-1.2071,-1.2024,-1.2031,-1.2368,-1.2556,0.0,-2.2533,-2.34,-2.3723,-2.1623,0.0,-1.6434,-1.4394,-1.2593,-1.1205,-1.0993,-1.1141,-1.1384,-1.1847,-1.2489,-1.3376,-1.397,-1.5042,0.0,0.0,0.0,-2.8075,-3.2951,-3.6037,-3.6243,-3.6111,-3.5872,-3.5502,-3.4454,-3.3396,-3.2379,-3.108,-3.0363,-3.0363,-2.9222,-2.8148,-2.7189,-2.6829,-2.6332,-2.5693,-2.5693,-2.5771,-2.5986,-2.6269,-2.624,-2.5996,-2.6269,-2.6143,0.0,-2.5693,-2.5693,-2.5693,-2.5693,-2.5693,-2.5693,-2.5693,-2.5693,-2.5693,-2.5693,-2.5635,-2.5538,-2.5333,-2.5081,-2.4629,-2.3782,-2.2871,-2.225,-2.2565,-2.2299,-2.1881,-2.1833,-2.1563,-2.1112,-2.0134,-1.9804,-1.9476,-1.8473,-1.8241,-1.7924,-1.6951,-1.6723,-1.6534,-1.5927,-1.5784,-1.5784,-1.5784,-1.5684,-1.5645,-1.5571,-1.5464,-1.5364,-1.5297,-1.503,-1.485,-1.485,-1.4382,-1.4055,-1.3939,-1.3726,-1.3573,-1.354,-1.314,-1.2958,-1.2958,-1.2739,-1.2585,-1.2509,-1.2509,-1.2509,-1.2472,-1.2583,-1.2616,0.0,-1.7582,-1.9319,0.0,0.0,0.0,-1.4896,-1.2893,0.0,-1.0,-1.0131,-1.0628,-1.1241,-1.1796,-1.239,-1.3018,-1.3588,-1.4551,-1.62,-1.8952,-2.2531,-2.7164,-3.0313,-3.228,-3.269,-3.3434,-3.3907,-3.3907,-3.2057,-3.0843,-3.0804,-2.9031,-2.7952,-2.7914,-2.739,-2.7094,-2.7094,-2.6197,-2.5693,-2.5693,-2.5693,-2.5947,-2.6338,-2.6338,-2.6338,-2.6338,-2.6338,-2.6113,-2.5693,-2.5693,-2.5693,-2.5693,-2.5693,-2.5693,-2.5693,-2.5693,-2.5693,-2.5693,-2.5684,-2.5489,-2.5284,-2.5186,-2.4502,-2.3675,-2.2944,-2.2535,-2.2381,-2.3138,-2.2316,-2.1222,-2.1171,-2.0482,-1.9669,-1.9162,-1.8878,-1.8427,-1.7419,-1.7185,-1.6904,-1.5967,-1.5784,-1.5784,-1.5784,-1.5784,-1.5784,-1.5784,-1.5598,-1.5524,-1.5792,-1.5591,-1.5531,-1.5751,-1.5571,-1.5404,-1.5424,-1.4643,-1.4255,-1.4502,-1.3966,-1.378,-1.4075,-1.354,-1.324,-1.324,-1.322,-1.3066,-1.2817,-1.2817,-1.2804,-1.2777,-1.2496,-1.2318,-1.1173,0.0,-1.229,-1.2414,-1.2008,-1.1487,0.0,-1.0502,-0.9989,-0.9759,0.0,-1.0169,-1.1591,-1.1911,-1.2695,-1.4915,-1.6081,-1.7141,-1.8461,-2.3298,-2.7694,-3.0386,-3.2712,-3.3845,-3.3133,-3.2887,-3.2764,-3.2764,-3.1603,-3.0554,-2.9707,-2.8598,-2.7621,-2.6814,-2.629,-2.6052,-2.6052,-2.583,-2.5693,-2.5693,-2.5693,-2.5742,-2.584,-2.584,-2.584,-2.584,-2.584,-2.5781,-2.5693,-2.5693,-2.5693,-2.5693,-2.5693,-2.5693,-2.5693,-2.5693,-2.5693,-2.5684,-2.5489,-2.5333,-2.5079,-2.3859,-2.3036,-2.238,-2.1587,-2.144,-2.1579,-2.1761,-2.1216,-2.0393,-1.9853,-1.9766,-1.9469,-1.808,-1.7705,-1.7372,-1.6393,-1.6157,-1.6062,-1.5825,-1.5784,-1.5784,-1.5784,-1.5784,-1.5784,-1.5784,-1.5772,-1.5752,-1.5771,-1.5718,-1.5752,-1.5771,-1.5571,-1.5484,-1.5712,-1.513,-1.4689,-1.4529,-1.4346,-1.4242,-1.4095,-1.3734,-1.35,-1.35,-1.328,-1.3173,-1.31,-1.31,-1.3018,-1.2784,-1.2717,-1.2556,-0.9867,-1.0255,-1.0671,-1.0671,-1.0628,-1.0586,-1.0586,0.0,0.0,0.0,0.0,0.0,-1.1705,-1.1926,-1.2773,-1.5471,-1.6467,-1.7893,-2.0735,-2.523,-2.8838,-3.0358,-3.219,-3.3081,-3.2499,-3.1753,-3.1196,-3.0983,-2.9791,-2.8755,-2.8016,-2.7309,-2.6702,-2.6084,-2.581,-2.5693,-2.5693,-2.5693,-2.5693,-2.5693,-2.5693,-2.5693,-2.5693,-2.5693,-2.5693,-2.5693,-2.5693,-2.5693,-2.5693,-2.5693,-2.5693,-2.5693,-2.5693,-2.5693,-2.5693,-2.5693,-2.5333,-2.4766,-2.4618,-2.4057,-2.3311,-2.2291,-2.1804,-2.1486,-2.1025,-2.0665,-2.0454,-2.0966,-2.0329,-1.9418,-1.9102,-1.8682,-1.8138,-1.7088,-1.6727,-1.648,-1.592,-1.5784,-1.5784,-1.5784,-1.5784,-1.5784,-1.5784,-1.5784,-1.5784,-1.5784,-1.5784,-1.5784,-1.5784,-1.5784,-1.5784,-1.5784,-1.5691,-1.5658,-1.5764,-1.5538,-1.5237,-1.4937,-1.4796,-1.4656,-1.4539,-1.4202,-1.3939,-1.3848,-1.3561,-1.3474,-1.3614,-1.334,-1.3126,-1.2991,-1.271,-1.2458,-0.9928,-1.0803,-1.166,-1.147,-1.1512,-1.1579,-1.1476,0.0,0.0,0.0,0.0,0.0,0.0,-1.241,0.0,-1.5799,-1.6684,-1.8568,-2.2925,-2.5985,-2.8105,-2.8854,-3.0369,-3.1265,-3.1088,-3.0192,-2.9414,-2.9086,-2.7741,-2.6768,-2.6406,-2.5977,-2.5693,-2.5693,-2.5693,-2.5693,-2.5693,-2.5693,-2.5693,-2.5693,-2.5693,-2.5693,-2.5693,-2.5693,-2.5693,-2.5693,-2.5762,-2.5752,-2.5693,-2.5762,-2.5742,-2.5693,-2.5693,-2.5586,-2.543,-2.543,-2.4559,-2.3434,-2.3335,-2.2383,-2.1183,-2.0783,-2.059,-2.0558,-2.0451,-1.9716,-1.9118,-2.0092,-1.9448,-1.8462,-1.8513,-1.7656,-1.6687,-1.6402,-1.6079,-1.5838,-1.5791,-1.5784,-1.5784,-1.5784,-1.5784,-1.5784,-1.5784,-1.5784,-1.5784,-1.5784,-1.5784,-1.5784,-1.5784,-1.5784,-1.5784,-1.5784,-1.5784,-1.5784,-1.5784,-1.5784,-1.5678,-1.5478,-1.519,-1.5055,-1.5015,-1.4723,-1.4449,-1.4162,-1.386,-1.3791,-1.387,-1.3377,-1.3034,-1.2855,-1.2318,-1.206,-1.0443,-1.1365,-1.1955,-1.0922,-1.1391,-1.1939,-1.1382,0.0,0.0,0.0,0.0,0.0,0.0,-1.4733,-1.6014,-1.7733,-1.9942,-2.2296,-2.4724,-2.6922,-2.8181,-2.788,-2.9238,-2.9815,-2.8885,-2.8337,-2.7986,-2.7969,-2.7025,-2.6455,-2.6396,-2.5977,-2.5693,-2.5693,-2.5693,-2.5693,-2.5693,-2.5693,-2.5693,-2.5693,-2.5693,-2.5693,-2.5693,-2.5693,-2.5693,-2.5703,-2.6133,-2.6084,-2.5713,-2.6133,-2.6074,-2.5693,-2.5693,-2.5167,-2.4295,-2.4097,-2.3294,-2.2291,-2.1836,-2.1336,-2.0783,-1.9797,-1.9302,-1.8979,-1.8331,-1.7818,-1.7571,-1.7973,-1.7969,-1.7716,-1.7517,-1.7268,-1.6991,-1.6449,-1.6239,-1.6139,-1.5838,-1.5784,-1.5784,-1.5784,-1.5784,-1.5784,-1.5784,-1.5784,-1.5784,-1.5784,-1.5784,-1.5784,-1.5784,-1.5784,-1.5784,-1.5784,-1.5784,-1.5784,-1.5784,-1.5784,-1.5764,-1.5718,-1.5491,-1.5217,-1.5022,-1.4961,-1.4756,-1.4456,-1.4409,-1.389,-1.2918,-1.2838,-1.226,-1.1255,-1.1178,-1.0976,-1.0153,-1.0995,-1.1798,-1.1748,-1.2152,-1.2377,-1.1809,-1.1387,0.0,0.0,0.0,0.0,0.0,-1.5709,-1.6982,-1.9839,-2.2615,-2.49,-2.6133,-2.754,-2.8275,-2.8015,-2.8605,-2.8778,-2.8023,-2.7799,-2.7523,-2.7012,-2.6387,-2.5937,-2.5684,-2.5264,-2.4982,-2.4982,-2.4982,-2.4982,-2.4982,-2.5254,-2.5498,-2.5693,-2.5693,-2.5693,-2.5693,-2.5693,-2.5693,-2.5703,-2.5947,-2.569,-2.5114,-2.5352,-2.4963,-2.4236,-2.4236,-2.374,-2.2885,-2.1862,-2.1151,-2.0605,-1.9635,-1.9228,-1.9027,-1.8513,-1.8258,-1.8071,-1.7693,-1.7488,-1.7467,-1.7549,-1.7582,-1.7515,-1.728,-1.7199,-1.7092,-1.6613,-1.6386,-1.6239,-1.6099,-1.5945,-1.5784,-1.5784,-1.5784,-1.5784,-1.5784,-1.5784,-1.5784,-1.5784,-1.5784,-1.5784,-1.5784,-1.5784,-1.5784,-1.5784,-1.5784,-1.5784,-1.5784,-1.5784,-1.5784,-1.5784,-1.518,-1.4646,-1.4362,-1.3845,-1.3397,-1.3091,-1.3085,-1.2777,-1.2122,-1.1899,-1.1496,-1.0888,-1.0713,-1.0545,-0.9937,-1.055,-1.1311,-1.1983,0.0,-1.3035,-1.3184,-1.274,0.0,0.0,0.0,0.0,0.0,-1.6873,-1.8201,-2.1654,-2.4403,-2.6351,-2.7125,-2.7821,-2.8227,-2.8157,-2.8046,-2.7874,-2.7584,-2.7422,-2.7051,-2.6289,-2.583,-2.5381,-2.4941,-2.46,-2.4414,-2.4414,-2.4414,-2.4414,-2.4414,-2.4746,-2.5137,-2.5586,-2.5635,-2.5635,-2.5538,-2.5635,-2.5635,-2.5547,-2.5498,-2.5088,-2.4464,-2.4293,-2.3715,-2.2869,-2.2869,-2.2384,-2.1422,-1.979,-1.9176,-1.8968,-1.7943,-1.7582,-1.7582,-1.7582,-1.7582,-1.7582,-1.7582,-1.7582,-1.7582,-1.7582,-1.7582,-1.7528,-1.736,-1.73,-1.7226,-1.6881,-1.6587,-1.6373,-1.6373,-1.6139,-1.5932,-1.5932,-1.5985,-1.5992,-1.5804,-1.5885,-1.5912,-1.5791,-1.5784,-1.5784,-1.5784,-1.5784,-1.573,-1.5493,-1.5445,-1.535,-1.5105,-1.5051,-1.5051,-1.5051,-1.4334,-1.3808,-1.3549,-1.2789,-1.2256,-1.198,-1.1967,-1.1727,-1.1266,-1.095,-1.0668,-1.0341,-1.0113,-0.9987,-1.0311,-1.0465,-1.0435,-1.0259,-1.189,-1.4074,-1.6079,-1.6126,0.0,-1.7273,0.0,0.0,0.0,-1.9198,-2.0899,-2.2807,-2.4585,-2.6192,-2.7489,-2.7727,-2.7747,-2.7764,-2.7359,-2.7072,-2.706,-2.6709,-2.6289,-2.5771,-2.5371,-2.4922,-2.4492,-2.4434,-2.4414,-2.4414,-2.4414,-2.4414,-2.4414,-2.4443,-2.4678,-2.5174,-2.5537,-2.5518,-2.5174,-2.5547,-2.5508,-2.5109,-2.497,-2.4583,-2.4112,-2.3456,-2.2937,-2.2526,-2.2526,-2.154,-1.9981,-1.8624,-1.7957,-1.7733,-1.7635,-1.7582,-1.7582,-1.7582,-1.7582,-1.7582,-1.7582,-1.7582,-1.7582,-1.7582,-1.7582,-1.7582,-1.7555,-1.7549,-1.7475,-1.7239,-1.6894,-1.6673,-1.6673,-1.6446,-1.6239,-1.6239,-1.646,-1.6466,-1.5878,-1.6059,-1.6146,-1.5872,-1.5784,-1.5784,-1.5784,-1.5784,-1.5445,-1.449,-1.4394,-1.3998,-1.3017,-1.2926,-1.2926,-1.2926,-1.2877,-1.2818,-1.2802,-1.2705,-1.255,-1.2267,-1.2083,-1.1444,-1.0289,-1.0085,-0.955,-0.8763,-0.875,-0.8742,-0.9685,-1.0497,-1.1371,-1.1767,-1.3077,0.0,0.0,-1.5605,-1.6921,-1.8546,-1.9174,0.0,0.0,-2.1164,-2.2559,-2.375,-2.4951,-2.6094,-2.7119,-2.7266,-2.7266,-2.7266,-2.7119,-2.6807,-2.622,-2.6025,-2.5684,-2.4971,-2.4512,-2.4199,-2.4033,-2.3769,-2.3578,-2.3578,-2.3578,-2.3578,-2.3578,-2.3896,-2.3818,-2.3363,-2.3787,-2.4088,-2.4135,-2.3657,-2.3298,-2.3172,-2.3285,-2.302,-2.2391,-2.2171,-2.1583,-2.0779,-2.0191,-1.9435,-1.867,-1.8003,-1.7694,-1.7582,-1.7582,-1.7582,-1.7582,-1.7582,-1.7582,-1.7582,-1.7582,-1.7582,-1.7582,-1.7582,-1.7582,-1.7582,-1.7582,-1.7582,-1.7555,-1.7442,-1.7054,-1.676,-1.6991,-1.6656,-1.6326,-1.6506,-1.6486,-1.6366,-1.6146,-1.6046,-1.5959,-1.5798,-1.5255,-1.4873,-1.4873,-1.4286,-1.3746,-1.3366,-1.3318,-1.3119,-1.2727,-1.2145,-1.1755,-1.1755,-1.1755,-1.1755,-1.1755,-1.113,-1.0711,-1.0634,-1.0557,-1.0231,-0.9707,-0.948,-0.9149,-0.8723,-0.8661,-0.8612,-0.9058,-1.0201,-1.1531,-1.2141,0.0,0.0,-1.5001,-1.6104,-1.7773,-1.9994,-2.0581,-2.0879,-2.1317,-2.2223,-2.313,-2.3906,-2.499,-2.5986,-2.6894,-2.6904,-2.6768,-2.6631,-2.6484,-2.6113,-2.5343,-2.5274,-2.4962,-2.4277,-2.3955,-2.373,-2.3594,-2.3257,-2.3091,-2.3091,-2.3091,-2.296,-2.2643,-2.2974,-2.2725,-2.1869,-2.1735,-2.2058,-2.2727,-2.2245,-2.1948,-2.1822,-2.1929,-2.173,-2.1198,-2.0789,-2.0121,-1.9314,-1.8566,-1.8167,-1.7964,-1.7694,-1.7582,-1.7582,-1.7582,-1.7582,-1.7582,-1.7582,-1.7582,-1.7582,-1.7582,-1.7582,-1.7582,-1.7582,-1.7582,-1.7582,-1.7582,-1.7582,-1.7582,-1.7582,-1.7201,-1.6927,-1.7273,-1.6951,-1.6656,-1.6807,-1.6737,-1.6437,-1.5908,-1.5616,-1.5303,-1.4873,-1.4238,-1.3806,-1.3806,-1.3167,-1.2581,-1.2242,-1.1907,-1.1712,-1.1712,-1.1077,-1.069,-1.069,-1.069,-1.069,-1.069,-0.9965,-0.9579,-0.9579,-0.9571,-0.9482,-0.9404,-0.9181,-0.9031,-0.8905,-0.8792,-0.878,-0.8611,-0.9557,-1.0573,-1.0711,0.0,0.0,-1.8198,-1.8361,-1.897,-2.1889,-2.2519,-2.2402,-2.1982,-2.2246,-2.2676,-2.3149,-2.4609,-2.5976,-2.6875,-2.6641,-2.6211,-2.5732,-2.5332,-2.4893,-2.4453,-2.4414,-2.4238,-2.3809,-2.3779,-2.3594,-2.312,-2.3091,-2.3091,-2.3091,-2.3091,-2.2643,-2.1695,-2.1695,-2.1392,-2.0881,-1.9464,-1.9518,-2.0916,-2.1616,-2.1753,-2.1357,-2.102,-2.0877,-2.0783,-1.9428,-1.8705,-1.837,-1.8122,-1.8016,-1.7964,-1.7694,-1.7582,-1.7582,-1.7582,-1.7582,-1.7582,-1.7582,-1.7582,-1.7582,-1.7582,-1.7582,-1.7582,-1.7582,-1.7582,-1.7582,-1.7582,-1.7582,-1.7582,-1.7582,-1.7414,-1.728,-1.7515,-1.7407,-1.7199,-1.7199,-1.7199,-1.6649,-1.4979,-1.469,-1.4244,-1.291,-1.2678,-1.2678,-1.2684,-1.2684,-1.229,-1.1268,-1.0207,-0.9579,-0.9579,-0.9579,-0.9579,-0.9579,-0.9579,-0.9579,-0.9579,-0.9579,-0.9579,-0.9579,-0.9449,-0.9404,-0.9404,-0.9181,-0.91,-0.9096,-0.9096,-0.9096,-0.9561,-1.1318,-1.3179,-1.3856,0.0,0.0,0.0,-1.9944,0.0,0.0,-2.3223,-2.3633,-2.2963,-2.3369,-2.3896,-2.4023,-2.4727,-2.5352,-2.5615,-2.5537,-2.5293,-2.4863,-2.4687,-2.4443,-2.4014,-2.3975,-2.3799,-2.3315,-2.3286,-2.3227,-2.3101,-2.3091,-2.3091,-2.3091,-2.2467,-2.1971,-2.1695,-2.1006,-2.0246,-1.9402,-1.8974,-1.9156,-1.9823,-1.9287,-1.8997,-1.888,-1.903,-1.9212,-1.9402,-1.9028,-1.86,-1.8115,-1.8016,-1.7859,-1.7694,-1.7635,-1.7582,-1.7582,-1.7582,-1.7582,-1.7582,-1.7582,-1.7582,-1.7582,-1.7582,-1.7582,-1.7582,-1.7582,-1.7582,-1.7582,-1.7582,-1.7582,-1.7582,-1.7582,-1.7414,-1.7226,-1.7306,-1.7266,-1.6935,-1.6097,-1.5936,-1.5463,-1.4055,-1.3607,-1.3309,-1.2764,-1.2096,-1.137,-1.0596,-1.0502,-1.0404,-1.0109,-0.9772,-0.9677,-0.9799,-0.9697,-0.9681,-0.9803,-0.9693,-0.9579,-0.9579,-0.9579,-0.9579,-0.9579,-0.9575,-0.9547,-0.9547,-0.9364,-0.9214,-0.9096,-0.9096,-0.9027,-0.978,-1.197,-1.4348,-1.541,-1.7686,-1.9972,-2.1289,0.0,0.0,0.0,-2.3877,-2.4258,-2.376,-2.3935,-2.417,-2.417,-2.4531,-2.4805,-2.4805,-2.4805,-2.4648,-2.4219,-2.417,-2.3994,-2.3574,-2.3525,-2.3418,-2.311,-2.3091,-2.3091,-2.3091,-2.274,-2.2555,-2.2555,-2.1596,-2.0926,-2.0557,-1.9968,-1.9147,-1.8195,-1.8195,-1.8349,-1.8542,-1.8037,-1.7816,-1.7845,-1.82,-1.8311,-1.8309,-1.8473,-1.8286,-1.7852,-1.7852,-1.7747,-1.7582,-1.7582,-1.7582,-1.7582,-1.7582,-1.7582,-1.7582,-1.7582,-1.7582,-1.7582,-1.7582,-1.7582,-1.7582,-1.7582,-1.7582,-1.7582,-1.7582,-1.7582,-1.7582,-1.7582,-1.7501,-1.7211,-1.6788,-1.6684,-1.6313,-1.5141,-1.4798,-1.4337,-1.3018,-1.2542,-1.2168,-1.1551,-1.0935,-1.035,-0.9673,-0.9579,-0.9652,-0.9721,-0.973,-0.977,-0.9876,-0.9791,-0.9746,-0.9778,-0.9685,-0.9579,-0.9579,-0.9579,-0.9579,-0.9579,-0.9579,-0.9579,-0.9579,-0.9514,-0.9409,-0.9307,-0.9307,-0.9246,-0.9591,-1.185,-1.4455,-1.5968,-1.8906,-2.1746,-2.2984,-2.3623,-2.3965,-2.4199,-2.4365,-2.4453,-2.4375,-2.4082,-2.3848,-2.3848,-2.417,-2.4404,-2.4365,-2.4365,-2.4199,-2.3779,-2.373,-2.3574,-2.314,-2.3091,-2.3091,-2.3091,-2.3091,-2.3047,-2.296,-2.2148,-2.165,-2.1561,-2.0602,-1.965,-1.8796,-1.8696,-1.8195,-1.7279,-1.7279,-1.7279,-1.7286,-1.764,-1.7724,-1.776,-1.8139,-1.802,-1.7558,-1.7859,-1.7832,-1.7582,-1.7582,-1.7582,-1.7582,-1.7582,-1.7582,-1.7582,-1.7582,-1.7582,-1.7582,-1.7549,-1.7562,-1.7582,-1.7549,-1.7562,-1.7582,-1.7582,-1.7582,-1.7582,-1.7477,-1.7477,-1.7417,-1.7312,-1.7364,-1.7147,-1.5937,-1.5737,-1.5358,-1.4131,-1.3705,-1.3184,-1.1911,-1.1462,-1.0874,-0.9751,-0.9579,-0.9579,-0.9579,-0.964,-0.9705,-0.9847,-0.9892,-0.9908,-0.9908,-0.9896,-0.9823,-0.9685,-0.9644,-0.9579,-0.9579,-0.9579,-0.9579,-0.9579,-0.9579,-0.9579,-0.9579,-0.9579,-0.9571,-0.9604,-0.9571,-0.9571,-1.0342,-1.232,0.0,-1.7389,-2.0684,-2.3486,-2.4434,-2.4773,-2.448,-2.3174,-2.3994,-2.4727,-2.4053,-2.4121,-2.4277,-2.4277,-2.4355,-2.4307,-2.3975,-2.3926,-2.376,-2.3286,-2.3237,-2.3198,-2.311,-2.3091,-2.3091,-2.3091,-2.3091,-2.2775,-2.2059,-2.1828,-2.1329,-2.0557,-1.9604,-1.9018,-1.8788,-1.8017,-1.7512,-1.7279,-1.7279,-1.7279,-1.7286,-1.7352,-1.7301,-1.7196,-1.748,-1.7443,-1.7244,-1.7545,-1.7649,-1.7582,-1.7582,-1.7582,-1.7582,-1.7582,-1.7582,-1.7582,-1.7582,-1.7582,-1.7549,-1.7367,-1.7454,-1.7542,-1.7367,-1.7454,-1.7582,-1.7582,-1.7582,-1.7364,-1.6505,-1.6287,-1.6021,-1.5102,-1.5589,-1.5854,-1.4481,-1.4327,-1.4029,-1.2521,-1.2403,-1.2049,-1.0557,-1.0264,-1.0075,-0.9652,-0.9579,-0.9579,-0.9579,-0.9746,-0.9791,-0.9693,-0.9937,-1.0155,-1.0155,-0.9969,-0.9933,-1.0038,-0.9782,-0.9579,-0.9579,-0.9579,-0.9579,-0.9579,-0.9579,-0.9579,-0.9579,-0.9579,-0.9555,-0.9465,-0.9559,-0.9551,-1.0546,-1.2637,0.0,-1.9228,0.0,-2.3955,-2.4609,-2.4756,-2.4502,-2.3613,-2.4297,-2.4851,-2.3945,-2.3965,-2.4053,-2.3793,-2.3764,-2.3686,-2.3506,-2.3477,-2.3344,-2.312,-2.3091,-2.3091,-2.3091,-2.3091,-2.3091,-2.3091,-2.2687,-2.2236,-2.1739,-2.0836,-2.0059,-1.9559,-1.8603,-1.8064,-1.8064,-1.7559,-1.7279,-1.7279,-1.7279,-1.7239,-1.7153,-1.7153,-1.6972,-1.6616,-1.6924,-1.6905,-1.6731,-1.7022,-1.7268,-1.7427,-1.7427,-1.7514,-1.7582,-1.7582,-1.7582,-1.7582,-1.7582,-1.7548,-1.7407,-1.7253,-1.73,-1.7289,-1.6562,-1.6553,-1.6664,-1.6068,-1.5908,-1.5802,-1.5209,-1.5049,-1.4753,-1.3469,-1.4163,-1.4694,-1.3342,-1.3194,-1.2886,-1.1509,-1.1269,-1.1076,-1.0166,-0.9876,-0.973,-0.964,-0.9579,-0.9579,-0.9579,-0.9778,-0.9884,-0.9884,-1.0128,-1.0257,-1.0224,-1.0122,-0.9985,-0.9912,-0.973,-0.9579,-0.9579,-0.9579,-0.9579,-0.9579,-0.9579,-0.9579,-0.9579,-0.9579,-0.9579,-0.9486,-0.9583,-0.9575,-1.0235,-1.2686,-1.5957,-2.043,-2.251,0.0,-2.418,-2.4307,-2.4307,-2.4307,-2.46,-2.4675,-2.3916,-2.373,-2.3555,-2.3149,-2.3091,-2.3091,-2.3091,-2.3091,-2.3062,-2.2994,-2.3052,-2.3018,-2.2775,-2.2833,-2.2775,-2.2599,-2.1872,-2.1373,-2.1195,-1.965,-1.8703,-1.8565,-1.7738,-1.7279,-1.7279,-1.7279,-1.7279,-1.7279,-1.7286,-1.7106,-1.6838,-1.6838,-1.6602,-1.6238,-1.6491,-1.6476,-1.6342,-1.6533,-1.6807,-1.7132,-1.7186,-1.7347,-1.7515,-1.7562,-1.7582,-1.7582,-1.7582,-1.7474,-1.7215,-1.6955,-1.6917,-1.6736,-1.5475,-1.5328,-1.5375,-1.44,-1.4078,-1.4024,-1.3863,-1.3814,-1.3498,-1.2263,-1.2695,-1.3219,-1.2257,-1.2041,-1.1765,-1.082,-1.0436,-1.0249,-1.0095,-0.9847,-0.9673,-0.9673,-0.9701,-0.9721,-0.9721,-0.9872,-1.0026,-1.02,-1.0327,-1.0375,-1.0221,-1.0233,-1.0034,-0.9738,-0.9689,-0.9657,-0.9579,-0.9579,-0.9579,-0.9579,-0.9579,-0.9579,-0.9579,-0.9579,-0.9579,-0.9529,-0.9529,-0.9529,-0.9014,0.0,-1.6113,0.0,-2.1162,-2.2441,0.0,0.0,-2.3877,-2.3877,-2.3926,-2.3926,-2.3809,-2.3486,-2.3159,-2.311,-2.3091,-2.3091,-2.3091,-2.3091,-2.2955,-2.2637,-2.2877,-2.264,-2.1488,-2.1669,-2.1516,-2.0638,-2.0458,-2.0051,-1.9247,-1.8926,-1.838,-1.7512,-1.7372,-1.7279,-1.7279,-1.7279,-1.7279,-1.7279,-1.7113,-1.6784,-1.6319,-1.6319,-1.6272,-1.6177,-1.6265,-1.6286,-1.6279,-1.6319,-1.65,-1.6794,-1.7099,-1.7226,-1.7286,-1.7488,-1.7582,-1.7582,-1.7582,-1.7555,-1.7318,-1.6062,-1.5829,-1.5818,-1.4372,-1.4108,-1.4293,-1.4137,-1.4078,-1.3868,-1.2901,-1.263,-1.2354,-1.1202,-1.0883,-1.084,-1.0679,-1.0679,-1.058,-1.0314,-0.9961,-0.9676,-0.9701,-0.9782,-0.9851,-0.9851,-0.9985,-1.0143,-1.0143,-1.0249,-1.031,-1.0228,-1.0327,-1.037,-1.0346,-1.0253,-1.0192,-1.0147,-0.9941,-0.9782,-0.9583,-0.9579,-0.9579,-0.9579,-0.9579,-0.9579,-0.9579,-0.9579,-0.948,-0.9236,-0.9236,-0.9133,-0.9355,-1.2158,-1.5225,0.0,-1.9473,-2.1055,-2.2119,-2.2549,-2.2725,-2.2725,-2.2725,-2.2861,-2.334,-2.3033,-2.2818,-2.3052,-2.2896,-2.2828,-2.3062,-2.3091,-2.2945,-2.2568,-2.2838,-2.2567,-2.1231,-2.1465,-2.1284,-2.0277,-1.9687,-1.9239,-1.8834,-1.8288,-1.7738,-1.7326,-1.7279,-1.7245,-1.7062,-1.7062,-1.7023,-1.6846,-1.6652,-1.6414,-1.6177,-1.6028,-1.5981,-1.5981,-1.5981,-1.6001,-1.6025,-1.6025,-1.6199,-1.6473,-1.6656,-1.6911,-1.7213,-1.7347,-1.7494,-1.7529,-1.6882,-1.651,-1.6143,-1.4868,-1.4541,-1.4451,-1.3135,-1.2943,-1.3004,-1.2363,-1.22,-1.2091,-1.1555,-1.1446,-1.1311,-1.0679,-1.0412,-1.031,-1.0358,-1.0355,-1.0257,-1.0228,-1.0086,-0.9929,-0.9929,-0.9989,-1.0094,-1.0094,-1.0159,-1.0175,-1.0069,-1.0168,-1.0213,-1.0026,-1.0172,-1.0282,-1.0282,-1.0209,-1.0167,-1.0065,-0.9929,-0.9756,-0.9389,-0.9529,-0.9476,-0.9175,-0.9426,-0.9529,-0.9385,-0.9385,-0.9232,-0.8977,-0.8977,-0.8928,0.0,0.0,-1.3597,-1.5556,-1.7399,-1.9121,0.0,-2.0996,-2.1318,-2.165,-2.1719,-2.1943,-2.2643,-2.2568,-2.2461,-2.2773,-2.2559,-2.2461,-2.273,-2.2822,-2.258,-2.1932,-2.2294,-2.1923,-2.0275,-2.0536,-2.0374,-1.9331,-1.8651,-1.834,-1.834,-1.7618,-1.7208,-1.7208,-1.7128,-1.6967,-1.6778,-1.6688,-1.655,-1.6331,-1.6192,-1.6102,-1.6076,-1.5879,-1.5784,-1.5784,-1.5784,-1.5784,-1.5784,-1.5784,-1.5959,-1.6166,-1.6295,-1.6636,-1.7099,-1.7172,-1.734,-1.7377,-1.6268,-1.5686,-1.5157,-1.3804,-1.3345,-1.3133,-1.203,-1.1814,-1.1769,-1.0962,-1.0692,-1.0692,-1.0692,-1.066,-1.0607,-1.0521,-1.0327,-1.0188,-1.0278,-1.0173,-1.0096,-1.0103,-0.9951,-0.9884,-0.9979,-0.9976,-1.002,-1.0116,-1.0213,-1.0181,-1.0046,-1.0148,-1.016,-0.9973,-1.0034,-1.0111,-1.0108,-1.0067,-0.9931,-0.9693,-0.9685,-0.9505,-0.9137,-0.9278,-0.9225,-0.8825,-0.9175,-0.9278,-0.9084,-0.9084,-0.8981,-0.8676,-0.8676,-0.8676,0.0,-0.9766,0.0,-1.3607,-1.4933,-1.6299,0.0,-1.9404,-1.9775,-2.0976,-2.1229,-2.1406,-2.1865,-2.1934,-2.1924,-2.1953,-2.1934,-2.1924,-2.1953,-2.1953,-2.1489,-2.0172,-2.0743,-2.0214,-1.7639,-1.8065,-1.793,-1.6699,-1.6839,-1.7016,-1.7016,-1.697,-1.6925,-1.6925,-1.6624,-1.6455,-1.6441,-1.6182,-1.5982,-1.5826,-1.5846,-1.5804,-1.5825,-1.5832,-1.5784,-1.5784,-1.5784,-1.5784,-1.5784,-1.5784,-1.5791,-1.5879,-1.6166,-1.646,-1.676,-1.7099,-1.7213,-1.7105,-1.62,-1.5686,-1.5082,-1.3081,-1.2453,-1.2236,-1.1109,-1.0794,-1.0802,-1.0692,-1.0692,-1.0692,-1.0692,-1.057,-1.0485,-1.0643,-1.0416,-1.0167,-0.9949,-0.9892,-0.9852,-0.9882,-0.9357,-0.8999,-0.9466,-0.9427,-0.9485,-0.9953,-1.0174,-1.033,-1.0375,-1.0358,-1.0351,-1.022,-0.9998,-0.9871,-0.9839,-0.9646,-0.9442,-0.918,-0.9129,-0.9051,-0.8832,-0.8825,-0.8825,-0.8825,-0.8825,-0.8825,-0.8825,-0.8825,-0.8676,-0.8432,-0.8432,-0.8283,0.0,0.0,0.0,-1.1289,-1.2496,-1.3734,-1.5244,-1.6426,-1.7465,-1.8159,-1.8958,-1.966,-2.0137,-2.0908,-2.1562,-2.1836,-2.165,-2.1349,-2.1102,-2.0872,-2.0248,-1.8976,-1.9091,-1.865,-1.7037,-1.7403,-1.7341,-1.6448,-1.6521,-1.6587,-1.6587,-1.6587,-1.6587,-1.6587,-1.647,-1.6228,-1.5901,-1.5472,-1.5272,-1.5205,-1.5452,-1.555,-1.5558,-1.5745,-1.5784,-1.5784,-1.5784,-1.5784,-1.5784,-1.5784,-1.5784,-1.5791,-1.5945,-1.6166,-1.639,-1.5788,-1.5739,-1.5648,-1.3918,-1.3315,-1.3124,-1.1621,-1.1188,-1.121,-1.0666,-1.0603,-1.0668,-1.0558,-1.0607,-1.0692,-1.0692,-1.0647,-1.0586,-1.0538,-1.0263,-0.9982,-0.9693,-0.957,-0.9436,-0.9415,-0.9218,-0.9168,-0.9386,-0.9395,-0.9403,-0.9617,-0.9766,-0.9774,-0.9603,-0.9665,-0.9679,-0.9548,-0.9353,-0.9284,-0.956,-0.9367,-0.918,-0.9129,-0.9078,-0.8953,-0.8535,-0.8726,-0.8627,-0.8283,-0.8432,-0.8528,-0.8528,-0.8528,-0.8382,-0.8137,-0.8137,-0.8088,-0.7397,0.0,0.0,0.0,-1.0259,-1.1154,-1.255,-1.4009,-1.5284,-1.6102,-1.7282,-1.8315,-1.8779,-1.957,-2.0303,-2.0918,-2.0575,-2.0115,-1.982,-1.9377,-1.866,-1.748,-1.7516,-1.7143,-1.6051,-1.6314,-1.64,-1.5912,-1.5994,-1.6104,-1.6213,-1.6213,-1.617,-1.5966,-1.5966,-1.5734,-1.5184,-1.4891,-1.4779,-1.4946,-1.5161,-1.5351,-1.5545,-1.5745,-1.5784,-1.5784,-1.5784,-1.5784,-1.5784,-1.5784,-1.5784,-1.5784,-1.5784,-1.5765,-1.568,-1.4937,-1.465,-1.4302,-1.2495,-1.1897,-1.1765,-1.0689,-1.042,-1.0493,-1.0379,-1.0465,-1.0582,-1.0415,-1.0558,-1.068,-1.0623,-1.0607,-1.052,-1.0295,-1.0006,-0.9689,-0.9356,-0.9205,-0.9109,-0.9101,-0.8969,-0.8939,-0.9209,-0.9131,-0.906,-0.9212,-0.9308,-0.9279,-0.9112,-0.9175,-0.9189,-0.9061,-0.8928,-0.887,-0.9133,-0.8942,-0.8845,-0.8744,-0.8744,-0.8593,-0.829,-0.8432,-0.8382,-0.7988,-0.8187,-0.8283,-0.8283,-0.8283,-0.8187,-0.7988,-0.7988,-0.7988,0.0,0.0,0.0,0.0,-0.8209,-0.8585,-1.0947,-1.2191,-1.3339,-1.4973,-1.6336,-1.7369,-1.7818,-1.7906,-1.8134,-1.8997,-1.8589,-1.8147,-1.8147,-1.7432,-1.6581,-1.5725,-1.5904,-1.5685,-1.4597,-1.4735,-1.4878,-1.4885,-1.5192,-1.5506,-1.5855,-1.5841,-1.561,-1.5082,-1.5082,-1.4866,-1.4378,-1.4391,-1.4577,-1.4995,-1.5008,-1.5264,-1.5771,-1.5778,-1.5784,-1.5784,-1.5784,-1.5778,-1.5778,-1.5778,-1.5778,-1.5737,-1.573,-1.5277,-1.4678,-1.4623,-1.3975,-1.3009,-1.2118,-1.1601,-1.1222,-1.0453,-1.0208,-1.0212,-1.0208,-1.0282,-1.0375,-1.0375,-1.0546,-1.0639,-1.0423,-1.0383,-1.0325,-1.0045,-0.9655,-0.9276,-0.8947,-0.8774,-0.8769,-0.902,-0.8496,-0.819,-0.8796,-0.8567,-0.8412,-0.881,-0.8888,-0.8938,-0.9042,-0.9075,-0.9011,-0.8794,-0.8775,-0.8676,-0.8432,-0.8382,-0.8283,-0.8041,-0.7988,-0.7988,-0.7988,-0.7988,-0.7988,-0.7939,-0.7939,-0.7939,-0.7889,-0.7988,-0.7988,-0.7988,-0.7988,-0.7939,-0.673,0.0,0.0,0.0,0.0,0.0,-0.852,-0.9345,-1.0489,-1.2572,-1.3358,-1.4042,-1.5313,-1.5213,-1.5038,-1.5287,-1.645,-1.7114,-1.6492,-1.5618,-1.4804,-1.4191,-1.3983,-1.394,-1.4115,-1.4194,-1.4348,-1.4582,-1.4896,-1.498,-1.4882,-1.4916,-1.4839,-1.4542,-1.458,-1.4421,-1.4118,-1.4177,-1.4354,-1.4643,-1.4863,-1.5157,-1.5524,-1.5732,-1.5784,-1.5778,-1.5016,-1.4729,-1.4729,-1.4729,-1.4729,-1.4627,-1.3848,-1.3895,-1.4207,-1.2731,-1.1992,-1.1609,-1.0594,-1.0272,-1.0294,-1.0047,-1.0106,-1.0188,-1.0053,-1.0091,-1.0237,-1.0237,-1.0326,-1.0274,-1.0137,-1.0103,-1.0045,-0.9777,-0.9387,-0.8974,-0.8811,-0.8461,-0.8203,-0.8303,-0.8258,-0.8248,-0.8221,-0.818,-0.8116,-0.8254,-0.8357,-0.8425,-0.832,-0.8451,-0.8512,-0.8499,-0.8333,-0.8283,-0.8382,-0.8233,-0.8088,-0.7988,-0.7988,-0.7988,-0.7988,-0.7988,-0.764,-0.6836,-0.6836,-0.6484,-0.5677,-0.7235,-0.7988,-0.7988,-0.7188,-0.6431,0.0,0.0,0.0,0.0,0.0,0.0,-0.7374,-0.8113,-0.9154,-1.0735,-1.1307,-1.1903,-1.3123,-1.2869,-1.2564,-1.2835,-1.3691,-1.4406,-1.4639,-1.402,-1.3416,-1.3138,-1.2921,-1.2958,-1.3338,-1.3492,-1.3711,-1.4078,-1.4362,-1.4523,-1.4511,-1.4565,-1.4529,-1.4326,-1.4365,-1.4274,-1.4028,-1.4085,-1.4229,-1.4479,-1.4823,-1.5162,-1.5404,-1.522,-1.5159,-1.5112,-1.4094,-1.3366,-1.3022,-1.3022,-1.327,-1.3559,-1.2926,-1.2829,-1.2877,-1.1658,-1.093,-1.0449,-0.9821,-0.9693,-0.9778,-0.9778,-0.9851,-0.9916,-0.9811,-0.9904,-1.0046,-1.0046,-0.9995,-0.9932,-0.9897,-0.9783,-0.9587,-0.9338,-0.9073,-0.8781,-0.8593,-0.8247,-0.8008,-0.8123,-0.8157,-0.8167,-0.814,-0.8032,-0.8012,-0.8126,-0.816,-0.8187,-0.8221,-0.8194,-0.8214,-0.8338,-0.8125,-0.8088,-0.8237,-0.8088,-0.7988,-0.7988,-0.7988,-0.7789,-0.7338,-0.7338,-0.6833,-0.5729,-0.5729,-0.5427,-0.4824,-0.6077,-0.6681,-0.6631,-0.6032,-0.5377,0.0,0.0,0.0,0.0,-0.687,0.0,-0.7088,-0.7813,-0.8655,-0.9334,-0.9852,-1.0387,-1.1099,-1.0702,-1.0465,-1.1061,-1.0764,-1.1059,-1.2787,-1.2643,-1.2372,-1.2409,-1.2445,-1.2448,-1.2485,-1.2782,-1.3075,-1.3367,-1.3689,-1.4048,-1.4404,-1.4453,-1.4356,-1.4189,-1.4276,-1.4231,-1.4041,-1.4075,-1.4229,-1.4479,-1.4823,-1.5072,-1.5213,-1.4599,-1.425,-1.4052,-1.3022,-1.2047,-1.117,-1.1077,-1.1609,-1.2533,-1.2393,-1.1901,-1.117,-1.1077,-1.04,-0.9579,-0.9579,-0.9579,-0.9579,-0.9579,-0.9579,-0.9579,-0.9579,-0.9734,-0.9855,-0.9805,-0.9669,-0.9517,-0.9624,-0.9345,-0.9013,-0.8893,-0.8718,-0.8568,-0.8299,-0.8136,-0.8029,-0.8218,-0.8133,-0.8032,-0.8221,-0.813,-0.8092,-0.8248,-0.8153,-0.8163,-0.8445,-0.8238,-0.8116,-0.8255,-0.8133,-0.7988,-0.7988,-0.7988,-0.7988,-0.7988,-0.7889,-0.7388,-0.6437,-0.6284,-0.5732,-0.4624,-0.4524,-0.4423,-0.4423,-0.4674,-0.4724,-0.4624,-0.4624,-0.4574,0.0,0.0,0.0,-0.6307,-0.6711,0.0,-0.6779,-0.6819,-0.7262,-0.8399,-0.8016,-0.7772,-0.883,-0.8609,-0.8315,-0.8453,-0.9026,-1.0025,-1.1675,-1.16,-1.1481,-1.1745,-1.1977,-1.22,-1.2463,-1.2543,-1.2609,-1.2674,-1.3016,-1.3418,-1.3892,-1.3681,-1.35,-1.3406,-1.3655,-1.3728,-1.3686,-1.3968,-1.4229,-1.4479,-1.4823,-1.4689,-1.4114,-1.426,-1.3806,-1.2974,-1.195,-1.1365,-1.1121,-1.0256,-1.0547,-1.1419,-1.0547,-1.0596,-1.1126,-1.0207,-0.9772,-0.9579,-0.9579,-0.9579,-0.9579,-0.9579,-0.9579,-0.9579,-0.9579,-0.9652,-0.9631,-0.9383,-0.9431,-0.9388,-0.9017,-0.8852,-0.8732,-0.8457,-0.8392,-0.8337,-0.8109,-0.8012,-0.7998,-0.8029,-0.8012,-0.7998,-0.8029,-0.8008,-0.8092,-0.8248,-0.8245,-0.8289,-0.8459,-0.8333,-0.8238,-0.832,-0.8133,-0.7988,-0.7988,-0.7988,-0.7988,-0.7988,-0.7188,-0.6637,-0.6387,-0.5579,-0.4626,-0.3524,-0.2672,-0.222,-0.222,-0.3974,-0.4375,-0.3524,-0.3524,-0.3074,0.0,0.0,-0.6963,-0.6832,-0.694,0.0,0.0,-0.6494,-0.6567,-0.7671,-0.6947,-0.6485,-0.7724,-0.7216,-0.6719,-0.7093,-0.7569,-0.8298,-0.9449,-1.031,-1.0924,-1.1085,-1.1216,-1.1443,-1.1772,-1.1948,-1.2142,-1.2369,-1.2687,-1.2928,-1.314,-1.3158,-1.3119,-1.3089,-1.3414,-1.36,-1.36,-1.3941,-1.4162,-1.4309,-1.4151,-1.3885,-1.3591,-1.2919,-1.2384,-1.1901,-1.0837,-1.04,-1.035,-0.9821,-0.9916,-1.0355,-0.9821,-0.9916,-1.0355,-0.9821,-0.9579,-0.9579,-0.9579,-0.9579,-0.9579,-0.9579,-0.9579,-0.9579,-0.9579,-0.9529,-0.9381,-0.9236,-0.9091,-0.8901,-0.8603,-0.8456,-0.8305,-0.8204,-0.8153,-0.8133,-0.8005,-0.7988,-0.7988,-0.7988,-0.7988,-0.7988,-0.7988,-0.7988,-0.8116,-0.8343,-0.8368,-0.835,-0.8567,-0.8408,-0.8323,-0.8323,-0.8133,-0.7988,-0.7988,-0.7487,-0.7188,-0.7188,-0.6182,-0.5379,-0.483,-0.4275,-0.3473,-0.2422,-0.1869,-0.1617,-0.1617,-0.2672,-0.2923,-0.2422,-0.2422,-0.212,-0.7,-0.7164,-0.7329,-0.7329,-0.7202,-0.7003,0.0,0.0,0.0,-0.6894,-0.6205,-0.5835,-0.6962,-0.6261,-0.57,-0.6286,-0.6507,-0.6743,-0.7241,-0.8861,-1.0026,-1.0119,-1.0185,-1.0375,-1.0763,-1.1202,-1.1643,-1.2059,-1.2328,-1.2423,-1.2354,-1.2652,-1.2856,-1.2879,-1.3286,-1.3547,-1.36,-1.3941,-1.4004,-1.3828,-1.3324,-1.3007,-1.2802,-1.1474,-1.0885,-1.0832,-0.9965,-0.9579,-0.9579,-0.9579,-0.9579,-0.9579,-0.9579,-0.9579,-0.9579,-0.9579,-0.9579,-0.9579,-0.9579,-0.9579,-0.9579,-0.9579,-0.9579,-0.9579,-0.9529,-0.9381,-0.9187,-0.9084,-0.8733,-0.8382,-0.8333,-0.8187,-0.7988,-0.7988,-0.7988,-0.7988,-0.7988,-0.7988,-0.7988,-0.7988,-0.7988,-0.7988,-0.7988,-0.7988,-0.8083,-0.8401,-0.8343,-0.8367,-0.8632,-0.8435,-0.8323,-0.8323,-0.8133,-0.7939,-0.769,-0.6886,-0.6337,-0.6084,-0.5077,-0.4124,-0.3224,-0.3022,-0.2471,-0.1617,-0.1617,-0.1617,-0.1617,-0.1617,-0.1617,-0.1617,-0.1617,-0.1617,-0.7,-0.7393,-0.7582,-0.6599,-0.7069,-0.739,-0.5902,0.0,-0.6142,-0.5711,0.0,-0.5607,-0.5937,0.0,0.0,-0.5613,-0.6124,-0.6456,-0.6293,-0.7188,-0.7974,-0.8338,-0.8698,-0.9114,-0.9633,-1.043,-1.1031,-1.1382,-1.1541,-1.1671,-1.1772,-1.2108,-1.2308,-1.2382,-1.2939,-1.3347,-1.36,-1.3941,-1.3695,-1.2875,-1.3014,-1.2294,-1.0847,-1.0872,-1.0509,-0.9772,-0.9673,-0.9579,-0.9579,-0.9579,-0.9579,-0.9579,-0.9579,-0.9579,-0.9579,-0.9579,-0.9579,-0.9579,-0.9579,-0.9579,-0.9579,-0.9579,-0.9579,-0.9579,-0.9331,-0.9232,-0.9084,-0.8634,-0.8432,-0.8333,-0.8088,-0.8038,-0.7988,-0.7988,-0.7988,-0.7988,-0.7988,-0.7988,-0.7988,-0.7988,-0.7988,-0.7988,-0.7988,-0.7988,-0.8099,-0.8269,-0.8333,-0.833,-0.8486,-0.837,-0.8323,-0.8323,-0.8133,-0.764,-0.6686,-0.6487,-0.5982,-0.5024,-0.3974,-0.3323,-0.3224,-0.227,-0.1717,-0.1617,-0.1617,-0.1617,-0.1617,-0.1617,-0.1617,-0.1617,-0.1617,-0.1617,-0.7433,-0.7712,-0.7786,-0.7315,-0.7273,-0.7121,-0.6093,-0.5787,-0.5746,-0.5841,0.0,0.0,0.0,0.0,0.0,0.0,-0.5807,-0.5996,-0.5732,-0.6068,-0.6697,-0.7645,-0.791,-0.8314,-0.912,-0.9323,-0.9676,-1.0321,-1.0511,-1.0633,-1.0744,-1.1567,-1.2038,-1.208,-1.2164,-1.2326,-1.2569,-1.2378,-1.2162,-1.1886,-1.1467,-1.0933,-1.034,-0.9999,-0.9728,-0.9474,-0.9579,-0.9579,-0.9579,-0.9579,-0.9579,-0.9579,-0.9579,-0.9579,-0.9579,-0.9579,-0.9579,-0.9579,-0.9579,-0.9579,-0.9579,-0.9579,-0.948,-0.9331,-0.9236,-0.8985,-0.8684,-0.8482,-0.8283,-0.8137,-0.8038,-0.7988,-0.7988,-0.7988,-0.7988,-0.7988,-0.7988,-0.7988,-0.7988,-0.7988,-0.7988,-0.7988,-0.7988,-0.7988,-0.8092,-0.8248,-0.8323,-0.8344,-0.835,-0.8357,-0.8238,-0.8147,-0.7475,-0.6886,-0.6437,-0.5281,-0.4327,-0.3924,-0.2873,-0.227,-0.227,-0.1818,-0.1617,-0.1617,-0.1617,-0.1617,-0.1617,-0.1617,-0.1617,-0.1617,-0.1617,-0.1617,-0.8225,-0.8265,-0.8145,-0.8145,-0.7572,-0.6873,-0.6412,-0.5963,-0.5708,-0.5914,-0.5806,0.0,0.0,0.0,0.0,0.0,0.0,-0.5668,-0.541,-0.541,-0.5815,-0.6814,-0.7087,-0.7496,-0.8239,-0.8247,-0.849,-0.9213,-0.9398,-0.9633,-0.9973,-1.0882,-1.1427,-1.142,-1.1422,-1.1406,-1.1397,-1.1139,-1.0963,-1.084,-1.0216,-0.9874,-0.9809,-0.933,-0.9194,-0.9412,-0.9547,-0.9579,-0.9579,-0.9579,-0.9579,-0.9579,-0.9579,-0.9579,-0.9579,-0.9579,-0.9579,-0.9579,-0.9579,-0.9579,-0.9579,-0.9579,-0.948,-0.9286,-0.9133,-0.8829,-0.8482,-0.8333,-0.8137,-0.7988,-0.7988,-0.7988,-0.7988,-0.7988,-0.7988,-0.7988,-0.7988,-0.7988,-0.7988,-0.7988,-0.7988,-0.7988,-0.7988,-0.7988,-0.8025,-0.8191,-0.8208,-0.8208,-0.8208,-0.795,-0.7705,-0.76,-0.6584,-0.5832,-0.5532,-0.4078,-0.3074,-0.2772,-0.2019,-0.1617,-0.1617,-0.1617,-0.1617,-0.1617,-0.1617,-0.1617,-0.1617,-0.1617,-0.1617,-0.1617,-0.1617,-0.1617,-0.9466,-0.9212,-0.8778,-0.8778,-0.7872,-0.692,-0.664,-0.6579,-0.6332,-0.5494,-0.5983,-0.6379,-0.5832,0.0,0.0,0.0,0.0,0.0,0.0,-0.5316,-0.5345,-0.5456,-0.603,-0.647,-0.656,-0.7273,-0.7834,-0.8133,-0.8342,-0.8817,-0.9682,-1.0,-1.018,-1.0239,-1.0809,-1.0866,-1.0367,-1.0759,-1.0585,-0.9766,-0.9847,-0.9526,-0.8873,-0.9011,-0.9194,-0.9412,-0.9547,-0.9579,-0.9579,-0.9579,-0.9579,-0.9579,-0.9579,-0.9579,-0.9579,-0.9579,-0.9579,-0.9579,-0.9579,-0.9579,-0.9579,-0.9579,-0.9579,-0.948,-0.8973,-0.8825,-0.8676,-0.8137,-0.7988,-0.7988,-0.7988,-0.7988,-0.7988,-0.7988,-0.7988,-0.7988,-0.7988,-0.7988,-0.7988,-0.7988,-0.7988,-0.7988,-0.7988,-0.7988,-0.7992,-0.7995,-0.7995,-0.7995,-0.7995,-0.7092,-0.6439,-0.6437,-0.5479,-0.4425,-0.3374,-0.3224,-0.2773,-0.1718,-0.1617,-0.1617,-0.1617,-0.1617,-0.1617,-0.1617,-0.1617,-0.1617,-0.1617,-0.1617,-0.1617,-0.1617,-0.1617,-0.1617,-0.9813,-0.9686,-0.9385,-0.9385,-0.8644,-0.7736,-0.7034,-0.6727,-0.6358,-0.5481,-0.5842,-0.6156,-0.5548,0.0,0.0,0.0,0.0,0.0,0.0,-0.5293,-0.5316,-0.5331,-0.5539,-0.5879,-0.6386,-0.6243,-0.6419,-0.7189,-0.7374,-0.7869,-0.8797,-0.9646,-1.0083,-1.0071,-1.0064,-0.9782,-0.9254,-0.9088,-0.8952,-0.8798,-0.8948,-0.896,-0.8828,-0.9011,-0.9194,-0.9412,-0.9547,-0.9579,-0.9579,-0.9579,-0.9579,-0.9579,-0.9579,-0.9579,-0.9579,-0.9579,-0.9579,-0.9579,-0.9579,-0.9579,-0.9579,-0.9579,-0.9377,-0.9027,-0.8874,-0.8528,-0.8233,-0.8038,-0.7988,-0.7988,-0.7988,-0.7988,-0.7988,-0.7988,-0.7988,-0.7988,-0.7988,-0.7988,-0.7988,-0.7988,-0.7988,-0.7988,-0.7988,-0.7988,-0.7988,-0.7988,-0.7988,-0.7739,-0.7036,-0.6637,-0.6134,-0.5427,-0.4375,-0.3574,-0.3224,-0.2572,-0.1969,-0.1617,-0.1617,-0.1617,-0.1617,-0.1617,-0.1617,-0.1617,-0.1617,-0.1617,-0.1617,-0.1617,-0.1617,-0.1617,-0.1617,-0.1617,-1.0735,-1.0454,-1.0077,-1.0254,-0.9412,-0.843,-0.8056,-0.7742,-0.7315,-0.6559,-0.662,-0.6593,-0.5889,0.0,0.0,0.0,0.0,0.0,0.0,-0.5205,-0.5125,-0.5125,-0.5236,-0.5489,-0.5961,-0.558,-0.5598,-0.629,-0.6422,-0.6893,-0.7891,-0.8648,-0.9077,-0.9192,-0.9041,-0.8702,-0.8181,-0.8022,-0.8012,-0.8195,-0.8381,-0.856,-0.8739,-0.8986,-0.9157,-0.9326,-0.9522,-0.9579,-0.9579,-0.9579,-0.9579,-0.9579,-0.9579,-0.9579,-0.9579,-0.9579,-0.9579,-0.9579,-0.9579,-0.9579,-0.9579,-0.9579,-0.9278,-0.8928,-0.8825,-0.8482,-0.8137,-0.8038,-0.7988,-0.7988,-0.7988,-0.7988,-0.7988,-0.7988,-0.7988,-0.7988,-0.7988,-0.7988,-0.7988,-0.7988,-0.7988,-0.8008,-0.8113,-0.7764,-0.7444,-0.7447,-0.7437,-0.7036,-0.5982,-0.5482,-0.4979,-0.4325,-0.3274,-0.2622,-0.2622,-0.2019,-0.1622,-0.1633,-0.1633,-0.1637,-0.1647,-0.1638,-0.1643,-0.1664,-0.1633,-0.1627,-0.1648,-0.1627,-0.1617,-0.1617,-0.1617,-0.1617]},{"header":{"parameterUnit":"m.s-1","parameterCategory":1,"la1":30.6,"la2":29.2853,"lo1":-89.7004,"lo2":-87.6739,"dy":0.0162,"dx":0.0183,"nx":112,"ny":82,"refTime":"2023-09-17T18:00:00:Z","depth":0,"parameterNumber":3,"parameterNumberName":"V-component_of_WINDS"},"data":[0.0,0.0,0.0,0.0,0.0,0.0,0.0,0.0,0.0,0.0,0.0,0.0,0.0,0.0,0.0,0.0,0.0,0.0,0.0,0.0,0.0,0.0,0.0,0.0,0.0,0.0,0.0,0.0,0.0,0.0,0.0,0.0,0.0,0.0,0.0,0.0,0.0,0.0,0.0,0.0,0.0,0.0,0.0,0.0,0.0,0.0,0.0,0.0,0.0,0.0,0.0,0.0,0.0,0.0,0.0,0.0,0.0,0.0,0.0,0.0,0.0,0.0,0.0,0.0,0.0,0.0,0.0,0.0,0.0,0.0,0.0,0.0,0.0,0.0,0.0,0.0,0.0,0.0,0.0,0.0,0.0,0.0,0.0,0.0,0.0,0.0,0.0,0.0,0.0,0.0,1.2042,1.4621,1.8649,2.0948,2.0483,2.0603,1.81,1.2015,0.0,0.0,0.0,0.0,0.0,0.0,0.0,0.0,0.0,0.0,0.0,0.0,0.0,0.0,0.0,0.0,0.0,0.0,0.0,0.0,0.0,0.0,0.0,0.0,0.0,0.0,0.0,0.0,0.0,0.0,0.0,0.0,0.0,0.0,0.0,0.0,0.0,0.0,0.0,0.0,0.0,0.0,0.0,0.0,0.0,0.0,0.0,0.0,0.0,0.0,0.0,0.0,0.0,0.0,0.0,0.0,0.0,0.0,0.0,0.0,0.0,0.0,0.0,0.0,0.0,0.0,0.0,0.0,0.0,0.0,0.0,0.0,0.0,0.0,0.0,0.0,0.0,0.0,0.0,0.0,0.0,0.0,0.0,0.0,0.0,0.0,0.0,0.0,0.0,0.0,0.0,0.0,0.0,0.0,0.0,0.0,0.0,0.0,0.0,0.0,0.0,0.0,0.0,0.0,1.2046,1.7516,1.9502,2.0625,2.1022,2.0018,1.7359,1.257,0.0,0.0,0.0,0.0,0.0,0.0,0.0,0.0,0.0,0.0,0.0,0.0,0.0,0.0,0.0,0.0,0.0,0.0,0.0,0.0,0.0,0.0,0.0,0.0,0.0,0.0,0.0,0.0,0.0,0.0,0.0,0.0,0.0,0.0,0.0,0.0,0.0,0.0,0.0,0.0,0.0,0.0,0.0,0.0,0.0,0.0,0.0,0.0,0.0,0.0,0.0,0.0,0.0,0.0,0.0,0.0,0.0,0.0,0.0,0.0,0.0,0.0,0.0,0.0,0.0,0.0,0.0,0.0,0.0,0.0,0.0,0.0,0.0,0.0,0.0,0.0,0.0,0.0,0.0,0.0,0.0,0.0,0.0,0.0,0.0,0.0,0.0,0.0,0.0,0.0,0.0,0.0,0.0,0.0,0.0,0.0,0.0,0.0,0.0,0.0,0.0,0.0,0.0,1.2112,1.4775,1.9009,2.0253,2.097,2.1377,1.9683,1.6837,1.2661,1.1187,0.0,0.0,0.0,0.0,0.0,0.0,0.0,0.0,0.0,0.0,0.0,0.0,0.0,0.0,0.0,0.0,0.0,0.0,0.0,0.0,0.0,0.0,0.0,0.0,0.0,0.0,0.0,0.0,0.0,0.0,0.0,0.0,0.0,0.0,0.0,0.0,0.0,0.0,0.0,0.0,0.0,0.0,0.0,0.0,0.0,0.0,0.0,0.0,0.0,0.0,0.0,0.0,0.0,0.0,0.0,0.0,0.0,0.0,0.0,0.0,0.0,0.0,0.0,0.0,0.0,0.0,0.0,0.0,0.0,0.0,0.0,0.0,0.0,0.0,0.0,0.0,0.0,0.0,0.0,0.0,0.0,0.0,0.0,0.0,0.0,0.0,0.0,0.0,0.0,0.0,0.0,0.0,0.0,0.0,0.0,0.0,0.0,0.0,0.0,0.0,0.0,0.0,1.5016,1.7657,1.9525,2.0484,2.1012,2.1068,1.8759,1.5821,1.2398,1.0127,0.0,0.0,0.0,0.0,0.0,0.0,0.0,0.0,0.0,0.0,0.0,0.0,0.0,0.0,0.0,0.0,0.0,0.0,0.0,0.0,0.0,0.0,0.0,0.0,0.0,0.0,0.0,0.0,0.0,0.0,0.0,0.0,0.0,0.0,0.0,0.0,0.0,0.0,0.0,0.0,0.0,0.0,0.0,0.0,0.0,0.0,0.0,0.0,0.0,0.0,0.0,0.0,0.0,0.0,0.0,0.0,0.0,0.0,0.0,0.0,0.0,0.0,0.0,0.0,0.0,0.0,0.0,0.0,0.0,0.0,0.0,0.0,0.0,0.0,0.0,0.0,0.0,0.0,0.0,0.0,0.0,0.0,0.0,0.0,0.0,0.0,0.0,0.0,0.0,0.0,0.0,0.0,0.0,0.0,0.0,0.0,0.0,0.0,0.0,0.0,0.0,0.0,1.6213,1.9315,1.8915,1.9758,2.0133,1.9593,1.6501,1.3716,1.1693,0.8624,0.0,0.0,0.0,0.0,0.0,0.0,0.0,0.0,0.0,0.0,0.0,0.0,0.0,0.0,0.0,0.0,0.0,0.0,0.0,0.0,0.0,0.0,0.0,0.0,0.0,0.0,0.0,0.0,0.0,0.0,0.0,0.0,0.0,0.0,0.0,0.0,0.0,0.0,0.0,0.0,0.0,0.0,0.0,0.0,0.0,0.0,0.0,0.0,0.0,0.0,0.0,0.0,0.0,0.0,0.0,0.0,0.0,0.0,0.0,0.0,0.0,0.0,0.0,0.0,0.0,0.0,0.0,0.0,0.0,0.0,0.0,0.0,0.0,0.0,0.0,0.0,0.0,0.0,0.0,0.0,0.0,0.0,0.0,0.0,0.0,0.0,0.0,0.0,0.0,0.0,0.0,0.0,0.0,0.0,0.0,0.0,0.0,0.0,0.0,0.0,0.0,0.0,1.582,1.8555,1.9949,2.0559,2.0667,2.0252,1.8079,1.524,1.1722,0.0,0.0,0.0,0.0,0.0,0.0,0.0,0.0,0.0,0.0,0.0,0.0,0.0,0.0,0.0,0.0,0.0,0.0,0.0,0.0,0.0,0.0,0.0,0.0,0.0,0.0,0.0,0.0,0.0,0.0,0.0,0.0,0.0,0.0,0.0,0.0,0.0,0.0,0.0,0.0,0.0,0.0,0.0,0.0,0.0,0.0,0.0,0.0,0.0,0.0,0.0,0.0,0.0,0.0,0.0,0.0,0.0,0.0,0.0,0.0,0.0,0.0,0.0,0.0,0.0,0.0,0.0,0.0,0.0,0.0,0.0,0.0,0.0,0.0,0.0,0.0,0.0,0.0,0.0,0.0,0.0,0.0,0.0,0.0,0.0,0.0,0.0,0.0,0.0,0.0,0.0,0.0,0.0,0.0,0.0,0.0,0.0,0.0,0.0,0.0,0.0,0.0,1.3159,1.601,1.8541,2.0319,2.0709,2.0595,2.0011,1.7895,1.5035,1.142,0.0,0.0,0.0,0.0,0.0,0.0,0.0,0.0,0.0,0.0,0.0,0.0,0.0,0.0,0.0,0.0,0.0,0.0,0.0,0.0,0.0,0.0,0.0,0.0,0.0,0.0,0.0,0.0,0.0,0.0,0.0,0.0,0.0,0.0,0.0,0.0,0.0,0.0,0.0,0.0,0.0,0.0,0.0,0.0,0.0,0.0,0.0,0.0,0.0,0.0,0.0,0.0,0.0,0.0,0.0,0.0,0.0,0.0,0.0,0.0,0.0,0.0,0.0,0.0,0.0,0.0,0.0,0.0,0.0,0.0,0.0,0.0,0.0,0.0,0.0,0.0,0.0,0.0,0.0,0.0,0.0,0.0,0.0,0.0,0.0,0.0,0.0,0.0,0.0,0.0,0.0,0.0,0.0,0.0,0.0,0.0,0.0,0.0,0.0,0.0,0.0,0.0,1.3322,1.7095,1.97,1.9714,1.9908,1.9578,1.8509,1.5181,1.24,0.0,0.0,0.0,0.0,0.0,0.0,0.0,0.0,0.0,0.0,0.0,0.0,0.0,0.0,0.0,0.0,0.0,0.0,0.0,0.0,0.0,0.0,0.0,0.0,0.0,0.0,0.0,0.0,0.0,0.0,0.0,0.0,0.0,0.0,0.0,0.0,0.0,0.0,0.0,0.0,0.0,0.0,0.0,0.0,0.0,0.0,0.0,0.0,0.0,0.0,0.0,0.0,0.0,0.0,0.0,0.0,0.0,0.0,0.0,0.0,0.0,0.0,0.0,0.0,0.0,0.0,0.0,0.0,0.0,0.0,0.0,0.0,0.0,0.0,0.0,0.0,0.0,0.0,0.0,0.0,0.0,0.0,0.0,0.0,0.0,0.0,0.0,0.0,0.0,0.0,0.0,0.0,0.0,0.0,0.0,0.0,0.0,0.0,0.0,0.0,0.0,0.0,0.0,1.3907,1.7353,2.0012,2.0803,2.0873,2.0354,1.9139,1.7282,1.4571,1.0734,0.0,0.0,0.0,0.0,0.0,0.0,0.0,0.0,0.0,0.0,0.0,0.0,0.0,0.0,0.0,0.0,0.0,0.0,0.0,0.0,0.0,0.0,0.0,0.0,0.0,0.0,0.0,0.0,0.0,0.0,0.0,0.0,0.0,0.0,0.0,0.0,0.0,0.0,0.0,0.0,0.0,0.0,0.0,0.0,0.0,0.0,0.0,0.0,0.0,0.0,0.0,0.0,0.0,0.0,0.0,0.0,0.0,0.0,0.0,0.0,0.0,0.0,0.0,0.0,0.0,0.0,0.0,0.0,0.0,0.0,0.0,0.0,0.0,0.0,0.0,0.0,0.0,0.0,0.0,0.0,0.0,0.0,0.0,0.0,0.0,0.0,0.0,0.0,0.0,0.0,0.0,0.0,0.0,0.0,0.0,0.0,0.0,0.0,0.0,0.0,0.0,0.0,1.4463,1.7611,2.0053,2.0938,2.0553,1.9787,1.8685,1.7061,1.4761,1.163,0.0,0.0,0.0,0.0,0.0,0.0,0.0,0.0,0.0,0.0,0.0,0.0,0.0,0.0,0.0,0.0,0.0,0.0,0.0,0.0,0.0,0.0,0.0,0.0,0.0,0.0,0.0,0.0,0.0,0.0,0.0,0.0,0.0,0.0,0.0,0.0,0.0,0.0,0.0,0.0,0.0,0.0,0.0,0.0,0.0,0.0,0.0,0.0,0.0,0.0,0.0,0.0,0.0,0.0,0.0,0.0,0.0,0.0,0.0,0.0,0.0,0.0,0.0,0.0,0.0,0.0,0.0,0.0,0.0,0.0,0.0,0.0,0.0,0.0,0.0,0.0,0.0,0.0,0.0,0.0,0.0,0.0,0.0,0.0,0.0,0.0,0.0,0.0,0.0,0.0,0.0,0.0,0.0,0.0,0.0,0.0,0.0,0.0,0.0,0.0,0.0,0.0,1.49,1.7766,1.9822,2.0369,1.9464,1.8515,1.7763,1.5568,1.3879,1.3056,0.0,0.0,0.0,0.0,0.0,0.0,0.0,0.0,0.0,0.0,0.0,0.0,0.0,0.0,0.0,0.0,0.0,0.0,0.0,0.0,0.0,0.0,0.0,0.0,0.0,0.0,0.0,0.0,0.0,0.0,0.0,0.0,0.0,0.0,0.0,0.0,0.0,0.0,0.0,0.0,0.0,0.0,0.0,0.0,0.0,0.0,0.0,0.0,0.0,0.0,0.0,0.0,0.0,0.0,0.0,0.0,0.0,0.0,0.0,0.0,1.4499,1.2453,0.0,0.0,0.0,0.0,0.0,0.0,0.0,0.0,0.0,0.0,0.0,0.0,0.0,0.0,0.0,0.0,0.0,0.0,0.0,0.0,0.0,0.0,0.0,0.0,0.0,0.0,0.0,0.0,0.0,0.0,0.0,0.0,0.0,0.0,0.0,0.0,0.0,0.0,0.0,0.0,1.4368,1.7128,1.922,1.9809,1.9363,1.9093,1.9217,1.7224,1.5551,1.458,1.3221,0.0,0.0,0.0,0.0,0.0,0.0,0.0,0.0,0.0,0.0,0.0,0.0,0.0,0.0,0.0,0.0,0.0,0.0,0.0,0.0,0.0,0.0,0.0,0.0,0.0,0.0,0.0,0.0,0.0,0.0,0.0,0.0,0.0,0.0,0.0,0.0,0.0,0.0,0.0,0.0,0.0,0.0,0.0,0.0,0.0,0.0,0.0,0.0,0.0,0.0,0.0,0.0,0.0,0.0,0.0,0.0,0.0,0.0,0.0,1.6817,1.5378,0.0,0.0,0.0,0.0,0.0,0.0,0.0,0.0,0.0,0.0,0.0,0.0,0.0,0.0,0.0,0.0,0.0,0.0,0.0,0.0,0.0,0.0,0.0,0.0,0.0,0.0,0.0,0.0,0.0,0.0,0.0,0.0,0.0,0.0,0.0,0.0,0.0,0.0,0.0,0.0,1.5413,1.7644,1.9203,1.9513,1.9285,1.9116,1.9163,1.7354,1.6186,1.6107,1.4388,0.0,0.0,0.0,0.0,0.0,0.0,0.0,0.0,0.0,0.0,0.0,0.0,0.0,0.0,0.0,0.0,0.0,0.0,0.0,0.0,0.0,0.0,0.0,0.0,0.0,0.0,0.0,0.0,0.0,0.0,0.0,0.0,0.0,0.0,0.0,0.0,0.0,0.0,0.0,0.0,0.0,0.0,0.0,0.0,0.0,0.0,0.0,0.0,0.0,0.0,0.0,0.0,0.0,2.2715,2.274,2.3001,2.2734,2.2644,2.2512,2.0425,1.9741,1.9904,1.6593,0.0,0.0,0.0,0.0,0.0,0.0,0.0,0.0,0.0,0.0,0.0,0.0,0.0,0.0,0.0,0.0,0.0,0.0,0.0,0.0,0.0,0.0,1.8775,2.0867,2.1634,2.0917,1.7366,0.0,0.0,0.0,0.0,0.0,0.0,0.0,0.0,0.0,0.0,0.0,1.6959,1.8475,1.9385,1.9518,1.9267,1.9031,1.8825,1.724,1.6617,1.7478,1.5283,1.4252,0.0,0.0,0.0,0.0,0.0,0.0,0.0,0.0,0.0,0.0,0.0,0.0,0.0,0.0,0.0,0.0,0.0,0.0,0.0,0.0,0.0,0.0,0.0,0.0,0.0,0.0,0.0,0.0,0.0,0.0,0.0,0.0,1.3925,1.5502,0.0,0.0,0.0,0.0,0.0,0.0,0.0,0.0,0.0,0.0,0.0,0.0,0.0,2.1747,2.4168,2.5733,2.7105,2.8281,2.9693,2.9852,2.8965,2.9022,2.91,2.9029,2.6834,0.0,2.1803,1.9809,0.0,0.0,0.0,0.0,0.0,0.0,0.0,0.0,0.0,0.0,0.0,0.0,0.0,0.0,0.0,0.0,0.0,0.0,0.0,0.0,0.0,0.0,2.3923,2.5268,2.4916,2.4103,2.3535,2.0183,1.7021,1.6136,1.5624,1.479,0.0,0.0,0.0,0.0,0.0,0.0,1.7963,1.8712,1.9358,1.9962,1.9459,1.9244,1.9614,1.8404,1.7853,1.8389,1.7015,1.6233,1.6341,1.5031,0.0,0.0,0.0,0.0,0.0,0.0,0.0,0.0,0.0,0.0,0.0,0.0,0.0,0.0,0.0,0.0,0.0,0.0,0.0,0.0,0.0,0.0,0.0,0.0,0.0,0.0,0.0,0.0,0.0,1.4051,1.6427,1.7843,1.7994,1.7476,0.0,0.0,0.0,0.0,0.0,0.0,0.0,0.0,0.0,2.3997,2.4926,2.6648,2.931,3.0385,3.1522,3.2659,3.2777,3.2725,3.2502,3.2028,3.1853,3.1813,3.0957,2.9453,2.7386,2.3956,2.2571,2.2331,0.0,0.0,0.0,0.0,1.9759,2.0055,2.2403,2.3582,2.4011,2.3651,0.0,0.0,0.0,0.0,0.0,0.0,0.0,1.9886,2.1383,2.357,2.5834,2.7663,2.799,2.7808,2.7426,2.5096,2.2183,1.9223,1.8338,1.7434,1.5373,1.5139,0.0,0.0,0.0,1.8017,1.9165,2.0038,2.0522,2.0448,2.037,2.0279,2.0163,1.8974,1.8501,1.9108,1.7562,1.6799,1.7196,1.6657,1.5975,0.0,0.0,0.0,0.0,0.0,0.0,0.0,0.0,0.0,0.0,0.0,0.0,0.0,0.0,0.0,0.0,0.0,0.0,0.0,0.0,0.0,0.0,0.0,0.0,0.0,0.0,0.0,0.0,1.6481,1.907,2.02,2.1289,2.1212,0.0,0.0,0.0,0.0,0.0,0.0,2.3393,2.4347,2.5994,2.8603,2.9627,3.1248,3.3548,3.4018,3.4737,3.5717,3.4567,3.4306,3.4789,3.3802,3.3357,3.3357,3.3384,3.3022,3.2072,2.7704,2.5883,2.5726,2.4375,2.3614,2.336,2.4276,2.4447,2.4574,2.717,2.8073,2.8082,2.7822,2.7142,2.5918,2.3344,0.0,0.0,0.0,0.0,2.2476,2.438,2.5993,2.7642,2.9684,3.0428,3.0463,2.9787,2.8612,2.6526,2.2634,2.1342,2.0231,1.8002,1.7316,0.0,1.7887,1.8652,1.9598,2.0769,2.1325,2.1469,2.1137,2.1078,2.0877,2.0454,1.9403,1.9014,1.961,1.8065,1.7383,1.7936,1.7967,1.7446,1.6415,0.0,0.0,0.0,0.0,0.0,0.0,0.0,0.0,0.0,0.0,0.0,0.0,0.0,0.0,0.0,0.0,0.0,0.0,0.0,0.0,0.0,0.0,0.0,0.0,0.0,0.0,0.0,0.0,0.0,2.2016,2.6061,0.0,0.0,0.0,0.0,2.2934,2.4475,2.6478,2.8765,3.0464,3.2137,3.3953,3.462,3.5273,3.5926,3.5966,3.6292,3.6907,3.5757,3.5495,3.5979,3.4829,3.4306,3.428,3.3811,3.3792,3.3793,3.0381,2.9484,2.9924,2.6477,2.6211,2.7761,2.7695,2.8051,2.8814,3.0569,3.1182,3.1382,3.2616,3.1709,2.9607,2.688,2.556,0.0,0.0,2.3984,2.6197,2.7019,2.8695,3.054,3.1921,3.1782,3.1166,3.0479,2.9355,2.7976,2.6397,2.4491,2.2615,2.0958,0.0,2.1023,1.9932,2.0775,2.1913,2.3003,2.2082,2.1544,2.2159,2.1103,2.0387,2.0477,1.9856,1.9546,1.9783,1.9025,1.8599,1.8661,1.8661,1.8629,1.855,1.7304,0.0,0.0,0.0,0.0,0.0,0.0,0.0,0.0,0.0,0.0,0.0,0.0,0.0,0.0,0.0,0.0,0.0,0.0,0.0,0.0,0.0,0.0,0.0,0.0,0.0,0.0,0.0,0.0,2.5862,2.8573,0.0,2.7066,2.7117,2.7574,2.8177,2.9836,3.1509,3.3064,3.4437,3.5443,3.6057,3.6658,3.7063,3.726,3.726,3.7377,3.7573,3.6384,3.5913,3.607,3.492,3.4397,3.4384,3.4188,3.4125,3.4059,3.2995,3.2681,3.2795,3.1521,3.1528,3.2266,3.2662,3.2949,3.3286,3.4323,3.4383,3.3981,3.3537,3.2628,3.1428,3.0012,2.972,2.9535,2.7965,2.8827,3.0197,3.0012,3.0828,3.1813,3.2275,3.2213,3.1967,3.1736,3.0654,2.9704,2.9633,2.6969,2.4524,2.386,2.3539,2.3091,2.2233,2.2836,2.3376,2.3297,2.3255,2.2978,2.2382,2.1874,2.1263,2.0502,1.9854,1.9749,2.0333,1.9326,1.8914,1.9404,1.942,1.942,1.942,1.9341,1.8298,0.0,0.0,0.0,0.0,0.0,0.0,0.0,0.0,0.0,0.0,0.0,0.0,0.0,0.0,0.0,0.0,0.0,0.0,0.0,0.0,0.0,0.0,0.0,0.0,0.0,2.4131,2.7462,2.8976,3.1681,3.2841,3.1169,3.1484,3.2111,3.296,3.445,3.5574,3.6149,3.7063,3.7495,3.7312,3.7691,3.79,3.79,3.7704,3.7599,3.7586,3.6397,3.5835,3.5796,3.4842,3.4397,3.4439,3.4716,3.4821,3.4862,3.5024,3.5159,3.5204,3.4812,3.4878,3.5244,3.566,3.583,3.5891,3.6338,3.6199,3.566,3.4475,3.3798,3.3306,3.2656,3.2764,3.2906,3.2028,3.2244,3.2628,3.2182,3.2228,3.2398,3.2398,3.2398,3.2336,3.2105,3.1366,3.0812,3.1012,2.8402,2.6031,2.5729,2.4918,2.401,2.3102,2.3148,2.3117,2.2671,2.3009,2.2855,2.175,2.1827,2.1556,2.0517,1.9636,1.9592,2.068,1.9436,1.9105,2.0099,1.9688,1.9435,1.9435,1.902,1.8406,1.7572,0.0,0.0,0.0,0.0,0.0,0.0,0.0,0.0,0.0,0.0,0.0,0.0,0.0,0.0,0.0,0.0,0.0,0.0,0.0,0.0,0.0,0.0,0.0,2.3822,2.9006,3.2267,3.1188,3.5605,3.7639,3.4829,3.6083,3.709,3.709,3.8122,3.8514,3.7952,3.8449,3.8488,3.7926,3.79,3.79,3.79,3.7325,3.7037,3.7024,3.5874,3.5325,3.5299,3.4672,3.4397,3.4439,3.5305,3.5936,3.6304,3.6462,3.6852,3.7161,3.5923,3.5863,3.6492,3.6492,3.6492,3.6492,3.6492,3.6492,3.6384,3.5752,3.5537,3.5429,3.4767,3.4566,3.4551,3.452,3.3983,3.3429,3.3383,3.289,3.2398,3.2398,3.2398,3.2213,3.1551,3.1424,3.1197,3.0571,2.8842,2.7257,2.6618,2.5349,2.3979,2.2644,2.1889,0.0,2.1396,2.1381,2.1119,2.0443,2.0949,2.1144,2.0556,1.9262,1.9155,2.0699,1.9468,1.9326,2.0731,1.9498,1.8801,1.8801,1.6337,1.651,1.95,0.0,0.0,0.0,0.0,0.0,0.0,0.0,0.0,0.0,0.0,0.0,0.0,0.0,0.0,0.0,0.0,0.0,0.0,0.0,0.0,0.0,2.6862,2.9532,2.9525,3.2059,3.4708,3.6927,3.8454,3.905,3.8253,3.8606,3.8893,3.8893,3.9547,3.952,3.854,3.9037,3.8919,3.7926,3.79,3.79,3.79,3.7743,3.7652,3.7639,3.6449,3.5874,3.5848,3.4855,3.4397,3.4439,3.5305,3.5888,3.6296,3.7061,3.7312,3.7157,3.6352,3.6224,3.6492,3.6492,3.6492,3.6492,3.6492,3.6492,3.6461,3.6276,3.6215,3.6184,3.603,3.5938,3.5737,3.4782,3.4351,3.3966,3.2936,3.2536,3.2398,3.2398,3.2398,3.2336,3.2151,3.1747,3.1474,3.1797,3.0243,2.8796,2.8611,2.7857,2.6826,2.5456,2.5124,2.4646,2.3609,2.3471,2.3025,2.1874,2.2351,2.2145,2.0634,2.0634,2.0734,2.0794,2.0655,2.0623,2.0795,2.0905,2.095,2.095,1.927,1.8799,0.0,0.0,0.0,0.0,0.0,0.0,0.0,0.0,0.0,0.0,0.0,0.0,0.0,0.0,0.0,0.0,0.0,0.0,0.0,0.0,0.0,0.0,3.0822,3.4092,3.5187,3.647,3.7952,3.973,4.0592,4.0853,4.037,4.054,4.0579,4.0344,4.0618,4.0396,3.9468,3.9547,3.9194,3.8266,3.8018,3.79,3.79,3.7403,3.7155,3.7142,3.5953,3.5391,3.5365,3.4698,3.4592,3.4991,3.5856,3.6529,3.7164,3.7919,3.8004,3.7554,0.0,0.0,0.0,0.0,3.6492,3.6492,3.6492,3.6492,3.6492,3.6492,3.6492,3.6492,3.6492,3.6492,3.6322,3.5568,3.4936,3.432,3.3503,3.2829,3.2398,3.2398,3.2398,3.2475,3.2752,3.2275,3.2013,3.269,3.1428,0.0,3.0243,2.875,2.7103,2.5718,2.5272,2.4702,2.3594,2.3717,2.3363,2.2028,2.2509,2.2384,2.107,2.0559,0.0,0.0,0.0,2.0372,2.0342,2.0712,0.0,0.0,0.0,1.9286,1.9985,1.9171,0.0,0.0,1.878,1.8167,0.0,0.0,0.0,0.0,0.0,0.0,0.0,0.0,0.0,0.0,0.0,0.0,0.0,0.0,0.0,0.0,3.343,3.7063,4.0174,4.1023,4.1141,4.0671,4.1925,4.2435,4.1415,4.1768,4.186,4.135,4.1311,4.1023,4.0357,3.9873,0.0,0.0,0.0,3.7835,3.79,3.6711,3.6136,3.6188,3.5123,3.4656,3.4656,3.466,3.5101,3.5896,3.6699,3.7572,3.8458,3.8928,3.8796,3.817,3.7612,3.7015,3.6492,3.6492,3.6492,3.6492,3.6492,0.0,0.0,3.6492,3.6492,3.6492,3.6492,3.6492,3.6476,3.6399,3.5537,3.4597,3.452,3.3581,3.2628,3.2628,3.2567,3.2675,3.3275,3.2875,3.2567,3.3167,3.2259,3.1409,3.1409,2.8821,2.6287,2.4964,2.4194,2.3517,2.284,2.3194,2.304,2.18,2.2241,0.0,2.1682,2.0015,1.9672,2.1197,2.0111,1.9596,2.0017,2.0004,1.9488,1.8472,1.8438,1.9172,2.0653,2.0653,2.1371,2.263,1.9597,1.9,0.0,0.0,0.0,0.0,0.0,0.0,0.0,0.0,0.0,0.0,0.0,0.0,0.0,0.0,0.0,3.4907,3.803,4.054,4.1664,4.1533,4.1442,4.1781,4.1716,4.1559,4.1337,4.1415,4.1442,4.1324,4.1311,4.0867,3.9821,3.9664,3.9141,3.8096,3.7482,3.7416,3.79,3.6711,3.6345,3.6815,3.634,0.0,3.6086,3.6342,3.6503,3.6724,3.7686,3.8302,3.8723,3.9672,3.9428,3.8319,3.7169,3.6599,3.6492,3.6492,3.6492,3.6492,3.6492,3.6492,3.6492,3.6492,3.6492,3.6492,3.6492,3.6492,0.0,3.583,3.5521,3.5198,3.4643,3.4305,3.4104,3.4104,3.3629,3.3244,3.3367,3.2875,3.2428,3.2567,3.1936,3.1409,3.1409,2.9966,2.855,2.7734,2.7042,2.6349,2.5619,2.5158,2.4646,2.3946,2.4017,2.3425,2.1833,2.2066,2.2017,2.1342,2.1294,2.154,2.2106,2.1854,2.1732,2.1769,2.1781,2.1932,2.2268,2.2268,2.2406,2.2681,2.2031,2.1898,0.0,0.0,0.0,0.0,0.0,0.0,0.0,0.0,0.0,0.0,0.0,2.692,2.8347,0.0,3.6113,3.7534,3.9995,4.1938,4.2513,4.186,4.1415,4.1703,4.1742,4.1625,4.135,4.1572,4.1625,4.1337,4.1311,4.0932,4.0056,3.9756,3.9207,3.8331,3.7756,3.7456,3.7456,3.6554,3.6328,3.6734,3.6302,3.6293,3.6709,3.6825,3.719,3.7686,3.8175,3.8774,3.937,3.9621,3.9447,3.8877,3.7523,3.6799,3.6492,3.6492,3.6492,3.6492,3.6492,3.6492,3.6492,3.6492,3.6492,3.6492,3.6492,3.6492,3.6415,3.6076,3.5753,3.5429,3.5106,3.4751,3.4505,3.4505,3.4227,3.3937,3.3937,3.3398,3.2906,3.2906,3.2351,3.1983,3.2262,3.1462,3.0373,2.9083,2.8334,2.7657,2.6949,2.6758,2.6262,2.5118,2.495,2.4381,2.312,2.3192,2.2861,2.1831,2.2056,2.2385,2.2685,2.2531,2.2531,2.2699,2.2699,2.2699,2.2699,2.2699,2.2699,2.2699,2.2699,2.2699,0.0,0.0,0.0,0.0,0.0,0.0,0.0,0.0,2.5093,2.7335,2.9483,3.1434,3.2957,3.6261,3.8906,3.9455,4.1115,4.2461,4.2814,4.1964,4.1272,4.1154,4.1651,4.1768,4.1193,4.1559,4.1598,4.1023,4.0984,4.0723,4.0122,3.9808,3.9425,3.882,3.833,3.7891,3.7506,3.6671,3.6414,3.6743,3.6344,3.6531,3.7165,3.7319,3.7852,3.8649,3.8723,3.9277,4.0056,3.9616,3.9404,3.9216,3.8123,3.72,3.6492,3.6492,3.6492,3.6492,3.6492,3.6492,3.6492,3.6492,3.6492,3.6492,3.6492,3.6492,3.6492,3.6492,3.6107,3.5676,3.5676,3.5306,3.489,3.489,3.4797,3.4705,3.4705,3.3998,3.3426,3.354,3.2996,3.2722,3.3277,3.28,3.1801,3.0127,2.9233,2.8542,2.7938,2.8007,2.7642,2.6345,2.5871,2.5352,2.4605,2.3829,2.3146,2.2547,2.263,2.2699,2.2699,2.2699,2.2699,2.2699,2.2699,2.2699,2.2699,2.2699,2.2699,2.2699,2.2699,2.2699,1.6296,1.6748,1.8204,2.1267,2.18,2.3607,0.0,0.0,3.1655,3.5034,3.6718,3.7874,3.8559,4.0357,4.1873,4.2448,4.2762,4.2775,4.233,4.1716,4.1115,4.0579,4.105,4.1167,4.0579,4.0566,4.0383,3.9847,3.9795,3.9534,3.8932,3.9607,3.9775,3.9154,3.8862,3.8922,3.9298,3.7641,3.7107,3.7636,3.7829,3.7962,3.8075,3.8797,3.9286,3.9559,3.993,4.0211,4.0455,4.0378,3.9674,3.8616,3.8462,3.7615,3.6492,3.6492,3.6492,3.6492,3.6492,3.6492,3.6492,3.6492,3.6492,3.6492,3.6492,3.6492,3.6492,3.6492,3.6445,3.6384,3.6384,3.6322,3.6261,3.6261,3.5814,3.5398,3.5398,3.4337,3.3524,3.4023,3.3565,3.3277,3.3818,3.3363,3.2636,3.1757,3.0688,2.9887,2.9579,2.8744,2.8318,2.8665,2.7623,2.6467,2.5446,2.4157,2.3454,2.3612,2.3047,2.2699,2.2699,2.2699,2.2699,2.2699,2.2699,2.2699,2.2699,2.2699,2.2699,2.2699,2.2699,2.2699,2.1873,2.2349,2.3289,0.0,2.8609,3.0573,3.5283,3.5984,3.6228,3.8507,3.9651,4.0305,4.0553,4.1729,4.2631,4.2539,4.2526,4.2448,4.2251,4.1102,4.0109,3.9494,3.9364,3.9494,3.9899,3.9625,3.9468,3.9599,3.9612,3.9351,3.8736,3.9232,3.9257,3.8691,3.8685,3.8625,3.8527,3.7796,3.7636,3.803,3.8167,3.8501,3.909,3.943,3.9732,4.0051,4.0296,4.047,4.0459,4.0074,3.9582,3.9016,3.8231,3.7584,3.703,3.663,3.6492,3.6492,3.6492,3.6492,3.6492,3.6492,3.6492,3.6492,3.6492,3.6492,3.6492,3.6492,3.6492,3.6492,3.6492,3.6492,3.6585,3.6952,3.6824,3.6615,3.6552,3.5737,3.4993,3.4819,3.4188,3.3843,3.4382,3.4234,3.3893,3.3483,3.2171,3.1057,3.0512,3.037,2.9955,2.9024,2.8072,2.6958,2.5611,2.5171,2.4633,2.3839,2.3509,2.3147,2.2716,2.2699,2.2699,2.2699,2.3129,2.3336,2.3336,2.3336,2.3336,2.3336,2.2905,2.2699,2.4715,0.0,0.0,3.1134,3.3747,3.5955,3.801,3.8973,3.9719,4.0673,4.1115,4.1311,4.1311,4.186,4.2278,4.2238,4.2081,4.1925,4.1925,4.0448,3.9076,3.8331,3.7469,3.7325,3.8331,3.8305,3.8344,3.8619,3.9023,3.9104,3.8668,3.9282,3.9442,3.9057,3.9095,3.8899,3.8535,3.831,3.8318,3.8538,3.8538,3.8943,3.9696,4.002,4.0183,4.0327,4.067,4.0566,4.0182,3.969,3.9259,3.8862,3.7877,3.7384,3.7169,3.6676,3.6492,3.6492,3.6492,3.6492,3.6492,3.6492,3.6492,3.6492,3.6492,3.6492,3.6492,3.6492,3.6616,3.6754,3.6754,3.6861,3.7118,3.7533,3.765,3.7623,3.7575,3.6848,3.6097,3.5759,3.4895,3.4407,3.4927,3.5045,3.504,3.4878,3.3862,3.2753,3.1725,3.1853,3.1251,2.9216,2.8558,2.7641,2.6128,2.6059,2.5611,2.4508,2.425,2.3888,2.3353,2.3112,2.3009,2.3009,2.3526,2.3802,2.3802,2.4026,2.4129,2.4129,2.3578,2.3319,2.2572,2.4627,2.7533,3.1867,3.5043,3.7762,4.0212,4.1486,4.212,4.2159,4.169,4.1311,4.1311,4.0867,4.0867,4.2028,4.1703,4.135,4.135,3.9847,3.8318,3.7194,3.5547,3.475,3.5365,3.641,3.6828,3.6253,3.7605,3.8437,3.8423,4.0038,4.094,4.0926,4.0554,4.0338,4.0323,3.9695,3.9367,3.9337,3.9337,3.9481,3.9747,4.0771,4.0888,4.0342,4.1208,4.0801,3.9521,3.949,3.8739,3.7569,3.7523,3.7092,3.6522,3.6507,3.6492,3.6492,3.6492,3.6492,3.6492,3.6492,3.6492,3.6492,3.6492,3.6492,3.6492,3.6492,3.6922,3.7387,3.7387,3.7825,3.8266,3.8266,3.8278,3.8278,3.8262,3.7161,3.6348,3.6851,3.5778,3.4951,3.547,3.5689,3.5773,3.5761,3.5837,3.5253,3.3537,3.289,3.1777,2.9696,2.9472,2.8851,2.7369,2.654,2.6077,2.6025,2.5367,2.4954,2.4936,2.4181,2.3767,2.3767,2.3802,2.3802,2.3802,2.4577,2.4971,2.4971,2.4936,2.4936,2.6971,2.977,3.2539,3.6019,3.8582,4.0728,4.2502,4.2814,4.2513,4.1755,3.9599,3.7521,3.6397,3.5704,3.5796,3.7364,3.8423,3.9442,4.0566,4.0484,3.935,3.6906,3.7055,3.6782,3.5329,3.5372,3.5877,3.6895,3.7933,3.8727,3.9171,4.0326,4.1007,4.1007,4.103,4.1055,4.1055,4.0831,4.0726,4.0711,4.0549,4.0349,4.0152,4.1051,4.1096,4.0482,4.1258,4.1063,4.012,3.9674,3.9213,3.8754,3.7861,3.7353,3.7107,3.6661,3.6492,3.6492,3.6492,3.6492,3.6492,3.6492,3.6492,3.6569,3.6983,3.7104,3.7178,3.7592,3.7838,3.7982,3.7982,3.8153,3.839,3.8794,3.8892,3.9001,3.9401,3.8729,3.7962,3.7658,3.68,3.6053,3.5791,3.5773,3.5839,3.591,3.51,3.4284,3.3806,3.2667,3.1512,3.0403,3.03,2.9679,2.8161,2.7782,2.7195,2.6146,2.5868,2.5523,2.5023,2.4747,2.4594,2.4594,2.5077,2.5335,2.5335,2.5594,2.5715,2.573,2.5229,2.5005,3.0259,3.3224,3.5716,3.9051,4.1157,4.2618,4.3402,4.3127,4.2095,3.9899,3.7194,3.4502,3.2163,3.1248,3.1561,3.3705,3.5168,3.6975,3.9673,3.9903,3.9278,3.7798,3.8028,3.7726,0.0,3.5833,3.608,3.7126,3.8625,3.9566,3.9792,4.0862,4.1488,4.1488,4.1445,4.1422,4.1422,4.122,4.1055,4.0904,4.081,4.072,4.0679,4.1315,4.134,4.0905,4.1401,4.1063,4.0105,3.9659,3.9351,3.9077,3.82,3.7707,3.7446,3.7015,3.6707,3.6492,3.6492,3.6492,3.6492,3.6492,3.6631,3.6892,3.7268,3.7549,3.7796,3.821,3.8463,3.8629,3.8629,3.8794,3.9038,3.9444,3.9523,3.9644,4.002,3.9537,3.8853,3.8396,3.7513,3.6695,3.6271,3.6054,3.5971,3.6105,3.4819,3.3859,3.39,3.2801,3.1688,3.08,3.0437,2.9765,2.8506,2.8161,2.7575,2.6592,2.654,2.6316,2.5833,2.5557,2.5402,2.5402,2.5853,2.6094,2.6094,2.6385,2.654,2.6523,2.604,2.5816,3.2431,3.4978,3.7189,4.0925,4.2669,4.3371,4.301,4.2396,4.0772,3.6711,3.4384,3.2006,2.8569,2.7622,2.8289,3.1181,3.2411,3.4497,3.8931,3.8612,3.8461,0.0,0.0,0.0,0.0,0.0,3.7465,3.713,3.9557,4.0829,4.0251,4.1626,4.2455,4.2455,4.1841,4.1512,4.1527,4.1084,4.064,4.0102,4.0344,4.0771,4.1306,4.1576,4.1663,4.1601,4.1632,4.0863,3.9536,3.9536,3.92,3.8616,3.8569,3.8138,3.7554,3.7507,3.7076,3.6492,3.6554,3.6554,3.6554,3.6554,3.6952,3.7431,3.746,3.7883,3.8334,3.8362,3.8794,3.9259,3.9259,3.967,4.0096,4.0096,4.0096,4.0096,4.0096,3.9554,3.9039,3.9005,3.7865,3.6905,3.6905,3.6532,3.6229,3.628,3.5042,3.4056,3.392,3.3213,3.2257,3.0903,3.0075,2.9299,2.8523,2.7799,2.7368,2.7299,2.7299,2.7299,2.7299,2.6575,2.6161,2.6176,2.6161,2.6161,2.6176,2.6935,2.7299,2.7299,2.7313,2.7313,3.6485,3.9042,4.0949,4.3648,4.3536,4.2761,4.2462,3.9926,3.675,3.3533,2.9121,2.5066,2.2465,2.3752,2.6169,2.9164,3.3532,0.0,4.1251,4.2856,0.0,4.1643,0.0,4.2529,4.0716,4.1285,4.1329,4.0324,4.0446,4.0916,4.1772,4.2598,4.309,4.309,4.2886,4.2929,4.31,4.3151,4.2674,4.1702,4.2279,4.219,4.1546,4.2617,4.2525,4.1632,4.2125,4.1571,4.0243,4.0243,4.0136,3.992,3.9428,3.8846,3.8185,3.7692,3.7076,3.6554,3.7013,3.7178,3.7178,3.7178,3.7578,3.8153,3.8618,3.8838,3.9055,3.9523,3.9747,3.9867,3.9867,3.9995,4.0096,4.0096,4.0096,4.0096,4.0096,3.996,3.9673,3.9106,3.7936,3.708,3.7192,3.6689,3.628,3.6301,3.5042,3.4093,3.4056,3.2865,3.1919,3.1558,3.1334,3.0679,2.9334,2.9058,2.8472,2.7368,2.7299,2.7299,2.7299,2.7092,2.7095,2.7285,2.7095,2.7095,2.7285,2.7303,2.7299,2.7297,2.7511,2.76,3.9474,4.1792,4.3531,4.4555,4.3786,4.219,4.0043,3.6959,3.3183,2.8082,2.421,2.104,1.8837,2.0847,2.4019,0.0,0.0,0.0,4.1339,4.3228,4.4078,0.0,4.473,0.0,4.2836,4.3329,4.3344,4.2312,4.1893,4.1878,4.2366,4.297,4.3344,4.3463,4.3463,4.3485,4.3509,4.3624,4.3281,4.2441,4.2824,4.28,4.2479,4.294,4.274,4.2048,4.2125,4.154,4.0489,4.0489,4.0489,4.0459,4.0074,3.9691,3.929,3.8588,3.8106,3.7782,3.7791,3.7969,3.8141,3.7883,3.821,3.8767,3.9098,3.9391,3.967,3.9995,4.0096,4.0096,4.0096,4.0096,4.0096,4.0096,4.0096,4.0096,4.0096,4.0096,3.9918,3.9312,3.8628,3.8003,3.7467,3.709,3.6697,3.6353,3.5042,3.4113,3.4113,3.2748,3.18,3.18,3.1507,3.0817,2.961,2.9213,2.8523,2.7368,2.7299,2.736,2.7465,2.7465,2.76,2.7869,2.7745,2.773,2.7869,2.7713,2.7642,2.7657,2.7815,2.7869,4.1851,4.3711,4.5093,4.46,4.3555,4.1468,3.6828,3.368,2.9604,2.218,1.984,1.8601,1.6888,1.8907,2.2265,2.6772,0.0,3.4784,4.067,4.2,4.336,4.6013,4.5873,4.5304,4.4646,4.4496,4.4167,4.3469,4.3349,4.309,4.256,4.303,4.3423,4.369,4.3769,4.3676,4.341,4.3448,4.3238,4.274,4.2833,4.311,4.3593,4.3079,4.2771,4.2571,4.2093,4.1403,4.0646,4.0715,4.0783,4.0783,4.0783,4.0702,4.0579,3.9913,3.9551,3.934,3.8861,3.8931,3.9109,3.8601,3.8821,3.9312,3.9312,3.9696,4.0096,4.0096,4.0096,4.0096,4.0096,4.0096,4.0096,4.0096,4.0096,4.0096,4.0096,4.0096,4.0026,3.9648,3.9521,3.9106,3.7848,3.7564,3.7236,3.6422,3.5128,3.4217,3.4113,3.2748,3.18,3.18,3.1231,3.0524,2.973,2.8989,2.8246,2.7535,2.7412,2.7465,2.7728,2.7742,2.7883,2.8156,2.8129,2.8129,2.817,2.8129,2.8102,2.8102,2.8143,2.817,4.4343,4.5072,4.5239,4.5327,4.3101,3.9664,3.5077,3.0174,0.0,0.0,1.7058,1.5582,1.5898,1.8355,2.233,2.8516,3.1662,3.5599,4.2019,4.3518,4.4512,0.0,4.6696,4.6696,4.5995,4.5454,4.4855,4.4197,4.3604,4.3245,4.3125,4.323,4.3423,4.369,4.4026,4.4182,4.4152,4.4289,4.4064,4.3439,4.4009,4.404,4.3624,4.4071,4.3648,4.2638,4.3075,4.2504,4.1376,4.1917,4.2141,4.2141,4.2141,4.1803,4.1313,4.117,4.0404,3.9543,4.0532,4.0117,3.9162,3.9082,3.9444,3.9927,3.9927,4.002,4.0096,4.0096,4.0096,4.0096,4.0096,4.0096,4.0096,4.0096,4.0096,4.0096,4.0096,4.0188,4.0303,4.0453,3.9952,3.9261,3.8537,3.7909,3.7236,3.6422,3.5559,3.4783,3.4182,3.2748,3.18,3.18,3.1679,3.13,3.0558,2.9765,2.9088,2.8561,2.7962,2.7742,2.802,2.8034,2.817,2.8513,2.8237,2.8242,2.8507,2.8242,2.8102,2.8116,2.8373,2.8507,4.3769,4.4701,4.5236,4.4446,4.1886,3.7972,3.2053,0.0,0.0,0.0,1.5194,1.4833,1.5301,1.8028,0.0,2.6092,2.9438,3.3514,3.9388,4.113,4.2895,4.5963,4.6292,4.6127,4.5813,4.5484,4.4885,4.3843,4.3903,4.3848,4.3533,4.3699,4.3728,4.351,4.38,4.3951,4.3951,4.3688,4.3556,4.3608,4.3556,4.3556,4.3624,4.3947,4.3731,4.3129,4.3466,4.3006,4.2046,4.2363,4.252,4.252,4.252,4.2527,4.2488,4.2111,4.1527,4.1006,4.1648,4.0893,3.972,4.0122,4.0187,4.0096,4.0096,4.0096,4.0096,4.0096,4.0163,4.0188,4.0138,4.0163,4.0188,4.0113,4.0163,4.0213,4.0271,4.0412,4.0551,4.0673,4.0435,3.9887,3.8784,3.8323,3.7685,3.6473,3.585,3.5384,3.5035,3.379,3.2651,3.189,3.18,3.158,3.1011,3.061,3.0167,2.97,2.934,2.929,2.9602,2.9616,2.9551,2.9424,2.9263,2.9063,2.8803,2.8651,2.857,2.857,2.8725,2.8803,4.2914,4.4193,4.5049,4.3428,4.0664,3.6503,2.9427,2.5539,0.0,1.4882,1.4213,1.4927,1.5293,1.7503,2.026,0.0,2.6129,2.9924,3.5744,3.7853,4.0516,0.0,4.5589,0.0,4.5708,4.5469,4.487,4.3863,4.4238,4.4322,4.3784,4.4089,4.4037,4.354,4.3574,4.3608,4.3608,4.2925,4.2863,4.3393,4.2978,4.3102,4.3598,4.3904,4.3988,4.3849,4.3986,4.3635,4.2966,4.2974,4.2939,4.2939,4.2939,4.3273,4.3668,4.309,4.2736,4.2557,4.2726,4.1721,4.0468,4.1204,4.0815,4.0096,4.0096,4.0096,4.0113,4.0121,4.0213,4.028,4.0163,4.0238,4.0313,4.0196,4.0263,4.0387,4.051,4.0624,4.0697,4.0745,4.084,4.0435,3.897,3.8871,3.843,3.6797,3.6472,3.6298,3.5962,3.5101,3.4001,3.2666,3.2229,3.19,3.1575,3.1396,3.117,3.0858,3.069,3.0746,3.107,3.1088,3.0888,3.0467,3.0283,2.9886,2.9262,2.9078,2.9005,2.9005,2.9189,2.9354,4.3668,4.4479,4.4526,4.3323,4.0116,3.5505,2.8799,0.0,2.1012,1.5367,1.4521,1.5162,1.6337,1.6353,1.7832,2.2814,0.0,2.5091,3.2781,3.5534,3.8467,4.312,0.0,0.0,4.707,4.6007,4.5327,4.5397,4.474,4.4227,4.3988,4.4166,4.4251,4.419,4.382,4.3608,4.3608,4.2925,4.2633,4.2694,4.3267,4.3551,4.363,4.4909,4.5187,4.4608,4.5225,4.5113,4.4492,4.4452,4.4412,4.4412,4.4412,4.444,4.4497,4.4429,4.3922,4.3392,4.4158,4.2929,4.1221,4.1948,4.1264,4.0096,4.0096,4.0096,4.0138,4.0238,4.0288,4.0305,4.0263,4.0387,4.0485,4.0485,4.0485,4.051,4.0648,4.0697,4.0745,4.0864,4.0888,4.0528,3.9367,3.975,3.9578,3.7677,3.7985,3.7933,3.6524,3.6256,3.5845,3.4973,3.3586,3.2697,3.2658,3.2048,3.1739,3.1942,3.1315,3.107,3.1347,3.1359,3.1335,3.1286,3.0577,3.0173,3.0099,2.9354,2.9005,2.9023,2.9739,3.0485,4.0109,4.2464,4.3806,4.2505,3.9568,3.522,2.8685,0.0,2.06,1.5624,1.5027,1.5425,1.5545,1.5694,1.6608,0.0,0.0,0.0,2.7859,3.0477,3.4188,4.0801,4.2626,0.0,0.0,4.6067,4.5524,4.5424,4.5105,4.4748,4.4374,4.4435,4.4104,4.3306,4.3104,4.2989,4.3001,4.2278,4.2362,4.318,4.3035,4.3183,4.3632,4.4655,4.4952,4.4698,4.5408,4.5299,4.4632,4.4603,4.4615,4.4615,4.4615,4.4615,4.4615,4.4615,4.4079,4.3511,4.4316,4.3413,4.1982,4.2726,4.2252,4.1264,4.0367,4.0163,4.0238,4.0263,4.0362,4.0412,4.0412,4.0461,4.0534,4.0583,4.0624,4.0673,4.0793,4.0817,4.0918,4.1192,4.126,4.1068,4.0447,4.06,4.0377,3.9129,3.9426,3.9392,3.8292,3.792,3.7471,3.6669,3.5181,3.432,3.4528,3.4271,3.403,3.387,3.357,3.3241,3.2852,3.2834,3.2614,3.2137,3.1812,3.1421,3.0907,3.0595,3.0448,3.0448,3.076,3.1347,3.6303,3.9597,4.172,4.1153,3.8325,3.4058,0.0,0.0,1.9851,1.5415,1.5035,1.535,1.4886,1.535,1.5934,0.0,0.0,1.9119,2.4059,2.6797,3.0731,3.7285,0.0,4.1543,4.4836,4.5616,4.5743,4.5336,4.517,4.4926,4.4603,4.4613,4.4072,4.2925,4.271,4.2599,4.2597,4.2087,4.2285,4.3266,4.2951,4.3191,4.3957,4.4882,4.5294,4.5263,4.5793,4.5613,4.4891,4.4699,4.4615,4.4615,4.4615,4.4615,4.4615,4.4615,4.4231,4.3842,4.4412,4.3724,4.2709,4.325,4.2787,4.1841,4.079,4.0713,4.0891,4.0523,4.0639,4.0832,4.0658,4.0737,4.0857,4.0772,4.0769,4.0817,4.1018,4.1088,4.1209,4.1644,4.1713,4.1616,4.13,4.147,4.1311,4.0382,4.0491,4.0468,3.9921,3.939,3.8927,3.8597,3.738,3.6389,3.5921,3.5879,3.5735,3.5412,3.5151,3.4857,3.4541,3.4064,3.366,3.3316,3.2839,3.232,3.1751,3.1525,3.1397,3.1415,3.1641,3.2192,3.3037,3.5924,3.7762,3.9116,3.6198,3.1679,0.0,2.236,1.8597,1.4619,1.4333,1.4811,1.4811,1.535,1.5799,1.5814,0.0,0.0,2.2164,2.5548,2.8858,0.0,3.5474,3.8567,4.146,4.453,4.6009,4.5336,4.4857,4.4625,4.461,4.4575,4.4272,4.3593,4.2942,4.2597,4.2582,4.2527,4.2489,4.2537,4.3166,4.3926,4.4752,4.6135,4.6786,4.6786,4.6786,4.638,4.5635,4.4919,4.4615,4.4615,4.4615,4.4615,4.4615,4.4615,4.4598,4.4598,4.4615,4.4062,4.3375,4.3392,4.2485,4.141,4.1376,4.1912,4.2236,4.1035,4.1229,4.1648,4.1054,4.1326,4.1631,4.1037,4.0912,4.1012,4.1401,4.1494,4.1626,4.2095,4.2177,4.2069,4.1648,4.2302,4.2468,4.1267,4.1095,4.1095,4.1077,4.0377,4.0194,4.0967,4.0341,3.8891,3.6505,3.6285,3.6285,3.6285,3.5481,3.5371,3.6229,3.4688,3.4174,3.4968,3.3408,3.2601,3.2583,3.1788,3.1397,3.1415,3.2228,3.3023,2.6204,2.8823,3.0499,3.0839,2.9087,2.6247,2.2342,1.9515,1.6968,1.4333,1.4038,1.4242,1.4188,1.4771,1.5522,1.6352,1.7029,0.0,0.0,0.0,0.0,3.4271,4.0728,4.5206,4.6138,4.6808,4.6923,4.6247,4.561,4.5316,4.5342,4.4445,4.3815,4.3604,4.3379,4.3267,4.3221,4.319,4.3439,4.3931,4.415,4.437,4.4668,4.5616,4.5771,4.5326,4.5821,4.5635,4.4925,4.4699,4.4615,4.4615,4.4615,4.4615,4.4615,4.4615,4.4615,4.4615,4.4615,4.4418,4.4242,4.4336,4.4068,4.3656,4.333,4.2304,4.1199,4.081,4.1302,4.1746,4.0958,4.1343,4.1833,4.1411,4.1305,4.1423,4.1885,4.1969,4.2115,4.2595,4.2673,4.2735,4.2867,4.3121,4.3192,4.2801,4.2745,4.2543,4.1992,4.1699,4.1442,4.1132,4.0377,3.9588,3.8817,3.8267,3.7716,3.7162,3.6868,3.6578,3.6303,3.522,3.4747,3.5004,3.3959,3.3421,3.3421,3.3164,3.3036,3.3054,3.3867,3.438,0.0,2.3745,2.5314,2.5946,2.4602,0.0,1.9585,1.7268,1.5209,1.3442,1.3365,1.3697,1.3902,1.4533,1.532,1.6335,1.7061,1.8329,0.0,0.0,0.0,3.4516,4.1147,4.5406,4.5666,4.6638,4.7068,4.6687,4.6034,4.5651,4.5709,4.4593,4.3973,4.3973,4.3733,4.3551,4.3512,4.3781,4.415,4.4615,4.4615,4.475,4.501,4.55,4.5449,4.5026,4.55,4.528,0.0,4.4615,4.4615,4.4615,4.4615,4.4615,4.4615,4.4615,4.4615,4.4615,4.4615,4.4626,4.4682,4.4776,4.4671,4.4431,4.3915,4.2565,4.1302,4.1886,4.2383,4.2599,4.2053,4.2433,4.2812,4.2331,4.199,4.1885,4.2358,4.2458,4.2614,4.3032,4.3142,4.3214,4.3463,4.3515,4.3515,4.3515,4.3239,4.2983,4.2782,4.2488,4.2213,4.2029,4.1295,4.0799,4.0799,3.9515,3.8615,3.8429,3.7841,3.7419,3.7202,3.6101,3.5481,3.5481,3.5,3.4578,3.4252,3.4252,3.4252,3.4266,3.4454,3.4546,0.0,2.0093,2.1503,0.0,0.0,0.0,1.7713,1.5468,0.0,1.2158,1.2455,1.3183,1.3943,1.46,1.53,1.6148,1.6893,1.8049,2.0005,2.3456,2.7947,3.377,3.8279,4.1131,4.1653,4.4773,4.6777,4.6777,4.6102,4.5726,4.5776,4.5026,4.4624,4.4671,4.3939,4.3571,4.3571,4.4253,4.4615,4.4615,4.4615,4.4942,4.5618,4.5618,4.5618,4.5618,4.5618,4.5229,4.4615,4.4615,4.4615,4.4615,4.4615,4.4615,4.4615,4.4615,4.4615,4.4615,4.4598,4.4709,4.4803,4.4858,4.4546,4.4062,4.361,4.2832,4.2427,4.3861,4.4154,4.3997,4.3891,4.4174,4.4307,4.3549,4.2777,4.2378,4.2844,4.2939,4.305,4.3427,4.3515,4.3515,4.3515,4.3515,4.3515,4.3515,4.2855,4.2653,4.3387,4.2837,4.2671,4.3423,4.2782,4.2323,4.2378,4.023,3.9166,3.9845,3.8502,3.7988,3.867,3.7202,3.6376,3.6376,3.6321,3.5899,3.5096,3.5096,3.5059,3.4986,3.4215,3.3844,1.3316,0.0,1.4263,1.4697,1.4375,1.3843,0.0,1.2883,1.2418,1.2052,0.0,1.2899,1.4539,1.5008,1.6031,1.8708,2.0126,2.1405,2.2849,2.9159,3.4972,3.8545,4.3116,4.5635,4.4777,4.6426,4.7561,4.7561,4.6415,4.5944,4.6519,4.5326,4.4853,4.5408,4.4742,4.4338,4.4338,4.4514,4.4615,4.4615,4.4615,4.4699,4.4869,4.4869,4.4869,4.4869,4.4869,4.4767,4.4615,4.4615,4.4615,4.4615,4.4615,4.4615,4.4615,4.4615,4.4615,4.4598,4.4709,4.4776,4.4896,4.5468,4.5212,4.4886,4.577,4.4824,4.3518,4.3885,4.4606,4.5009,4.3817,4.4007,4.4246,4.3248,4.2875,4.2863,4.3268,4.3357,4.3392,4.3479,4.3515,4.3515,4.3515,4.3515,4.3515,4.3515,4.3332,4.3277,4.3478,4.3331,4.3277,4.3478,4.2782,4.2543,4.3167,4.157,4.0359,3.9918,3.9549,3.9129,3.8726,3.7734,3.7217,3.7217,3.6611,3.6193,3.5991,3.5991,3.5646,3.5004,3.4821,3.438,1.1837,1.2276,1.2718,1.2718,1.2779,1.2814,1.2814,0.0,0.0,0.0,0.0,0.0,1.4847,1.5542,1.6836,1.9713,2.1952,2.4347,2.7392,3.2511,3.7078,4.0195,4.3701,4.5952,4.6198,4.7186,4.7696,4.7369,4.665,4.6242,4.6283,4.5226,4.4771,4.5179,4.4818,4.4615,4.4615,4.4615,4.4615,4.4615,4.4615,4.4615,4.4615,4.4615,4.4615,4.4615,4.4615,4.4615,4.4615,4.4615,4.4615,4.4615,4.4615,4.4615,4.4615,4.4615,4.4776,4.5025,4.5106,4.5363,4.5751,4.6213,4.61,4.5947,4.6674,4.6279,4.5539,4.5349,4.5659,4.5885,4.5,4.4965,4.4892,4.3943,4.3433,4.3214,4.3444,4.3515,4.3515,4.3515,4.3515,4.3515,4.3515,4.3515,4.3515,4.3515,4.3515,4.3515,4.3515,4.3515,4.3515,4.3515,4.3112,4.302,4.346,4.269,4.1864,4.1038,4.0653,4.0267,3.9811,3.9019,3.8429,3.8046,3.7257,3.7019,3.7404,3.6652,3.6064,3.5573,3.4802,3.4229,1.199,1.2989,1.3927,1.373,1.3873,1.4046,1.3953,0.0,0.0,0.0,0.0,0.0,0.0,1.6887,0.0,2.1061,2.4106,2.7855,3.2588,3.5197,3.7637,4.0451,4.2872,4.4964,4.6526,4.7391,4.7648,4.7002,4.6744,4.6363,4.5737,4.4993,4.4615,4.4615,4.4615,4.4615,4.4615,4.4615,4.4615,4.4615,4.4615,4.4615,4.4615,4.4615,4.4615,4.4615,4.4733,4.4716,4.4615,4.4733,4.4699,4.4615,4.4615,4.4654,4.472,4.472,4.5115,4.5622,4.5673,4.6147,4.6753,4.6954,4.6932,4.6861,4.7035,4.7306,4.7467,4.719,4.6952,4.6719,4.6551,4.6298,4.5847,4.4911,4.4176,4.3662,4.3533,4.3515,4.3515,4.3515,4.3515,4.3515,4.3515,4.3515,4.3515,4.3515,4.3515,4.3515,4.3515,4.3515,4.3515,4.3515,4.3515,4.3515,4.3515,4.3515,4.3221,4.2525,4.1735,4.1224,4.1113,4.0451,3.9698,3.8909,3.8208,3.815,3.8765,3.7386,3.6679,3.6555,3.515,3.4413,1.2501,1.3665,1.447,1.3397,1.3973,1.471,1.4181,0.0,0.0,0.0,0.0,0.0,0.0,2.0847,2.3192,2.6228,3.0201,3.4007,3.7178,3.9914,4.1585,4.1529,4.4916,4.6913,4.6114,4.7161,4.7868,4.772,4.6574,4.5821,4.572,4.4993,4.4615,4.4615,4.4615,4.4615,4.4615,4.4615,4.4615,4.4615,4.4615,4.4615,4.4615,4.4615,4.4615,4.4632,4.5263,4.5179,4.4649,4.5263,4.5162,4.4615,4.4615,4.4824,4.5214,4.532,4.5716,4.6213,4.643,4.6683,4.6954,4.7356,4.7033,4.668,4.7755,4.7657,4.7311,4.7912,4.8059,4.7861,4.7165,4.6965,4.6526,4.504,4.4617,4.4342,4.3662,4.3515,4.3515,4.3515,4.3515,4.3515,4.3515,4.3515,4.3515,4.3515,4.3515,4.3515,4.3515,4.3515,4.3515,4.3515,4.3515,4.3515,4.3515,4.3515,4.346,4.3331,4.2561,4.1809,4.1132,4.0967,4.0543,3.9717,3.9588,3.9359,3.9031,3.879,3.8444,3.7997,3.7735,3.7204,1.2234,1.3338,1.4472,1.4638,1.5141,1.556,1.5459,1.5215,0.0,0.0,0.0,0.0,0.0,2.34,2.672,3.2374,3.5498,3.8161,4.0922,4.2106,4.3025,4.3869,4.5667,4.6847,4.6985,4.7548,4.7551,4.6786,4.5703,4.4925,4.4485,4.3758,4.3379,4.3379,4.3379,4.3379,4.3379,4.3741,4.4164,4.4615,4.4615,4.4615,4.4615,4.4615,4.4615,4.4632,4.4942,4.5292,4.5658,4.5973,4.6096,4.6064,4.6064,4.597,4.59,4.6353,4.6682,4.6968,4.7403,4.7591,4.7692,4.7915,4.772,4.7541,4.812,4.8049,4.7828,4.8214,4.8306,4.8122,4.7314,4.7094,4.6801,4.5645,4.5021,4.4617,4.4232,4.3809,4.3515,4.3515,4.3515,4.3515,4.3515,4.3515,4.3515,4.3515,4.3515,4.3515,4.3515,4.3515,4.3515,4.3515,4.3515,4.3515,4.3515,4.3515,4.3515,4.3515,4.3316,4.2839,4.2007,4.2139,4.1853,4.1049,4.103,4.0677,3.996,3.9537,3.8965,3.8286,3.7829,3.7389,1.2108,1.297,1.4062,1.52,0.0,1.6684,1.8064,1.7902,0.0,0.0,0.0,0.0,0.0,2.6743,3.067,3.7317,3.9724,4.1663,4.4264,4.42,4.4521,4.6174,4.6219,4.6505,4.7537,4.7496,4.6853,4.5534,4.4739,4.3961,4.32,4.2608,4.2286,4.2286,4.2286,4.2286,4.2286,4.2861,4.3538,4.4316,4.4513,4.4513,4.4344,4.4513,4.4513,4.4361,4.4839,4.5494,4.6253,4.6541,4.6795,4.7018,4.7018,4.6797,4.6601,4.7338,4.7611,4.7695,4.8152,4.8306,4.8306,4.8306,4.8306,4.8306,4.8306,4.8306,4.8306,4.8306,4.8306,4.8159,4.7535,4.7369,4.7168,4.6379,4.5571,4.4984,4.4984,4.4342,4.3773,4.3773,4.392,4.3938,4.357,4.3644,4.3718,4.3533,4.3515,4.3515,4.3515,4.3515,4.3513,4.3599,4.3615,4.3649,4.3714,4.3712,4.3712,4.3712,4.3952,4.3793,4.3137,4.3348,4.3096,4.2301,4.2081,4.1581,4.0797,3.9993,3.93,3.8761,3.8074,3.7764,1.2761,1.3039,1.3237,1.3521,1.5322,1.8177,2.2646,2.3138,0.0,2.6789,0.0,0.0,0.0,3.2349,3.6016,3.9403,4.2368,4.5026,4.7254,4.7545,4.7578,4.7727,4.7149,4.6773,4.687,4.6261,4.5534,4.475,4.3944,4.3166,4.2422,4.232,4.2286,4.2286,4.2286,4.2286,4.2286,4.2337,4.2743,4.3494,4.4231,4.4198,4.3494,4.4248,4.4181,4.3599,4.5514,4.5991,4.5467,4.6663,4.6768,4.6186,4.6186,4.659,4.7216,4.7893,4.8189,4.823,4.8287,4.8306,4.8306,4.8306,4.8306,4.8306,4.8306,4.8306,4.8306,4.8306,4.8306,4.8306,4.8233,4.8214,4.8012,4.7204,4.6416,4.581,4.581,4.5186,4.4617,4.4617,4.5223,4.5241,4.3772,4.4121,4.436,4.3608,4.3515,4.3515,4.3515,4.3515,4.3615,4.3942,4.3974,4.406,4.4299,4.4346,4.4346,4.4346,4.436,4.4337,4.428,4.4308,4.3946,4.3133,4.2312,4.1619,4.1075,4.026,3.9969,4.0148,4.0091,4.0053,1.2509,1.4415,1.6429,1.6844,1.8763,0.0,0.0,2.4378,2.6689,2.9752,3.1521,0.0,0.0,3.6472,3.9073,4.1136,4.3217,4.5196,4.6972,4.7225,4.7225,4.7225,4.6972,4.643,4.5529,4.519,4.4485,4.325,4.2455,4.1914,4.1627,4.117,4.0942,4.0942,4.0942,4.0942,4.0942,4.139,4.1885,4.2475,4.3245,4.3681,4.3878,4.4492,4.4637,4.4394,4.5699,4.6553,4.7075,4.7546,4.7773,4.7787,4.7423,4.7506,4.7854,4.8151,4.8286,4.8306,4.8306,4.8306,4.8306,4.8306,4.8306,4.8306,4.8306,4.8306,4.8306,4.8306,4.8306,4.8306,4.8306,4.8306,4.8233,4.7921,4.6856,4.6049,4.6526,4.5608,4.4856,4.5351,4.5296,4.4966,4.436,4.4085,4.3846,4.3551,4.3682,4.3814,4.3814,4.3968,4.4099,4.4236,4.425,4.4289,4.4383,4.4546,4.465,4.465,4.465,4.465,4.465,4.485,4.4832,4.4509,4.4186,4.3661,4.29,4.211,4.1483,4.1036,4.053,4.0301,1.2467,1.4982,1.7756,1.8431,0.0,0.0,2.5028,2.6735,2.9218,3.3193,3.5026,3.6163,3.7015,3.8589,4.0163,4.1407,4.3284,4.5122,4.6583,4.6599,4.6363,4.6126,4.5872,4.5229,4.4005,4.3887,4.3345,4.2049,4.1491,4.1102,4.0865,4.0383,4.0096,4.0096,4.0096,4.0171,4.0328,4.0814,4.1422,4.2122,4.2543,4.3058,4.3657,4.4495,4.4751,4.4617,4.5846,4.6867,4.7752,4.7953,4.8279,4.8566,4.8209,4.811,4.8207,4.8286,4.8306,4.8306,4.8306,4.8306,4.8306,4.8306,4.8306,4.8306,4.8306,4.8306,4.8306,4.8306,4.8306,4.8306,4.8306,4.8306,4.8306,4.8306,4.726,4.6507,4.7296,4.6415,4.5608,4.6177,4.5828,4.5314,4.4923,4.4404,4.3976,4.3814,4.3983,4.4121,4.4121,4.4275,4.4425,4.4519,4.463,4.4682,4.4682,4.4843,4.4957,4.4957,4.4957,4.4957,4.4957,4.5184,4.5307,4.5307,4.5029,4.4609,4.4006,4.3195,4.2488,4.1896,4.1361,4.1084,1.2827,1.4473,1.6399,1.7351,0.0,0.0,3.1441,3.0938,3.1416,3.7722,3.9005,3.8802,3.8075,3.8531,3.9276,3.9995,4.2625,4.5106,4.6549,4.6143,4.5399,4.4682,4.3876,4.3115,4.2354,4.2286,4.1982,4.1238,4.1187,4.0865,4.0146,4.0096,4.0096,4.0096,4.0096,4.0328,4.0802,4.0802,4.1424,4.2577,4.2342,4.2339,4.2647,4.4196,4.4477,4.391,4.599,4.689,4.6954,4.7636,4.7945,4.8012,4.8148,4.8187,4.8207,4.8286,4.8306,4.8306,4.8306,4.8306,4.8306,4.8306,4.8306,4.8306,4.8306,4.8306,4.8306,4.8306,4.8306,4.8306,4.8306,4.8306,4.8306,4.8306,4.7681,4.7314,4.8122,4.7663,4.7094,4.7094,4.7094,4.6691,4.5426,4.5212,4.5007,4.4473,4.4397,4.4397,4.4416,4.4416,4.4506,4.4776,4.5109,4.5307,4.5307,4.5307,4.5307,4.5307,4.5307,4.5307,4.5307,4.5307,4.5307,4.5307,4.4456,4.4006,4.4006,4.3195,4.2813,4.2794,4.2794,4.2794,1.5191,1.8605,2.2317,2.3641,0.0,0.0,0.0,3.4199,0.0,0.0,4.0223,4.0933,3.9673,4.0476,4.139,4.161,4.2828,4.391,4.4367,4.4231,4.3809,4.3064,4.276,4.2337,4.1593,4.1525,4.1221,4.0485,4.0434,4.0333,4.0113,4.0096,4.0096,4.0096,4.0427,4.0676,4.0802,4.1116,4.1626,4.2328,4.2243,4.2525,4.3123,4.3963,4.4217,4.4076,4.5243,4.6098,4.6696,4.7544,4.7986,4.813,4.8187,4.8246,4.8286,4.8287,4.8306,4.8306,4.8306,4.8306,4.8306,4.8306,4.8306,4.8306,4.8306,4.8306,4.8306,4.8306,4.8306,4.8306,4.8306,4.8306,4.8306,4.8306,4.7681,4.7168,4.7388,4.7278,4.7169,4.742,4.7454,4.724,4.6517,4.5937,4.5292,4.4515,4.4559,4.477,4.5,4.5042,4.5065,4.5132,4.5246,4.5526,4.6099,4.5621,4.5545,4.6118,4.5602,4.5307,4.5307,4.5307,4.5307,4.5307,4.5048,4.4914,4.4914,4.4055,4.3348,4.2794,4.2794,4.2469,1.6317,2.0422,2.4914,2.6691,3.0632,3.468,3.6874,0.0,0.0,0.0,4.1356,4.2016,4.1153,4.1457,4.1863,4.1863,4.2489,4.2963,4.2963,4.2963,4.2692,4.1948,4.1863,4.1559,4.0832,4.0747,4.0561,4.013,4.0096,4.0096,4.0096,4.0296,4.0377,4.0377,4.0832,4.118,4.1343,4.163,4.2015,4.2478,4.2478,4.2709,4.3158,4.3815,4.4095,4.4168,4.533,4.619,4.6779,4.7658,4.8107,4.8228,4.8228,4.8267,4.8306,4.8306,4.8306,4.8306,4.8306,4.8306,4.8306,4.8306,4.8306,4.8306,4.8306,4.8306,4.8306,4.8306,4.8306,4.8306,4.8306,4.8306,4.8306,4.8306,4.792,4.7609,4.7739,4.7776,4.7883,4.8205,4.8026,4.7635,4.7142,4.6401,4.5612,4.4865,4.4898,4.5057,4.5267,4.5307,4.5411,4.5736,4.5774,4.5965,4.6462,4.6061,4.5851,4.6003,4.5564,4.5307,4.5307,4.5307,4.5307,4.5307,4.5307,4.5307,4.5307,4.4762,4.4265,4.3787,4.3787,4.3501,1.6654,2.0628,2.51,2.7587,3.2747,3.776,3.991,4.0916,4.1508,4.1914,4.2202,4.2354,4.2219,4.1711,4.1305,4.1305,4.1863,4.2269,4.2202,4.2202,4.1914,4.1187,4.1102,4.0832,4.018,4.0096,4.0096,4.0096,4.0096,4.0121,4.0171,4.058,4.0825,4.0873,4.1321,4.1782,4.2216,4.2239,4.2478,4.2901,4.2901,4.2901,4.2919,4.3661,4.4006,4.4097,4.5754,4.664,4.6962,4.7767,4.8173,4.8306,4.8306,4.8306,4.8306,4.8306,4.8306,4.8306,4.8306,4.8306,4.8306,4.8214,4.8251,4.8306,4.8214,4.8251,4.8306,4.8306,4.8306,4.8306,4.8344,4.8344,4.8345,4.8383,4.8364,4.8421,4.8688,4.8795,4.8895,4.908,4.8593,4.7947,4.7333,4.6619,4.5957,4.539,4.5307,4.5307,4.5307,4.5354,4.566,4.6328,4.6538,4.6615,4.6615,4.6557,4.6214,4.5564,4.5373,4.5307,4.5307,4.5307,4.5307,4.5307,4.5307,4.5307,4.5307,4.5307,4.5269,4.5182,4.5269,4.5269,1.7912,2.1393,0.0,3.0194,3.5825,4.0679,4.232,4.2801,4.2293,4.0138,4.1559,4.2828,4.166,4.1779,4.2049,4.2049,4.2185,4.21,4.1525,4.1441,4.1153,4.0434,4.035,4.0282,4.013,4.0096,4.0096,4.0096,4.0096,4.0254,4.0628,4.0731,4.0972,4.1343,4.1803,4.2095,4.2198,4.2575,4.2806,4.2901,4.2901,4.2901,4.2919,4.3082,4.3229,4.3376,4.4376,4.5292,4.612,4.6925,4.7678,4.8306,4.8306,4.8306,4.8306,4.8306,4.8306,4.8306,4.8306,4.8306,4.8214,4.7553,4.7791,4.8196,4.7553,4.7791,4.8306,4.8306,4.8306,4.8364,4.8623,4.8676,4.8764,4.9015,4.8883,4.8613,4.8306,4.8759,4.8927,4.7983,4.8175,4.8104,4.6893,4.6538,4.6159,4.5411,4.5307,4.5307,4.5307,4.5851,4.6061,4.5602,4.6748,4.7521,4.7521,4.6901,4.6729,4.7226,4.6023,4.5307,4.5307,4.5307,4.5307,4.5307,4.5307,4.5307,4.5307,4.5307,4.4953,4.4293,4.4972,4.4934,1.8313,2.1887,0.0,3.3305,0.0,4.1491,4.2625,4.2878,4.2439,4.0899,4.2083,4.2936,4.1474,4.1508,4.166,4.1314,4.1264,4.1128,4.0713,4.0663,4.0536,4.0146,4.0096,4.0096,4.0096,4.0096,4.0096,4.0096,4.0303,4.0531,4.0778,4.1225,4.1587,4.1825,4.2279,4.2555,4.2555,4.2787,4.2901,4.2901,4.2901,4.2938,4.2994,4.2994,4.3086,4.3287,4.409,4.4766,4.5352,4.614,4.6965,4.7718,4.7718,4.7957,4.8306,4.8306,4.8306,4.8306,4.8306,4.8048,4.7663,4.7241,4.7369,4.7664,4.7426,4.7904,4.8568,4.8728,4.878,4.8815,4.8982,4.9031,4.9019,4.8983,4.899,4.9017,4.8936,4.9239,4.9381,4.8878,4.8814,4.8457,4.7319,4.6462,4.5774,4.5354,4.5307,4.5307,4.5307,4.6003,4.65,4.65,4.7646,4.8258,4.7845,4.7368,4.6978,4.6634,4.5774,4.5307,4.5307,4.5307,4.5307,4.5307,4.5307,4.5307,4.5307,4.5307,4.5067,4.4628,4.5086,4.5048,1.7771,2.1972,2.7638,3.5385,3.8988,0.0,4.188,4.21,4.21,4.21,4.2608,4.2632,4.1424,4.1102,4.0798,4.0197,4.0096,4.0096,4.0096,4.0096,4.0045,3.9926,4.0028,4.007,4.0051,4.0153,4.0254,4.0353,4.0707,4.0949,4.1042,4.1782,4.2257,4.2318,4.2692,4.2901,4.2901,4.2901,4.2901,4.2901,4.2919,4.3012,4.316,4.316,4.3251,4.3431,4.4108,4.4509,4.4746,4.5424,4.6177,4.6911,4.7058,4.7498,4.8122,4.8251,4.8306,4.8306,4.8306,4.7846,4.7297,4.7224,4.7279,4.7426,4.7627,4.8248,4.8951,4.9206,4.9299,4.9314,4.936,4.9394,4.9299,4.8956,4.9088,4.9334,4.9622,4.9675,4.9721,4.9835,4.9098,4.822,4.7494,4.6328,4.5507,4.5507,4.564,4.5736,4.5736,4.6443,4.7169,4.7731,4.8582,4.8812,4.8086,4.7884,4.7207,4.5812,4.5583,4.543,4.5307,4.5307,4.5307,4.5307,4.5307,4.5307,4.5307,4.5307,4.5307,4.5317,4.5317,4.5317,1.5612,0.0,2.7909,0.0,3.6654,3.887,0.0,0.0,4.1356,4.1356,4.1441,4.1441,4.1238,4.0679,4.0214,4.013,4.0096,4.0096,4.0096,4.0096,3.9859,3.9208,3.9723,4.0016,3.9782,4.0328,4.0896,4.1281,4.137,4.1569,4.199,4.2136,4.2398,4.2806,4.2863,4.2901,4.2901,4.2901,4.2901,4.2901,4.303,4.316,4.3359,4.3359,4.3376,4.3412,4.3504,4.3997,4.4727,4.4837,4.5333,4.614,4.6819,4.7168,4.7333,4.8049,4.8306,4.8306,4.8306,4.8233,4.8069,4.7659,4.8004,4.8501,4.8134,4.8599,4.9237,4.9302,4.9299,4.9378,4.966,4.973,4.9779,5.0011,4.9601,4.9151,4.9186,4.9186,4.8988,4.8266,4.6863,4.5766,4.564,4.6023,4.6347,4.6347,4.6978,4.7463,4.7463,4.822,4.8506,4.7865,4.8582,4.9052,4.8938,4.8239,4.7693,4.7483,4.6768,4.6023,4.5326,4.5307,4.5307,4.5307,4.5307,4.5307,4.5307,4.5307,4.5328,4.5398,4.5398,4.5399,1.6204,2.1059,2.6437,0.0,3.3728,3.6468,3.8311,3.9056,3.936,3.936,3.936,3.9597,4.0426,3.9994,3.9622,4.0028,3.9757,3.9639,4.0045,4.0096,3.9842,3.9089,3.9656,3.999,3.9721,4.0371,4.0995,4.1459,4.1743,4.1973,4.2177,4.2438,4.2692,4.2882,4.2901,4.2683,4.223,4.223,4.2267,4.2359,4.296,4.3323,4.3412,4.3446,4.3464,4.3464,4.3464,4.3664,4.403,4.403,4.4507,4.5259,4.5608,4.6305,4.7131,4.7498,4.7901,4.8325,4.8514,4.8291,4.79,4.7881,4.8124,4.8396,4.8386,4.8942,4.9613,4.9817,4.9857,4.9884,5.0051,5.0076,4.9986,4.9706,4.8984,4.8506,4.8995,4.8716,4.8258,4.7865,4.7196,4.671,4.671,4.6997,4.7234,4.7234,4.754,4.7616,4.712,4.7837,4.8048,4.7169,4.7857,4.8372,4.8372,4.8028,4.7578,4.7101,4.671,4.6148,4.5387,4.5317,4.5309,4.5351,4.5319,4.5317,4.5367,4.5367,4.5379,4.539,4.539,4.54,0.0,0.0,2.3611,2.7013,3.0211,3.3119,0.0,3.6366,3.6924,3.7499,3.7618,3.8007,3.9317,3.9089,3.8903,3.9445,3.9073,3.8903,3.9469,3.9529,3.9308,3.8666,3.9404,3.9857,3.9472,4.0304,4.0976,4.122,4.1767,4.2054,4.2054,4.2403,4.2592,4.2592,4.2393,4.1995,4.1397,4.1434,4.1615,4.1995,4.2739,4.3211,4.3429,4.348,4.3515,4.3515,4.3515,4.3515,4.3515,4.3515,4.3846,4.4415,4.4618,4.5553,4.6819,4.7021,4.748,4.8069,4.862,4.8277,4.7709,4.8341,4.8531,4.8588,4.8933,4.9448,4.9981,5.0224,5.0302,5.0302,5.0302,5.0149,4.9901,4.95,4.8582,4.7933,4.8353,4.8116,4.7753,4.7532,4.7324,4.7259,4.7458,4.7698,4.7909,4.8108,4.8307,4.8154,4.7264,4.7742,4.7799,4.692,4.7207,4.757,4.781,4.7619,4.7229,4.66,4.6562,4.62,4.5418,4.535,4.5341,4.54,4.5351,4.535,4.5409,4.5409,4.5409,4.5429,4.5429,4.5429,0.0,1.6915,0.0,2.3628,2.5929,2.823,0.0,3.3609,3.4252,3.6423,3.6863,3.7077,3.7872,3.799,3.7973,3.8024,3.799,3.7973,3.8024,3.8024,3.7885,3.7541,3.8808,3.946,3.8817,4.0103,4.0869,4.0564,4.1288,4.1722,4.1722,4.1741,4.1759,4.1759,4.1017,4.0601,4.0564,4.0689,4.123,4.2188,4.2243,4.2696,4.3479,4.3497,4.3515,4.3515,4.3515,4.3515,4.3515,4.3515,4.3533,4.3626,4.4415,4.5223,4.6049,4.6819,4.7131,4.7316,4.8416,4.8277,4.7835,4.9249,4.9714,4.9768,5.0111,5.024,5.0278,5.0302,5.0302,5.0302,5.0302,4.9729,4.9328,5.0073,4.9003,4.7578,4.6806,4.7297,4.7624,4.674,4.5991,4.5764,4.6527,4.7392,4.8236,4.892,4.9731,4.9939,4.9071,4.8995,4.8697,4.7826,4.7035,4.6942,4.7826,4.7148,4.6671,4.6684,4.6694,4.6291,4.5438,4.54,4.54,4.54,4.54,4.54,4.54,4.54,4.5429,4.5495,4.5495,4.5522,0.0,0.0,0.0,1.9553,2.1698,2.3848,2.6404,2.845,3.0173,3.1532,3.2919,3.4138,3.4878,3.6214,3.7347,3.7821,3.7499,3.7447,3.8168,3.7849,3.7389,3.7043,3.7467,3.7819,3.7931,3.8859,3.9762,4.0456,4.0764,4.0926,4.0926,4.0926,4.0926,4.0926,4.0637,4.0292,3.9855,4.0045,4.0309,4.0668,4.1744,4.2436,4.2745,4.3259,4.3515,4.3515,4.3515,4.3515,4.3515,4.3515,4.3515,4.3533,4.3809,4.4415,4.5185,4.5689,4.6201,4.6768,4.7556,4.8012,4.8348,4.9112,4.9694,5.0049,4.9648,4.9882,5.0187,4.9671,4.9901,5.0302,5.0302,5.0092,4.9805,4.9576,4.9075,4.8256,4.6859,4.7303,4.7709,4.6797,4.6876,4.7164,4.7459,4.7776,4.8093,4.835,4.9097,4.9135,4.7735,4.8041,4.7839,4.6411,4.5972,4.6146,4.6987,4.6826,4.6684,4.6694,4.6704,4.633,4.5495,4.5419,4.5438,4.5522,4.5495,4.5457,4.5457,4.5457,4.5504,4.5568,4.5568,4.5577,1.3519,0.0,0.0,0.0,1.8319,1.9967,2.1847,2.4388,2.6741,2.796,3.0008,3.1802,3.2527,3.3897,3.5255,3.6231,3.609,3.6103,3.6887,3.6636,3.6328,3.6239,3.6416,3.6658,3.6915,3.7632,3.8402,3.9261,3.9586,3.9858,4.013,4.013,4.0021,3.9766,3.9766,3.9564,3.9172,3.9305,3.966,4.0244,4.1372,4.2176,4.2708,4.3259,4.3515,4.3515,4.3515,4.3515,4.3515,4.3515,4.3515,4.3515,4.3515,4.4061,4.4899,4.5131,4.5595,4.6237,4.7041,4.7497,4.7852,4.8464,4.9022,4.9366,4.8831,4.9232,4.9786,4.9263,4.9671,5.0245,4.9977,4.9901,4.9759,4.9228,4.8909,4.8435,4.7306,4.7356,4.7414,4.6819,4.6964,4.7367,4.7932,4.7808,4.7722,4.7951,4.845,4.8296,4.6876,4.7202,4.7001,4.5553,4.54,4.563,4.6176,4.6273,4.6311,4.633,4.633,4.6081,4.556,4.5495,4.5504,4.5594,4.5559,4.5522,4.5522,4.5522,4.5559,4.5594,4.5594,4.5594,0.0,0.0,0.0,0.0,1.5896,1.6713,1.9299,2.1714,2.4003,2.6131,2.8367,3.0161,3.0939,3.1092,3.1568,3.2987,3.3621,3.395,3.395,3.4213,3.4569,3.501,3.5721,3.6073,3.579,3.6472,3.6941,3.6959,3.772,3.8499,3.9242,3.9332,3.9004,3.8289,3.8289,3.8352,3.8455,3.8491,3.9381,4.1058,4.1095,4.1937,4.3478,4.3496,4.3515,4.3515,4.3515,4.3496,4.3496,4.3496,4.3496,4.3532,4.3513,4.4212,4.5175,4.5172,4.5357,4.5745,4.6857,4.6746,4.6296,4.7396,4.7769,4.7788,4.7769,4.8372,4.9071,4.9071,4.9614,5.0054,4.9301,4.911,4.9102,4.91,4.8541,4.7999,4.7981,4.7338,4.6743,4.6675,4.6118,4.6154,4.7751,4.7376,4.7106,4.7828,4.7953,4.7645,4.679,4.6685,4.6359,4.5506,4.541,4.5429,4.5495,4.5504,4.5522,4.5605,4.5594,4.5594,4.5594,4.5594,4.5594,4.5603,4.5603,4.5603,4.5612,4.5594,4.5594,4.5594,4.5594,4.5603,1.3798,0.0,0.0,0.0,0.0,0.0,1.6812,1.8145,1.9883,2.3155,2.4795,2.6201,2.7911,2.8387,2.8657,2.9056,3.0938,3.2442,3.2719,3.2561,3.2768,3.3738,3.355,3.3758,3.4826,3.5131,3.5512,3.6091,3.687,3.7194,3.6834,3.7388,3.7671,3.7515,3.8107,3.8188,3.7634,3.83,3.9171,4.023,4.0836,4.1644,4.2653,4.3222,4.3515,4.3496,4.3765,4.3862,4.3862,4.3862,4.3862,4.3876,4.4087,4.4236,4.4383,4.4768,4.4951,4.5092,4.5662,4.6096,4.6431,4.6765,4.7292,4.7674,4.7043,4.7474,4.8162,4.8162,4.8323,4.8594,4.9001,4.9108,4.91,4.9154,4.8574,4.7837,4.7252,4.6502,4.5933,4.5915,4.6241,4.6481,4.6327,4.6096,4.6028,4.6222,4.6799,4.6886,4.6011,4.6444,4.6493,4.5581,4.5513,4.5522,4.5504,4.5531,4.5577,4.5594,4.5594,4.5594,4.5594,4.5594,4.5654,4.5742,4.5742,4.5773,4.5821,4.568,4.5594,4.5594,4.5708,4.5761,0.0,0.0,0.0,0.0,0.0,0.0,1.559,1.6774,1.8461,2.09,2.2012,2.3111,2.5008,2.492,2.4791,2.5464,2.7088,2.8893,3.0778,3.1215,3.1606,3.2314,3.1981,3.2071,3.3013,3.3393,3.3936,3.4736,3.5548,3.5946,3.5804,3.6624,3.7121,3.72,3.8042,3.8306,3.7897,3.8438,3.9093,3.9916,4.0726,4.1517,4.2323,4.3281,4.3716,4.3732,4.403,4.4236,4.4318,4.4318,4.4265,4.4177,4.4346,4.4374,4.436,4.4676,4.4879,4.5034,4.5235,4.5602,4.6003,4.6003,4.6347,4.6653,4.6156,4.6596,4.7264,4.7264,4.7275,4.7488,4.8373,4.8356,4.8196,4.8603,4.8077,4.7377,4.6935,4.6183,4.571,4.6067,4.6259,4.6317,4.6163,4.5845,4.5729,4.6086,4.6278,4.6432,4.6624,4.6471,4.6288,4.6108,4.5788,4.5577,4.555,4.5577,4.5594,4.5594,4.5594,4.5629,4.5684,4.5684,4.5723,4.5835,4.5835,4.5852,4.5899,4.577,4.5725,4.5733,4.5815,4.5858,0.0,0.0,0.0,0.0,1.6688,0.0,1.5465,1.6851,1.8614,1.9351,1.9815,2.0552,2.2139,2.129,2.0818,2.2246,2.2953,2.4622,2.8386,2.9876,3.0622,3.0713,3.0803,3.0908,3.0998,3.1636,3.2361,3.3085,3.3882,3.4769,3.5763,3.6458,3.6916,3.7085,3.793,3.8447,3.8579,3.867,3.9093,3.9916,4.0726,4.155,4.2371,4.3474,4.402,4.4064,4.4318,4.4572,4.48,4.4843,4.4688,4.4438,4.4498,4.4612,4.48,4.4843,4.5045,4.5307,4.5307,4.5307,4.5307,4.5307,4.5307,4.5307,4.5307,4.5793,4.6366,4.6377,4.6485,4.6776,4.7571,4.7249,4.6915,4.7693,4.7329,4.68,4.6769,4.6144,4.5825,4.6605,4.6124,4.5845,4.6624,4.6105,4.5893,4.6778,4.624,4.6297,4.7894,4.6721,4.6028,4.6817,4.6124,4.5594,4.5594,4.5594,4.5594,4.5594,4.5612,4.5676,4.58,4.5801,4.5854,4.592,4.593,4.594,4.594,4.5915,4.591,4.592,4.592,4.5925,0.0,0.0,0.0,1.6114,1.7257,0.0,1.6725,1.6772,1.7477,1.8645,1.811,1.7875,1.9264,1.9449,1.9471,1.9794,2.1524,2.3689,2.6145,2.7412,2.8328,2.898,2.9644,3.0292,3.0944,3.1143,3.1306,3.1469,3.2216,3.3633,3.5839,3.5523,3.5634,3.6461,3.7264,3.7716,3.7731,3.8377,3.9093,3.9916,4.0726,4.1625,4.2647,4.3565,4.4121,4.4332,4.4599,4.4751,4.4812,4.5098,4.5011,4.4758,4.5011,4.5,4.4831,4.5109,4.5246,4.5307,4.5307,4.5307,4.5307,4.5307,4.5307,4.5307,4.5307,4.5411,4.5555,4.5607,4.6096,4.6663,4.6935,4.6906,4.6829,4.7059,4.6991,4.6683,4.599,4.5729,4.5652,4.5825,4.5729,4.5652,4.5825,4.571,4.5893,4.6778,4.6759,4.7009,4.7971,4.7259,4.6721,4.6885,4.6124,4.5594,4.5594,4.5594,4.5594,4.5594,4.5708,4.5771,4.5807,4.5853,4.5939,4.6057,4.6173,4.6216,4.6216,4.6,4.5964,4.6057,4.6057,4.6128,0.0,0.0,1.8561,1.8151,1.8319,0.0,0.0,1.6754,1.6726,1.8576,1.7142,1.6254,1.8533,1.7749,1.7002,1.7778,1.8913,2.0346,2.2193,2.4967,2.6952,2.7351,2.7761,2.8323,2.9137,2.9572,3.0147,3.1003,3.1801,3.2819,3.412,3.4615,3.5089,3.56,3.6853,3.7492,3.7492,3.8303,3.8909,3.9313,4.024,4.12,4.214,4.3269,4.4095,4.4612,4.4922,4.5045,4.5057,4.5235,4.5194,4.5076,4.5235,4.5194,4.5076,4.5235,4.5307,4.5307,4.5307,4.5307,4.5307,4.5307,4.5307,4.5307,4.5307,4.5317,4.5348,4.5398,4.5706,4.6062,4.6138,4.6185,4.6213,4.6231,4.624,4.6124,4.5691,4.5594,4.5594,4.5594,4.5594,4.5594,4.5594,4.5594,4.6028,4.7317,4.7154,4.7355,4.8586,4.7682,4.6904,4.6904,4.6124,4.5594,4.5594,4.566,4.5708,4.5708,4.5796,4.5877,4.5958,4.5973,4.6061,4.6206,4.6271,4.63,4.63,4.6173,4.6138,4.6206,4.6206,4.624,1.9297,1.9549,1.98,1.98,1.9264,1.8483,0.0,0.0,0.0,1.796,1.6217,1.525,1.8018,1.6258,1.48,1.606,1.6519,1.7118,1.8265,2.214,2.4893,2.5045,2.5208,2.5679,2.6638,2.7725,2.9,3.0516,3.1397,3.1947,3.2183,3.3616,3.4499,3.4678,3.638,3.7345,3.7492,3.8303,3.8738,3.878,3.9822,4.0789,4.1712,4.3007,4.4066,4.4903,4.5184,4.5307,4.5307,4.5307,4.5307,4.5307,4.5307,4.5307,4.5307,4.5307,4.5307,4.5307,4.5307,4.5307,4.5307,4.5307,4.5307,4.5307,4.5317,4.5348,4.5408,4.5409,4.5458,4.5504,4.5513,4.5559,4.5594,4.5594,4.5594,4.5594,4.5594,4.5594,4.5594,4.5594,4.5594,4.5594,4.5594,4.5594,4.6133,4.7644,4.7317,4.7451,4.8952,4.7836,4.6904,4.6904,4.6124,4.5603,4.5646,4.5734,4.5814,4.5828,4.5892,4.5987,4.6098,4.6112,4.6184,4.63,4.63,4.63,4.63,4.63,4.63,4.63,4.63,4.63,1.9297,2.038,2.0831,1.8009,1.9355,2.0236,1.5892,0.0,1.6428,1.5276,0.0,1.4751,1.5879,0.0,0.0,1.4624,1.585,1.6601,1.6078,1.8307,2.0244,2.0898,2.1595,2.2628,2.4145,2.6309,2.8003,2.8894,2.9775,3.0604,3.138,3.2276,3.314,3.3903,3.555,3.6795,3.7492,3.8303,3.8807,3.9045,3.9904,4.1009,4.2323,4.3204,4.4197,4.5246,4.5267,4.5307,4.5307,4.5307,4.5307,4.5307,4.5307,4.5307,4.5307,4.5307,4.5307,4.5307,4.5307,4.5307,4.5307,4.5307,4.5307,4.5307,4.5359,4.5379,4.5409,4.5477,4.5495,4.5513,4.5577,4.5586,4.5594,4.5594,4.5594,4.5594,4.5594,4.5594,4.5594,4.5594,4.5594,4.5594,4.5594,4.5594,4.5932,4.6894,4.6962,4.724,4.8125,4.7471,4.6904,4.6904,4.6124,4.5654,4.5764,4.5793,4.5822,4.5878,4.6,4.6072,4.6098,4.6214,4.6277,4.63,4.63,4.63,4.63,4.63,4.63,4.63,4.63,4.63,2.049,2.1262,2.1464,2.0097,2.005,1.9565,1.6572,1.5685,1.5575,1.5832,0.0,0.0,0.0,0.0,0.0,0.0,1.5428,1.5878,1.508,1.5809,1.722,1.9408,1.9954,2.0971,2.3004,2.3743,2.48,2.654,2.7472,2.8345,2.922,3.1352,3.274,3.3078,3.4832,3.6181,3.7026,3.7954,3.8721,3.9337,3.9827,4.0625,4.1666,4.2672,4.3656,4.4571,4.5067,4.5307,4.5307,4.5307,4.5307,4.5307,4.5307,4.5307,4.5307,4.5307,4.5307,4.5307,4.5307,4.5307,4.5307,4.5307,4.5328,4.5359,4.5398,4.5429,4.5467,4.5485,4.5522,4.5568,4.5586,4.5594,4.5594,4.5594,4.5594,4.5594,4.5594,4.5594,4.5594,4.5594,4.5594,4.5594,4.5594,4.5594,4.5893,4.6778,4.6904,4.7019,4.7355,4.7096,4.6721,4.6201,4.5899,4.5734,4.58,4.5908,4.5988,4.6005,4.6141,4.6214,4.6214,4.6273,4.63,4.63,4.63,4.63,4.63,4.63,4.63,4.63,4.63,4.63,2.2675,2.2786,2.2455,2.2455,2.0876,1.8948,1.7557,1.6328,1.5631,1.6138,1.5845,0.0,0.0,0.0,0.0,0.0,0.0,1.5417,1.4617,1.4471,1.5299,1.7636,1.8284,1.9214,2.0916,2.1207,2.2118,2.4079,2.5053,2.6112,2.7402,2.9898,3.1611,3.236,3.4136,3.5498,3.6423,3.7604,3.8549,3.9253,3.9682,4.0352,4.1252,4.2304,4.3252,4.4045,4.4914,4.5307,4.5307,4.5307,4.5307,4.5307,4.5307,4.5307,4.5307,4.5307,4.5307,4.5307,4.5307,4.5307,4.5307,4.5307,4.5328,4.5388,4.5399,4.5419,4.5485,4.5513,4.5568,4.5594,4.5594,4.5594,4.5594,4.5594,4.5594,4.5594,4.5594,4.5594,4.5594,4.5594,4.5594,4.5594,4.5594,4.5594,4.5806,4.6451,4.6547,4.6547,4.6547,4.6572,4.6356,4.572,4.5759,4.5841,4.5879,4.6031,4.6128,4.6147,4.6245,4.63,4.63,4.63,4.63,4.63,4.63,4.63,4.63,4.63,4.63,4.63,4.63,4.63,2.6007,2.5309,2.4116,2.4116,2.1702,1.9077,1.8243,1.8016,1.7337,1.5044,1.6383,1.7527,1.6022,0.0,0.0,0.0,0.0,0.0,0.0,1.4506,1.4537,1.4641,1.597,1.691,1.698,1.9133,2.0884,2.1752,2.2612,2.4143,2.651,2.7475,2.9152,3.1749,3.3392,3.4726,3.5713,3.7369,3.8331,3.8628,3.9494,4.0456,4.1523,4.2393,4.3252,4.4045,4.4914,4.5307,4.5307,4.5307,4.5307,4.5307,4.5307,4.5307,4.5307,4.5307,4.5307,4.5307,4.5307,4.5307,4.5307,4.5307,4.5307,4.5328,4.5371,4.54,4.5429,4.5568,4.5594,4.5594,4.5594,4.5594,4.5594,4.5594,4.5594,4.5594,4.5594,4.5594,4.5594,4.5594,4.5594,4.5594,4.5594,4.5594,4.5614,4.5633,4.5633,4.5633,4.5633,4.5743,4.5819,4.58,4.5865,4.5959,4.6087,4.6098,4.6167,4.6296,4.63,4.63,4.63,4.63,4.63,4.63,4.63,4.63,4.63,4.63,4.63,4.63,4.63,4.63,2.6961,2.6612,2.5786,2.5786,2.3749,2.1253,1.9326,1.8482,1.741,1.5007,1.5998,1.6798,1.5191,0.0,0.0,0.0,0.0,0.0,0.0,1.4493,1.4506,1.45,1.4965,1.5672,1.6691,1.6641,1.7284,1.9102,2.0055,2.162,2.4088,2.6502,2.8773,3.088,3.2664,3.4113,3.515,3.6966,3.8203,3.888,3.9747,4.0625,4.1533,4.2393,4.3252,4.4045,4.4914,4.5307,4.5307,4.5307,4.5307,4.5307,4.5307,4.5307,4.5307,4.5307,4.5307,4.5307,4.5307,4.5307,4.5307,4.5307,4.5329,4.538,4.539,4.5457,4.5531,4.5586,4.5594,4.5594,4.5594,4.5594,4.5594,4.5594,4.5594,4.5594,4.5594,4.5594,4.5594,4.5594,4.5594,4.5594,4.5594,4.5594,4.5594,4.5594,4.5594,4.5637,4.5712,4.5771,4.5822,4.5852,4.5964,4.6053,4.6098,4.6178,4.6247,4.63,4.63,4.63,4.63,4.63,4.63,4.63,4.63,4.63,4.63,4.63,4.63,4.63,4.63,4.63,2.9494,2.8723,2.7592,2.8172,2.586,2.3162,2.2134,2.1272,2.0097,1.7961,1.8126,1.8052,1.6126,0.0,0.0,0.0,0.0,0.0,0.0,1.4546,1.4574,1.4574,1.4535,1.4879,1.5891,1.5075,1.538,1.7518,1.8197,2.0018,2.3413,2.5569,2.7937,3.0663,3.2192,3.3497,3.4573,3.6372,3.7693,3.8553,3.9431,4.0272,4.1113,4.2278,4.308,4.3643,4.48,4.5307,4.5307,4.5307,4.5307,4.5307,4.5307,4.5307,4.5307,4.5307,4.5307,4.5307,4.5307,4.5307,4.5307,4.5307,4.535,4.54,4.54,4.5485,4.5568,4.5586,4.5594,4.5594,4.5594,4.5594,4.5594,4.5594,4.5594,4.5594,4.5594,4.5594,4.5594,4.5594,4.5594,4.571,4.6009,4.6089,4.6023,4.5726,4.5668,4.5712,4.5822,4.5885,4.5922,4.5969,4.6095,4.6176,4.6176,4.6245,4.6436,4.6749,4.6768,4.6885,4.7178,4.6905,4.7042,4.7647,4.6768,4.6593,4.7198,4.6593,4.63,4.63,4.63,4.63]}]]